<?xml version="1.0" encoding="UTF-8" standalone="no" ?>
<gpx xmlns="http://www.topografix.com/GPX/1/1" xmlns:xsi="http://www.w3.org/2001/XMLSchema-instance" xsi:schemaLocation="http://www.topografix.com/GPX/1/1 http://www.topografix.com/GPX/1/1/gpx.xsd" version="1.1" creator="VisuGPX - https://www.visugpx.com">
  <metadata>
    <name>83-M-Salernes</name>
    <desc><![CDATA[83-M-Salernes :  la Lauve - St Barthélémy -  la Tuilière                                ]]></desc>
  </metadata>
  <trk>
    <name><![CDATA[2016-04-13-M-salernes-modif]]></name>
    <trkseg>
      <trkpt lat="43.56526" lon="6.2276">
        <ele>212.2</ele>
        <time>2016-04-13T06:30:52Z</time>
      </trkpt>
      <trkpt lat="43.56524" lon="6.22772">
        <ele>211.8</ele>
        <time>2016-04-13T06:31:29Z</time>
      </trkpt>
      <trkpt lat="43.56524" lon="6.22772">
        <ele>211.5</ele>
        <time>2016-04-13T06:31:30Z</time>
      </trkpt>
      <trkpt lat="43.5652" lon="6.22771">
        <ele>211.8</ele>
        <time>2016-04-13T06:32:42Z</time>
      </trkpt>
      <trkpt lat="43.5652" lon="6.22773">
        <ele>211.7</ele>
        <time>2016-04-13T06:32:43Z</time>
      </trkpt>
      <trkpt lat="43.56528" lon="6.22791">
        <ele>212</ele>
        <time>2016-04-13T06:32:54Z</time>
      </trkpt>
      <trkpt lat="43.56529" lon="6.22801">
        <ele>212.1</ele>
        <time>2016-04-13T06:33:00Z</time>
      </trkpt>
      <trkpt lat="43.5653" lon="6.22812">
        <ele>212.1</ele>
        <time>2016-04-13T06:33:06Z</time>
      </trkpt>
      <trkpt lat="43.56535" lon="6.22821">
        <ele>213</ele>
        <time>2016-04-13T06:33:14Z</time>
      </trkpt>
      <trkpt lat="43.56541" lon="6.22829">
        <ele>213.3</ele>
        <time>2016-04-13T06:33:22Z</time>
      </trkpt>
      <trkpt lat="43.56549" lon="6.2283">
        <ele>214.5</ele>
        <time>2016-04-13T06:33:30Z</time>
      </trkpt>
      <trkpt lat="43.56558" lon="6.22833">
        <ele>215.3</ele>
        <time>2016-04-13T06:33:38Z</time>
      </trkpt>
      <trkpt lat="43.56566" lon="6.22834">
        <ele>216.5</ele>
        <time>2016-04-13T06:33:46Z</time>
      </trkpt>
      <trkpt lat="43.56567" lon="6.22834">
        <ele>216.5</ele>
        <time>2016-04-13T06:33:47Z</time>
      </trkpt>
      <trkpt lat="43.56582" lon="6.22841">
        <ele>218.3</ele>
        <time>2016-04-13T06:34:02Z</time>
      </trkpt>
      <trkpt lat="43.5659" lon="6.22844">
        <ele>218.6</ele>
        <time>2016-04-13T06:34:09Z</time>
      </trkpt>
      <trkpt lat="43.56594" lon="6.22854">
        <ele>219.1</ele>
        <time>2016-04-13T06:34:19Z</time>
      </trkpt>
      <trkpt lat="43.56598" lon="6.22864">
        <ele>219.5</ele>
        <time>2016-04-13T06:34:27Z</time>
      </trkpt>
      <trkpt lat="43.56607" lon="6.22863">
        <ele>220.1</ele>
        <time>2016-04-13T06:34:37Z</time>
      </trkpt>
      <trkpt lat="43.56615" lon="6.22861">
        <ele>220.2</ele>
        <time>2016-04-13T06:34:45Z</time>
      </trkpt>
      <trkpt lat="43.56623" lon="6.22861">
        <ele>220.7</ele>
        <time>2016-04-13T06:34:52Z</time>
      </trkpt>
      <trkpt lat="43.56624" lon="6.22861">
        <ele>220.9</ele>
        <time>2016-04-13T06:34:53Z</time>
      </trkpt>
      <trkpt lat="43.56639" lon="6.22865">
        <ele>222.4</ele>
        <time>2016-04-13T06:35:10Z</time>
      </trkpt>
      <trkpt lat="43.56644" lon="6.22873">
        <ele>223.3</ele>
        <time>2016-04-13T06:35:18Z</time>
      </trkpt>
      <trkpt lat="43.5665" lon="6.22882">
        <ele>224.2</ele>
        <time>2016-04-13T06:35:28Z</time>
      </trkpt>
      <trkpt lat="43.56655" lon="6.22892">
        <ele>225.8</ele>
        <time>2016-04-13T06:35:39Z</time>
      </trkpt>
      <trkpt lat="43.5666" lon="6.22902">
        <ele>226.8</ele>
        <time>2016-04-13T06:35:48Z</time>
      </trkpt>
      <trkpt lat="43.56664" lon="6.22912">
        <ele>226.8</ele>
        <time>2016-04-13T06:35:58Z</time>
      </trkpt>
      <trkpt lat="43.56664" lon="6.22913">
        <ele>227</ele>
        <time>2016-04-13T06:35:59Z</time>
      </trkpt>
      <trkpt lat="43.56677" lon="6.22925">
        <ele>228.4</ele>
        <time>2016-04-13T06:36:12Z</time>
      </trkpt>
      <trkpt lat="43.56683" lon="6.22932">
        <ele>228.6</ele>
        <time>2016-04-13T06:36:17Z</time>
      </trkpt>
      <trkpt lat="43.56691" lon="6.22935">
        <ele>228.9</ele>
        <time>2016-04-13T06:36:24Z</time>
      </trkpt>
      <trkpt lat="43.56699" lon="6.22933">
        <ele>229.4</ele>
        <time>2016-04-13T06:36:31Z</time>
      </trkpt>
      <trkpt lat="43.56708" lon="6.22928">
        <ele>230.5</ele>
        <time>2016-04-13T06:36:39Z</time>
      </trkpt>
      <trkpt lat="43.56716" lon="6.22926">
        <ele>231.6</ele>
        <time>2016-04-13T06:36:46Z</time>
      </trkpt>
      <trkpt lat="43.56723" lon="6.22921">
        <ele>232.7</ele>
        <time>2016-04-13T06:36:53Z</time>
      </trkpt>
      <trkpt lat="43.56731" lon="6.22918">
        <ele>234.1</ele>
        <time>2016-04-13T06:37:00Z</time>
      </trkpt>
      <trkpt lat="43.56732" lon="6.22917">
        <ele>234.4</ele>
        <time>2016-04-13T06:37:01Z</time>
      </trkpt>
      <trkpt lat="43.56746" lon="6.22905">
        <ele>235.8</ele>
        <time>2016-04-13T06:37:19Z</time>
      </trkpt>
      <trkpt lat="43.56753" lon="6.22899">
        <ele>236.8</ele>
        <time>2016-04-13T06:37:29Z</time>
      </trkpt>
      <trkpt lat="43.5676" lon="6.22891">
        <ele>237.7</ele>
        <time>2016-04-13T06:37:36Z</time>
      </trkpt>
      <trkpt lat="43.56767" lon="6.22895">
        <ele>238.6</ele>
        <time>2016-04-13T06:37:44Z</time>
      </trkpt>
      <trkpt lat="43.56774" lon="6.22901">
        <ele>239.8</ele>
        <time>2016-04-13T06:37:51Z</time>
      </trkpt>
      <trkpt lat="43.56783" lon="6.22906">
        <ele>241.4</ele>
        <time>2016-04-13T06:37:59Z</time>
      </trkpt>
      <trkpt lat="43.56791" lon="6.22907">
        <ele>242.6</ele>
        <time>2016-04-13T06:38:07Z</time>
      </trkpt>
      <trkpt lat="43.56791" lon="6.22908">
        <ele>242.7</ele>
        <time>2016-04-13T06:38:08Z</time>
      </trkpt>
      <trkpt lat="43.56802" lon="6.22924">
        <ele>245</ele>
        <time>2016-04-13T06:38:26Z</time>
      </trkpt>
      <trkpt lat="43.56807" lon="6.22933">
        <ele>246.4</ele>
        <time>2016-04-13T06:38:33Z</time>
      </trkpt>
      <trkpt lat="43.56813" lon="6.22941">
        <ele>247.1</ele>
        <time>2016-04-13T06:38:40Z</time>
      </trkpt>
      <trkpt lat="43.56818" lon="6.2295">
        <ele>248.5</ele>
        <time>2016-04-13T06:38:48Z</time>
      </trkpt>
      <trkpt lat="43.56826" lon="6.22956">
        <ele>249.5</ele>
        <time>2016-04-13T06:38:56Z</time>
      </trkpt>
      <trkpt lat="43.56833" lon="6.22961">
        <ele>251.2</ele>
        <time>2016-04-13T06:39:03Z</time>
      </trkpt>
      <trkpt lat="43.56838" lon="6.22972">
        <ele>251.7</ele>
        <time>2016-04-13T06:39:11Z</time>
      </trkpt>
      <trkpt lat="43.56838" lon="6.22973">
        <ele>252</ele>
        <time>2016-04-13T06:39:12Z</time>
      </trkpt>
      <trkpt lat="43.56848" lon="6.22988">
        <ele>253.3</ele>
        <time>2016-04-13T06:39:26Z</time>
      </trkpt>
      <trkpt lat="43.56857" lon="6.22989">
        <ele>254</ele>
        <time>2016-04-13T06:39:33Z</time>
      </trkpt>
      <trkpt lat="43.56865" lon="6.22992">
        <ele>255.3</ele>
        <time>2016-04-13T06:39:40Z</time>
      </trkpt>
      <trkpt lat="43.56873" lon="6.22992">
        <ele>255.5</ele>
        <time>2016-04-13T06:39:46Z</time>
      </trkpt>
      <trkpt lat="43.56881" lon="6.22993">
        <ele>256.7</ele>
        <time>2016-04-13T06:39:53Z</time>
      </trkpt>
      <trkpt lat="43.56889" lon="6.22999">
        <ele>257.7</ele>
        <time>2016-04-13T06:40:01Z</time>
      </trkpt>
      <trkpt lat="43.56895" lon="6.23006">
        <ele>258.7</ele>
        <time>2016-04-13T06:40:10Z</time>
      </trkpt>
      <trkpt lat="43.56903" lon="6.23012">
        <ele>259.4</ele>
        <time>2016-04-13T06:40:18Z</time>
      </trkpt>
      <trkpt lat="43.56903" lon="6.23013">
        <ele>259.4</ele>
        <time>2016-04-13T06:40:19Z</time>
      </trkpt>
      <trkpt lat="43.56917" lon="6.23025">
        <ele>260.2</ele>
        <time>2016-04-13T06:40:34Z</time>
      </trkpt>
      <trkpt lat="43.56924" lon="6.23032">
        <ele>260.9</ele>
        <time>2016-04-13T06:40:42Z</time>
      </trkpt>
      <trkpt lat="43.56931" lon="6.23037">
        <ele>261.2</ele>
        <time>2016-04-13T06:40:48Z</time>
      </trkpt>
      <trkpt lat="43.56938" lon="6.23042">
        <ele>260.8</ele>
        <time>2016-04-13T06:40:55Z</time>
      </trkpt>
      <trkpt lat="43.56946" lon="6.23046">
        <ele>260.9</ele>
        <time>2016-04-13T06:41:02Z</time>
      </trkpt>
      <trkpt lat="43.56954" lon="6.2305">
        <ele>261.3</ele>
        <time>2016-04-13T06:41:10Z</time>
      </trkpt>
      <trkpt lat="43.56962" lon="6.23056">
        <ele>261.6</ele>
        <time>2016-04-13T06:41:18Z</time>
      </trkpt>
      <trkpt lat="43.5697" lon="6.23059">
        <ele>262.1</ele>
        <time>2016-04-13T06:41:25Z</time>
      </trkpt>
      <trkpt lat="43.56971" lon="6.2306">
        <ele>262.1</ele>
        <time>2016-04-13T06:41:26Z</time>
      </trkpt>
      <trkpt lat="43.56979" lon="6.23079">
        <ele>264</ele>
        <time>2016-04-13T06:41:39Z</time>
      </trkpt>
      <trkpt lat="43.56987" lon="6.23078">
        <ele>264.7</ele>
        <time>2016-04-13T06:41:45Z</time>
      </trkpt>
      <trkpt lat="43.56993" lon="6.23087">
        <ele>266</ele>
        <time>2016-04-13T06:41:54Z</time>
      </trkpt>
      <trkpt lat="43.57" lon="6.23094">
        <ele>267.5</ele>
        <time>2016-04-13T06:42:02Z</time>
      </trkpt>
      <trkpt lat="43.57008" lon="6.23095">
        <ele>268.6</ele>
        <time>2016-04-13T06:42:09Z</time>
      </trkpt>
      <trkpt lat="43.57016" lon="6.23099">
        <ele>269.3</ele>
        <time>2016-04-13T06:42:15Z</time>
      </trkpt>
      <trkpt lat="43.57024" lon="6.23101">
        <ele>270.5</ele>
        <time>2016-04-13T06:42:23Z</time>
      </trkpt>
      <trkpt lat="43.57033" lon="6.23099">
        <ele>271.5</ele>
        <time>2016-04-13T06:42:30Z</time>
      </trkpt>
      <trkpt lat="43.57034" lon="6.23099">
        <ele>271.6</ele>
        <time>2016-04-13T06:42:31Z</time>
      </trkpt>
      <trkpt lat="43.57049" lon="6.23094">
        <ele>274.3</ele>
        <time>2016-04-13T06:42:46Z</time>
      </trkpt>
      <trkpt lat="43.57057" lon="6.23089">
        <ele>274.9</ele>
        <time>2016-04-13T06:42:53Z</time>
      </trkpt>
      <trkpt lat="43.57065" lon="6.23085">
        <ele>276.1</ele>
        <time>2016-04-13T06:43:02Z</time>
      </trkpt>
      <trkpt lat="43.57073" lon="6.23081">
        <ele>277.8</ele>
        <time>2016-04-13T06:43:11Z</time>
      </trkpt>
      <trkpt lat="43.57082" lon="6.23083">
        <ele>278.9</ele>
        <time>2016-04-13T06:43:20Z</time>
      </trkpt>
      <trkpt lat="43.5709" lon="6.23085">
        <ele>280.8</ele>
        <time>2016-04-13T06:43:28Z</time>
      </trkpt>
      <trkpt lat="43.57098" lon="6.23088">
        <ele>282.5</ele>
        <time>2016-04-13T06:43:38Z</time>
      </trkpt>
      <trkpt lat="43.571" lon="6.23088">
        <ele>282.6</ele>
        <time>2016-04-13T06:43:39Z</time>
      </trkpt>
      <trkpt lat="43.57113" lon="6.23083">
        <ele>283.6</ele>
        <time>2016-04-13T06:43:50Z</time>
      </trkpt>
      <trkpt lat="43.57122" lon="6.23082">
        <ele>284.3</ele>
        <time>2016-04-13T06:43:58Z</time>
      </trkpt>
      <trkpt lat="43.57129" lon="6.23081">
        <ele>285.6</ele>
        <time>2016-04-13T06:44:04Z</time>
      </trkpt>
      <trkpt lat="43.57137" lon="6.2308">
        <ele>285.9</ele>
        <time>2016-04-13T06:44:09Z</time>
      </trkpt>
      <trkpt lat="43.57145" lon="6.23083">
        <ele>285.8</ele>
        <time>2016-04-13T06:44:16Z</time>
      </trkpt>
      <trkpt lat="43.57154" lon="6.23086">
        <ele>286.4</ele>
        <time>2016-04-13T06:44:25Z</time>
      </trkpt>
      <trkpt lat="43.57162" lon="6.23088">
        <ele>287.2</ele>
        <time>2016-04-13T06:44:32Z</time>
      </trkpt>
      <trkpt lat="43.57171" lon="6.23091">
        <ele>288.2</ele>
        <time>2016-04-13T06:44:40Z</time>
      </trkpt>
      <trkpt lat="43.57172" lon="6.23091">
        <ele>288.2</ele>
        <time>2016-04-13T06:44:41Z</time>
      </trkpt>
      <trkpt lat="43.57184" lon="6.23105">
        <ele>290.1</ele>
        <time>2016-04-13T06:44:56Z</time>
      </trkpt>
      <trkpt lat="43.57188" lon="6.23116">
        <ele>290.2</ele>
        <time>2016-04-13T06:45:05Z</time>
      </trkpt>
      <trkpt lat="43.5719" lon="6.23128">
        <ele>290.1</ele>
        <time>2016-04-13T06:45:13Z</time>
      </trkpt>
      <trkpt lat="43.57195" lon="6.23139">
        <ele>290.1</ele>
        <time>2016-04-13T06:45:23Z</time>
      </trkpt>
      <trkpt lat="43.57197" lon="6.23149">
        <ele>290.5</ele>
        <time>2016-04-13T06:45:30Z</time>
      </trkpt>
      <trkpt lat="43.57199" lon="6.2316">
        <ele>289.6</ele>
        <time>2016-04-13T06:45:38Z</time>
      </trkpt>
      <trkpt lat="43.57203" lon="6.2317">
        <ele>288.8</ele>
        <time>2016-04-13T06:45:45Z</time>
      </trkpt>
      <trkpt lat="43.57203" lon="6.23172">
        <ele>288.9</ele>
        <time>2016-04-13T06:45:46Z</time>
      </trkpt>
      <trkpt lat="43.5722" lon="6.2317">
        <ele>288.2</ele>
        <time>2016-04-13T06:46:45Z</time>
      </trkpt>
      <trkpt lat="43.57224" lon="6.2318">
        <ele>288.6</ele>
        <time>2016-04-13T06:47:04Z</time>
      </trkpt>
      <trkpt lat="43.57224" lon="6.23181">
        <ele>288.5</ele>
        <time>2016-04-13T06:47:05Z</time>
      </trkpt>
      <trkpt lat="43.57237" lon="6.23193">
        <ele>288.9</ele>
        <time>2016-04-13T06:47:20Z</time>
      </trkpt>
      <trkpt lat="43.57245" lon="6.23198">
        <ele>289.1</ele>
        <time>2016-04-13T06:47:26Z</time>
      </trkpt>
      <trkpt lat="43.57252" lon="6.23204">
        <ele>290.3</ele>
        <time>2016-04-13T06:47:34Z</time>
      </trkpt>
      <trkpt lat="43.5726" lon="6.23208">
        <ele>291.2</ele>
        <time>2016-04-13T06:47:42Z</time>
      </trkpt>
      <trkpt lat="43.57267" lon="6.23214">
        <ele>292.6</ele>
        <time>2016-04-13T06:47:49Z</time>
      </trkpt>
      <trkpt lat="43.57275" lon="6.2322">
        <ele>292</ele>
        <time>2016-04-13T06:47:57Z</time>
      </trkpt>
      <trkpt lat="43.57278" lon="6.23231">
        <ele>292.2</ele>
        <time>2016-04-13T06:48:07Z</time>
      </trkpt>
      <trkpt lat="43.57278" lon="6.23232">
        <ele>292</ele>
        <time>2016-04-13T06:48:08Z</time>
      </trkpt>
      <trkpt lat="43.5728" lon="6.23238">
        <ele>292.5</ele>
        <time>2016-04-13T06:48:45Z</time>
      </trkpt>
      <trkpt lat="43.57277" lon="6.23248">
        <ele>293.8</ele>
        <time>2016-04-13T06:49:05Z</time>
      </trkpt>
      <trkpt lat="43.57275" lon="6.2326">
        <ele>294.7</ele>
        <time>2016-04-13T06:49:16Z</time>
      </trkpt>
      <trkpt lat="43.57276" lon="6.23261">
        <ele>294.7</ele>
        <time>2016-04-13T06:49:17Z</time>
      </trkpt>
      <trkpt lat="43.57291" lon="6.2327">
        <ele>298.3</ele>
        <time>2016-04-13T06:49:36Z</time>
      </trkpt>
      <trkpt lat="43.573" lon="6.23271">
        <ele>300.1</ele>
        <time>2016-04-13T06:49:48Z</time>
      </trkpt>
      <trkpt lat="43.57308" lon="6.23273">
        <ele>302.4</ele>
        <time>2016-04-13T06:50:00Z</time>
      </trkpt>
      <trkpt lat="43.57316" lon="6.23279">
        <ele>305.1</ele>
        <time>2016-04-13T06:50:14Z</time>
      </trkpt>
      <trkpt lat="43.57324" lon="6.23284">
        <ele>307.5</ele>
        <time>2016-04-13T06:50:27Z</time>
      </trkpt>
      <trkpt lat="43.57325" lon="6.23284">
        <ele>307.4</ele>
        <time>2016-04-13T06:50:28Z</time>
      </trkpt>
      <trkpt lat="43.5734" lon="6.23287">
        <ele>311.7</ele>
        <time>2016-04-13T06:50:50Z</time>
      </trkpt>
      <trkpt lat="43.57349" lon="6.23288">
        <ele>314.2</ele>
        <time>2016-04-13T06:51:02Z</time>
      </trkpt>
      <trkpt lat="43.57357" lon="6.23291">
        <ele>316.6</ele>
        <time>2016-04-13T06:51:16Z</time>
      </trkpt>
      <trkpt lat="43.57366" lon="6.23292">
        <ele>319</ele>
        <time>2016-04-13T06:51:30Z</time>
      </trkpt>
      <trkpt lat="43.57367" lon="6.23291">
        <ele>319.2</ele>
        <time>2016-04-13T06:51:31Z</time>
      </trkpt>
      <trkpt lat="43.57382" lon="6.23288">
        <ele>322.3</ele>
        <time>2016-04-13T06:51:58Z</time>
      </trkpt>
      <trkpt lat="43.57391" lon="6.23286">
        <ele>323.9</ele>
        <time>2016-04-13T06:52:10Z</time>
      </trkpt>
      <trkpt lat="43.57399" lon="6.23283">
        <ele>327.1</ele>
        <time>2016-04-13T06:54:18Z</time>
      </trkpt>
      <trkpt lat="43.574" lon="6.23283">
        <ele>327.1</ele>
        <time>2016-04-13T06:54:19Z</time>
      </trkpt>
      <trkpt lat="43.57416" lon="6.23284">
        <ele>331.2</ele>
        <time>2016-04-13T06:54:41Z</time>
      </trkpt>
      <trkpt lat="43.57424" lon="6.2328">
        <ele>332.5</ele>
        <time>2016-04-13T06:54:54Z</time>
      </trkpt>
      <trkpt lat="43.57433" lon="6.23281">
        <ele>335.2</ele>
        <time>2016-04-13T06:55:07Z</time>
      </trkpt>
      <trkpt lat="43.57441" lon="6.23278">
        <ele>337.1</ele>
        <time>2016-04-13T06:55:21Z</time>
      </trkpt>
      <trkpt lat="43.57442" lon="6.23277">
        <ele>337.7</ele>
        <time>2016-04-13T06:55:22Z</time>
      </trkpt>
      <trkpt lat="43.57457" lon="6.23269">
        <ele>340.8</ele>
        <time>2016-04-13T06:55:43Z</time>
      </trkpt>
      <trkpt lat="43.57465" lon="6.23267">
        <ele>342.9</ele>
        <time>2016-04-13T06:55:56Z</time>
      </trkpt>
      <trkpt lat="43.57473" lon="6.23263">
        <ele>345.5</ele>
        <time>2016-04-13T06:56:10Z</time>
      </trkpt>
      <trkpt lat="43.57481" lon="6.23258">
        <ele>346.7</ele>
        <time>2016-04-13T06:56:22Z</time>
      </trkpt>
      <trkpt lat="43.57482" lon="6.23258">
        <ele>346.5</ele>
        <time>2016-04-13T06:56:23Z</time>
      </trkpt>
      <trkpt lat="43.57495" lon="6.23244">
        <ele>350.3</ele>
        <time>2016-04-13T06:56:45Z</time>
      </trkpt>
      <trkpt lat="43.57502" lon="6.23238">
        <ele>350.7</ele>
        <time>2016-04-13T06:56:57Z</time>
      </trkpt>
      <trkpt lat="43.5751" lon="6.23233">
        <ele>353</ele>
        <time>2016-04-13T06:57:10Z</time>
      </trkpt>
      <trkpt lat="43.57517" lon="6.23228">
        <ele>355.1</ele>
        <time>2016-04-13T06:57:22Z</time>
      </trkpt>
      <trkpt lat="43.57525" lon="6.23223">
        <ele>356.2</ele>
        <time>2016-04-13T06:57:35Z</time>
      </trkpt>
      <trkpt lat="43.57526" lon="6.23223">
        <ele>356.5</ele>
        <time>2016-04-13T06:57:36Z</time>
      </trkpt>
      <trkpt lat="43.57543" lon="6.23221">
        <ele>359.7</ele>
        <time>2016-04-13T06:58:00Z</time>
      </trkpt>
      <trkpt lat="43.57551" lon="6.23217">
        <ele>361.1</ele>
        <time>2016-04-13T06:58:15Z</time>
      </trkpt>
      <trkpt lat="43.57559" lon="6.23212">
        <ele>361.8</ele>
        <time>2016-04-13T06:58:27Z</time>
      </trkpt>
      <trkpt lat="43.57565" lon="6.23203">
        <ele>362.3</ele>
        <time>2016-04-13T06:58:39Z</time>
      </trkpt>
      <trkpt lat="43.57565" lon="6.23202">
        <ele>362.4</ele>
        <time>2016-04-13T06:58:40Z</time>
      </trkpt>
      <trkpt lat="43.57573" lon="6.23184">
        <ele>364.3</ele>
        <time>2016-04-13T06:59:01Z</time>
      </trkpt>
      <trkpt lat="43.57574" lon="6.23172">
        <ele>366.3</ele>
        <time>2016-04-13T06:59:13Z</time>
      </trkpt>
      <trkpt lat="43.57574" lon="6.23159">
        <ele>367.4</ele>
        <time>2016-04-13T06:59:25Z</time>
      </trkpt>
      <trkpt lat="43.57575" lon="6.23147">
        <ele>368.9</ele>
        <time>2016-04-13T06:59:37Z</time>
      </trkpt>
      <trkpt lat="43.57578" lon="6.23137">
        <ele>370.3</ele>
        <time>2016-04-13T06:59:48Z</time>
      </trkpt>
      <trkpt lat="43.57578" lon="6.23136">
        <ele>370.3</ele>
        <time>2016-04-13T06:59:49Z</time>
      </trkpt>
      <trkpt lat="43.57584" lon="6.23115">
        <ele>370.6</ele>
        <time>2016-04-13T07:00:10Z</time>
      </trkpt>
      <trkpt lat="43.57588" lon="6.23105">
        <ele>371.6</ele>
        <time>2016-04-13T07:00:20Z</time>
      </trkpt>
      <trkpt lat="43.57591" lon="6.23093">
        <ele>372.7</ele>
        <time>2016-04-13T07:00:32Z</time>
      </trkpt>
      <trkpt lat="43.57595" lon="6.23083">
        <ele>374.9</ele>
        <time>2016-04-13T07:00:46Z</time>
      </trkpt>
      <trkpt lat="43.57599" lon="6.23073">
        <ele>376.7</ele>
        <time>2016-04-13T07:00:56Z</time>
      </trkpt>
      <trkpt lat="43.57599" lon="6.23072">
        <ele>376.9</ele>
        <time>2016-04-13T07:00:57Z</time>
      </trkpt>
      <trkpt lat="43.57606" lon="6.23052">
        <ele>380.2</ele>
        <time>2016-04-13T07:01:18Z</time>
      </trkpt>
      <trkpt lat="43.5761" lon="6.23042">
        <ele>381.4</ele>
        <time>2016-04-13T07:01:29Z</time>
      </trkpt>
      <trkpt lat="43.57617" lon="6.23034">
        <ele>382.4</ele>
        <time>2016-04-13T07:01:39Z</time>
      </trkpt>
      <trkpt lat="43.57625" lon="6.23028">
        <ele>383.3</ele>
        <time>2016-04-13T07:01:49Z</time>
      </trkpt>
      <trkpt lat="43.57632" lon="6.23021">
        <ele>384.4</ele>
        <time>2016-04-13T07:01:58Z</time>
      </trkpt>
      <trkpt lat="43.57632" lon="6.23021">
        <ele>384.4</ele>
        <time>2016-04-13T07:01:59Z</time>
      </trkpt>
      <trkpt lat="43.57645" lon="6.23006">
        <ele>387.4</ele>
        <time>2016-04-13T07:02:19Z</time>
      </trkpt>
      <trkpt lat="43.57648" lon="6.22996">
        <ele>388.9</ele>
        <time>2016-04-13T07:02:29Z</time>
      </trkpt>
      <trkpt lat="43.57654" lon="6.22987">
        <ele>389.6</ele>
        <time>2016-04-13T07:02:37Z</time>
      </trkpt>
      <trkpt lat="43.5766" lon="6.22977">
        <ele>390.8</ele>
        <time>2016-04-13T07:02:48Z</time>
      </trkpt>
      <trkpt lat="43.57665" lon="6.22968">
        <ele>392</ele>
        <time>2016-04-13T07:02:58Z</time>
      </trkpt>
      <trkpt lat="43.57671" lon="6.2296">
        <ele>393.5</ele>
        <time>2016-04-13T07:03:10Z</time>
      </trkpt>
      <trkpt lat="43.57671" lon="6.2296">
        <ele>393.5</ele>
        <time>2016-04-13T07:03:11Z</time>
      </trkpt>
      <trkpt lat="43.57686" lon="6.22949">
        <ele>397.3</ele>
        <time>2016-04-13T07:03:31Z</time>
      </trkpt>
      <trkpt lat="43.57694" lon="6.22944">
        <ele>398.1</ele>
        <time>2016-04-13T07:03:40Z</time>
      </trkpt>
      <trkpt lat="43.57701" lon="6.22938">
        <ele>400</ele>
        <time>2016-04-13T07:03:52Z</time>
      </trkpt>
      <trkpt lat="43.57706" lon="6.22929">
        <ele>400.2</ele>
        <time>2016-04-13T07:04:00Z</time>
      </trkpt>
      <trkpt lat="43.57712" lon="6.2292">
        <ele>400.8</ele>
        <time>2016-04-13T07:04:15Z</time>
      </trkpt>
      <trkpt lat="43.57712" lon="6.22919">
        <ele>401.2</ele>
        <time>2016-04-13T07:04:16Z</time>
      </trkpt>
      <trkpt lat="43.57717" lon="6.22909">
        <ele>402.1</ele>
        <time>2016-04-13T07:06:57Z</time>
      </trkpt>
      <trkpt lat="43.57733" lon="6.22905">
        <ele>402.4</ele>
        <time>2016-04-13T07:07:16Z</time>
      </trkpt>
      <trkpt lat="43.57741" lon="6.22902">
        <ele>402.7</ele>
        <time>2016-04-13T07:07:24Z</time>
      </trkpt>
      <trkpt lat="43.57742" lon="6.2289">
        <ele>402.8</ele>
        <time>2016-04-13T07:07:37Z</time>
      </trkpt>
      <trkpt lat="43.5775" lon="6.22885">
        <ele>402.4</ele>
        <time>2016-04-13T07:08:44Z</time>
      </trkpt>
      <trkpt lat="43.5775" lon="6.22885">
        <ele>402.2</ele>
        <time>2016-04-13T07:08:45Z</time>
      </trkpt>
      <trkpt lat="43.57761" lon="6.22866">
        <ele>402.5</ele>
        <time>2016-04-13T07:14:58Z</time>
      </trkpt>
      <trkpt lat="43.57761" lon="6.22865">
        <ele>402.6</ele>
        <time>2016-04-13T07:14:59Z</time>
      </trkpt>
      <trkpt lat="43.57766" lon="6.22843">
        <ele>402.4</ele>
        <time>2016-04-13T07:15:20Z</time>
      </trkpt>
      <trkpt lat="43.5777" lon="6.22833">
        <ele>402.4</ele>
        <time>2016-04-13T07:15:27Z</time>
      </trkpt>
      <trkpt lat="43.57774" lon="6.22822">
        <ele>402.9</ele>
        <time>2016-04-13T07:15:35Z</time>
      </trkpt>
      <trkpt lat="43.57778" lon="6.22811">
        <ele>403.1</ele>
        <time>2016-04-13T07:15:42Z</time>
      </trkpt>
      <trkpt lat="43.57782" lon="6.22801">
        <ele>402.8</ele>
        <time>2016-04-13T07:15:50Z</time>
      </trkpt>
      <trkpt lat="43.57786" lon="6.2279">
        <ele>402.8</ele>
        <time>2016-04-13T07:15:58Z</time>
      </trkpt>
      <trkpt lat="43.57791" lon="6.2278">
        <ele>402.4</ele>
        <time>2016-04-13T07:16:05Z</time>
      </trkpt>
      <trkpt lat="43.57791" lon="6.22779">
        <ele>402.7</ele>
        <time>2016-04-13T07:16:06Z</time>
      </trkpt>
      <trkpt lat="43.57798" lon="6.22759">
        <ele>402.6</ele>
        <time>2016-04-13T07:16:21Z</time>
      </trkpt>
      <trkpt lat="43.57804" lon="6.22752">
        <ele>402.5</ele>
        <time>2016-04-13T07:16:29Z</time>
      </trkpt>
      <trkpt lat="43.5781" lon="6.22745">
        <ele>402.9</ele>
        <time>2016-04-13T07:16:36Z</time>
      </trkpt>
      <trkpt lat="43.57817" lon="6.22738">
        <ele>403.5</ele>
        <time>2016-04-13T07:16:43Z</time>
      </trkpt>
      <trkpt lat="43.57822" lon="6.22728">
        <ele>403.4</ele>
        <time>2016-04-13T07:16:52Z</time>
      </trkpt>
      <trkpt lat="43.57826" lon="6.22718">
        <ele>404.6</ele>
        <time>2016-04-13T07:16:58Z</time>
      </trkpt>
      <trkpt lat="43.57832" lon="6.2271">
        <ele>403.3</ele>
        <time>2016-04-13T07:17:04Z</time>
      </trkpt>
      <trkpt lat="43.57837" lon="6.227">
        <ele>404.5</ele>
        <time>2016-04-13T07:17:12Z</time>
      </trkpt>
      <trkpt lat="43.57838" lon="6.22699">
        <ele>404.7</ele>
        <time>2016-04-13T07:17:13Z</time>
      </trkpt>
      <trkpt lat="43.57851" lon="6.22688">
        <ele>404.2</ele>
        <time>2016-04-13T07:17:25Z</time>
      </trkpt>
      <trkpt lat="43.57859" lon="6.22682">
        <ele>404.8</ele>
        <time>2016-04-13T07:17:33Z</time>
      </trkpt>
      <trkpt lat="43.57867" lon="6.22677">
        <ele>404.9</ele>
        <time>2016-04-13T07:17:41Z</time>
      </trkpt>
      <trkpt lat="43.57874" lon="6.22671">
        <ele>405.7</ele>
        <time>2016-04-13T07:17:51Z</time>
      </trkpt>
      <trkpt lat="43.57881" lon="6.22664">
        <ele>406.3</ele>
        <time>2016-04-13T07:18:08Z</time>
      </trkpt>
      <trkpt lat="43.5789" lon="6.22664">
        <ele>405.7</ele>
        <time>2016-04-13T07:18:17Z</time>
      </trkpt>
      <trkpt lat="43.57891" lon="6.22664">
        <ele>405.8</ele>
        <time>2016-04-13T07:18:18Z</time>
      </trkpt>
      <trkpt lat="43.57905" lon="6.22658">
        <ele>406.4</ele>
        <time>2016-04-13T07:18:33Z</time>
      </trkpt>
      <trkpt lat="43.57913" lon="6.22652">
        <ele>406.7</ele>
        <time>2016-04-13T07:18:39Z</time>
      </trkpt>
      <trkpt lat="43.5792" lon="6.22645">
        <ele>408</ele>
        <time>2016-04-13T07:18:49Z</time>
      </trkpt>
      <trkpt lat="43.57928" lon="6.22644">
        <ele>408.7</ele>
        <time>2016-04-13T07:18:59Z</time>
      </trkpt>
      <trkpt lat="43.57937" lon="6.22643">
        <ele>409.3</ele>
        <time>2016-04-13T07:19:07Z</time>
      </trkpt>
      <trkpt lat="43.57946" lon="6.22644">
        <ele>410</ele>
        <time>2016-04-13T07:19:15Z</time>
      </trkpt>
      <trkpt lat="43.57953" lon="6.22644">
        <ele>411.3</ele>
        <time>2016-04-13T07:19:22Z</time>
      </trkpt>
      <trkpt lat="43.57955" lon="6.22644">
        <ele>411.3</ele>
        <time>2016-04-13T07:19:23Z</time>
      </trkpt>
      <trkpt lat="43.57969" lon="6.22645">
        <ele>411.5</ele>
        <time>2016-04-13T07:19:36Z</time>
      </trkpt>
      <trkpt lat="43.57977" lon="6.22649">
        <ele>412.1</ele>
        <time>2016-04-13T07:19:44Z</time>
      </trkpt>
      <trkpt lat="43.57985" lon="6.22652">
        <ele>413.3</ele>
        <time>2016-04-13T07:19:52Z</time>
      </trkpt>
      <trkpt lat="43.57992" lon="6.22653">
        <ele>413.8</ele>
        <time>2016-04-13T07:19:58Z</time>
      </trkpt>
      <trkpt lat="43.58001" lon="6.22655">
        <ele>413.3</ele>
        <time>2016-04-13T07:20:05Z</time>
      </trkpt>
      <trkpt lat="43.58009" lon="6.22654">
        <ele>413.7</ele>
        <time>2016-04-13T07:20:11Z</time>
      </trkpt>
      <trkpt lat="43.58016" lon="6.22654">
        <ele>413.8</ele>
        <time>2016-04-13T07:20:17Z</time>
      </trkpt>
      <trkpt lat="43.58024" lon="6.22655">
        <ele>414.6</ele>
        <time>2016-04-13T07:20:24Z</time>
      </trkpt>
      <trkpt lat="43.58025" lon="6.22656">
        <ele>414.8</ele>
        <time>2016-04-13T07:20:25Z</time>
      </trkpt>
      <trkpt lat="43.5804" lon="6.2266">
        <ele>415.1</ele>
        <time>2016-04-13T07:20:40Z</time>
      </trkpt>
      <trkpt lat="43.58049" lon="6.22663">
        <ele>415.3</ele>
        <time>2016-04-13T07:20:48Z</time>
      </trkpt>
      <trkpt lat="43.58057" lon="6.22665">
        <ele>415.4</ele>
        <time>2016-04-13T07:20:54Z</time>
      </trkpt>
      <trkpt lat="43.58064" lon="6.22669">
        <ele>414.8</ele>
        <time>2016-04-13T07:21:01Z</time>
      </trkpt>
      <trkpt lat="43.58072" lon="6.2267">
        <ele>415.6</ele>
        <time>2016-04-13T07:21:09Z</time>
      </trkpt>
      <trkpt lat="43.5808" lon="6.22671">
        <ele>416.1</ele>
        <time>2016-04-13T07:21:18Z</time>
      </trkpt>
      <trkpt lat="43.58089" lon="6.22668">
        <ele>416.6</ele>
        <time>2016-04-13T07:21:25Z</time>
      </trkpt>
      <trkpt lat="43.5809" lon="6.22668">
        <ele>416.7</ele>
        <time>2016-04-13T07:21:26Z</time>
      </trkpt>
      <trkpt lat="43.58106" lon="6.22674">
        <ele>418.2</ele>
        <time>2016-04-13T07:21:44Z</time>
      </trkpt>
      <trkpt lat="43.58114" lon="6.22679">
        <ele>418.4</ele>
        <time>2016-04-13T07:21:53Z</time>
      </trkpt>
      <trkpt lat="43.5812" lon="6.22687">
        <ele>419.6</ele>
        <time>2016-04-13T07:22:06Z</time>
      </trkpt>
      <trkpt lat="43.58129" lon="6.22688">
        <ele>420.8</ele>
        <time>2016-04-13T07:22:17Z</time>
      </trkpt>
      <trkpt lat="43.58137" lon="6.22688">
        <ele>421.2</ele>
        <time>2016-04-13T07:22:24Z</time>
      </trkpt>
      <trkpt lat="43.58144" lon="6.22696">
        <ele>422.8</ele>
        <time>2016-04-13T07:22:33Z</time>
      </trkpt>
      <trkpt lat="43.58144" lon="6.22697">
        <ele>423</ele>
        <time>2016-04-13T07:22:34Z</time>
      </trkpt>
      <trkpt lat="43.5816" lon="6.227">
        <ele>424.1</ele>
        <time>2016-04-13T07:22:50Z</time>
      </trkpt>
      <trkpt lat="43.58169" lon="6.22702">
        <ele>424.6</ele>
        <time>2016-04-13T07:22:59Z</time>
      </trkpt>
      <trkpt lat="43.58177" lon="6.22706">
        <ele>424.2</ele>
        <time>2016-04-13T07:23:07Z</time>
      </trkpt>
      <trkpt lat="43.58185" lon="6.22709">
        <ele>424.2</ele>
        <time>2016-04-13T07:23:15Z</time>
      </trkpt>
      <trkpt lat="43.5819" lon="6.22717">
        <ele>423.8</ele>
        <time>2016-04-13T07:23:21Z</time>
      </trkpt>
      <trkpt lat="43.58198" lon="6.22719">
        <ele>424.2</ele>
        <time>2016-04-13T07:23:26Z</time>
      </trkpt>
      <trkpt lat="43.58207" lon="6.22721">
        <ele>424.9</ele>
        <time>2016-04-13T07:23:34Z</time>
      </trkpt>
      <trkpt lat="43.58208" lon="6.22721">
        <ele>424.5</ele>
        <time>2016-04-13T07:23:35Z</time>
      </trkpt>
      <trkpt lat="43.58223" lon="6.22718">
        <ele>425.2</ele>
        <time>2016-04-13T07:23:47Z</time>
      </trkpt>
      <trkpt lat="43.58231" lon="6.22719">
        <ele>425.4</ele>
        <time>2016-04-13T07:23:52Z</time>
      </trkpt>
      <trkpt lat="43.58238" lon="6.22717">
        <ele>424.8</ele>
        <time>2016-04-13T07:23:58Z</time>
      </trkpt>
      <trkpt lat="43.58246" lon="6.22714">
        <ele>424.6</ele>
        <time>2016-04-13T07:24:03Z</time>
      </trkpt>
      <trkpt lat="43.58254" lon="6.22718">
        <ele>423.7</ele>
        <time>2016-04-13T07:24:13Z</time>
      </trkpt>
      <trkpt lat="43.58261" lon="6.22725">
        <ele>422.9</ele>
        <time>2016-04-13T07:24:23Z</time>
      </trkpt>
      <trkpt lat="43.58269" lon="6.22724">
        <ele>422.5</ele>
        <time>2016-04-13T07:24:29Z</time>
      </trkpt>
      <trkpt lat="43.58277" lon="6.22728">
        <ele>422.1</ele>
        <time>2016-04-13T07:24:36Z</time>
      </trkpt>
      <trkpt lat="43.58278" lon="6.22727">
        <ele>422.1</ele>
        <time>2016-04-13T07:24:37Z</time>
      </trkpt>
      <trkpt lat="43.58293" lon="6.22731">
        <ele>421.3</ele>
        <time>2016-04-13T07:24:52Z</time>
      </trkpt>
      <trkpt lat="43.58301" lon="6.22732">
        <ele>420</ele>
        <time>2016-04-13T07:25:00Z</time>
      </trkpt>
      <trkpt lat="43.58309" lon="6.22733">
        <ele>418.9</ele>
        <time>2016-04-13T07:25:07Z</time>
      </trkpt>
      <trkpt lat="43.58317" lon="6.22737">
        <ele>415.3</ele>
        <time>2016-04-13T07:25:24Z</time>
      </trkpt>
      <trkpt lat="43.58326" lon="6.2274">
        <ele>413.5</ele>
        <time>2016-04-13T07:25:33Z</time>
      </trkpt>
      <trkpt lat="43.58334" lon="6.22739">
        <ele>411.4</ele>
        <time>2016-04-13T07:25:40Z</time>
      </trkpt>
      <trkpt lat="43.58335" lon="6.2274">
        <ele>411.5</ele>
        <time>2016-04-13T07:25:41Z</time>
      </trkpt>
      <trkpt lat="43.58339" lon="6.22753">
        <ele>407.9</ele>
        <time>2016-04-13T07:26:12Z</time>
      </trkpt>
      <trkpt lat="43.58333" lon="6.22761">
        <ele>408.6</ele>
        <time>2016-04-13T07:26:20Z</time>
      </trkpt>
      <trkpt lat="43.58331" lon="6.22772">
        <ele>406.9</ele>
        <time>2016-04-13T07:26:30Z</time>
      </trkpt>
      <trkpt lat="43.58328" lon="6.22783">
        <ele>405.1</ele>
        <time>2016-04-13T07:26:41Z</time>
      </trkpt>
      <trkpt lat="43.58328" lon="6.22784">
        <ele>405.2</ele>
        <time>2016-04-13T07:26:42Z</time>
      </trkpt>
      <trkpt lat="43.58318" lon="6.228">
        <ele>403.9</ele>
        <time>2016-04-13T07:27:00Z</time>
      </trkpt>
      <trkpt lat="43.5831" lon="6.22806">
        <ele>402.9</ele>
        <time>2016-04-13T07:27:10Z</time>
      </trkpt>
      <trkpt lat="43.58304" lon="6.22812">
        <ele>401.6</ele>
        <time>2016-04-13T07:27:18Z</time>
      </trkpt>
      <trkpt lat="43.58297" lon="6.2282">
        <ele>400.1</ele>
        <time>2016-04-13T07:27:27Z</time>
      </trkpt>
      <trkpt lat="43.58291" lon="6.22828">
        <ele>398.4</ele>
        <time>2016-04-13T07:27:35Z</time>
      </trkpt>
      <trkpt lat="43.58285" lon="6.22836">
        <ele>396.5</ele>
        <time>2016-04-13T07:27:44Z</time>
      </trkpt>
      <trkpt lat="43.58283" lon="6.22837">
        <ele>396.4</ele>
        <time>2016-04-13T07:27:45Z</time>
      </trkpt>
      <trkpt lat="43.5827" lon="6.22848">
        <ele>394</ele>
        <time>2016-04-13T07:27:59Z</time>
      </trkpt>
      <trkpt lat="43.58263" lon="6.22853">
        <ele>392.7</ele>
        <time>2016-04-13T07:28:08Z</time>
      </trkpt>
      <trkpt lat="43.58257" lon="6.22861">
        <ele>391</ele>
        <time>2016-04-13T07:28:17Z</time>
      </trkpt>
      <trkpt lat="43.58252" lon="6.22871">
        <ele>389</ele>
        <time>2016-04-13T07:28:30Z</time>
      </trkpt>
      <trkpt lat="43.58249" lon="6.22883">
        <ele>386.7</ele>
        <time>2016-04-13T07:28:40Z</time>
      </trkpt>
      <trkpt lat="43.58244" lon="6.22893">
        <ele>385.5</ele>
        <time>2016-04-13T07:28:48Z</time>
      </trkpt>
      <trkpt lat="43.58243" lon="6.22895">
        <ele>385.4</ele>
        <time>2016-04-13T07:28:49Z</time>
      </trkpt>
      <trkpt lat="43.58234" lon="6.22913">
        <ele>382.9</ele>
        <time>2016-04-13T07:29:04Z</time>
      </trkpt>
      <trkpt lat="43.58233" lon="6.22924">
        <ele>382.1</ele>
        <time>2016-04-13T07:29:11Z</time>
      </trkpt>
      <trkpt lat="43.58227" lon="6.22932">
        <ele>379.8</ele>
        <time>2016-04-13T07:29:20Z</time>
      </trkpt>
      <trkpt lat="43.58221" lon="6.2294">
        <ele>377.5</ele>
        <time>2016-04-13T07:29:32Z</time>
      </trkpt>
      <trkpt lat="43.58217" lon="6.22951">
        <ele>375.8</ele>
        <time>2016-04-13T07:29:42Z</time>
      </trkpt>
      <trkpt lat="43.58213" lon="6.2296">
        <ele>374</ele>
        <time>2016-04-13T07:29:52Z</time>
      </trkpt>
      <trkpt lat="43.58212" lon="6.22961">
        <ele>373.7</ele>
        <time>2016-04-13T07:29:53Z</time>
      </trkpt>
      <trkpt lat="43.58205" lon="6.22982">
        <ele>370.2</ele>
        <time>2016-04-13T07:30:10Z</time>
      </trkpt>
      <trkpt lat="43.58202" lon="6.22992">
        <ele>368.3</ele>
        <time>2016-04-13T07:30:18Z</time>
      </trkpt>
      <trkpt lat="43.582" lon="6.23002">
        <ele>367.2</ele>
        <time>2016-04-13T07:30:24Z</time>
      </trkpt>
      <trkpt lat="43.58197" lon="6.23014">
        <ele>365.5</ele>
        <time>2016-04-13T07:30:34Z</time>
      </trkpt>
      <trkpt lat="43.58196" lon="6.23026">
        <ele>364.5</ele>
        <time>2016-04-13T07:30:42Z</time>
      </trkpt>
      <trkpt lat="43.58195" lon="6.23036">
        <ele>363.4</ele>
        <time>2016-04-13T07:30:49Z</time>
      </trkpt>
      <trkpt lat="43.58192" lon="6.23047">
        <ele>361.7</ele>
        <time>2016-04-13T07:30:57Z</time>
      </trkpt>
      <trkpt lat="43.58192" lon="6.23048">
        <ele>361.2</ele>
        <time>2016-04-13T07:30:58Z</time>
      </trkpt>
      <trkpt lat="43.58192" lon="6.2307">
        <ele>358.2</ele>
        <time>2016-04-13T07:31:12Z</time>
      </trkpt>
      <trkpt lat="43.58188" lon="6.23081">
        <ele>357</ele>
        <time>2016-04-13T07:31:22Z</time>
      </trkpt>
      <trkpt lat="43.58189" lon="6.23092">
        <ele>355.4</ele>
        <time>2016-04-13T07:31:31Z</time>
      </trkpt>
      <trkpt lat="43.5819" lon="6.23104">
        <ele>354.9</ele>
        <time>2016-04-13T07:31:37Z</time>
      </trkpt>
      <trkpt lat="43.58189" lon="6.23116">
        <ele>354.4</ele>
        <time>2016-04-13T07:31:46Z</time>
      </trkpt>
      <trkpt lat="43.5819" lon="6.23128">
        <ele>352.3</ele>
        <time>2016-04-13T07:31:56Z</time>
      </trkpt>
      <trkpt lat="43.58191" lon="6.23139">
        <ele>350.2</ele>
        <time>2016-04-13T07:32:05Z</time>
      </trkpt>
      <trkpt lat="43.58191" lon="6.23141">
        <ele>349.7</ele>
        <time>2016-04-13T07:32:06Z</time>
      </trkpt>
      <trkpt lat="43.58188" lon="6.23163">
        <ele>347.5</ele>
        <time>2016-04-13T07:32:19Z</time>
      </trkpt>
      <trkpt lat="43.58185" lon="6.23174">
        <ele>346.7</ele>
        <time>2016-04-13T07:32:31Z</time>
      </trkpt>
      <trkpt lat="43.58194" lon="6.23175">
        <ele>347</ele>
        <time>2016-04-13T07:32:42Z</time>
      </trkpt>
      <trkpt lat="43.58198" lon="6.23185">
        <ele>347.4</ele>
        <time>2016-04-13T07:33:19Z</time>
      </trkpt>
      <trkpt lat="43.58199" lon="6.23185">
        <ele>347.4</ele>
        <time>2016-04-13T07:33:20Z</time>
      </trkpt>
      <trkpt lat="43.58191" lon="6.23194">
        <ele>348.1</ele>
        <time>2016-04-13T07:35:57Z</time>
      </trkpt>
      <trkpt lat="43.58191" lon="6.23192">
        <ele>347.7</ele>
        <time>2016-04-13T07:37:52Z</time>
      </trkpt>
      <trkpt lat="43.58191" lon="6.23192">
        <ele>347.6</ele>
        <time>2016-04-13T07:37:53Z</time>
      </trkpt>
      <trkpt lat="43.58207" lon="6.23184">
        <ele>346.8</ele>
        <time>2016-04-13T07:38:50Z</time>
      </trkpt>
      <trkpt lat="43.58216" lon="6.23186">
        <ele>346.2</ele>
        <time>2016-04-13T07:38:59Z</time>
      </trkpt>
      <trkpt lat="43.58217" lon="6.23186">
        <ele>346.2</ele>
        <time>2016-04-13T07:39:00Z</time>
      </trkpt>
      <trkpt lat="43.58232" lon="6.23191">
        <ele>346.4</ele>
        <time>2016-04-13T07:39:13Z</time>
      </trkpt>
      <trkpt lat="43.58241" lon="6.23192">
        <ele>346.1</ele>
        <time>2016-04-13T07:39:20Z</time>
      </trkpt>
      <trkpt lat="43.58249" lon="6.23191">
        <ele>346.9</ele>
        <time>2016-04-13T07:39:29Z</time>
      </trkpt>
      <trkpt lat="43.58257" lon="6.23196">
        <ele>346.8</ele>
        <time>2016-04-13T07:39:39Z</time>
      </trkpt>
      <trkpt lat="43.58264" lon="6.23197">
        <ele>347.2</ele>
        <time>2016-04-13T07:39:43Z</time>
      </trkpt>
      <trkpt lat="43.58272" lon="6.23198">
        <ele>346.1</ele>
        <time>2016-04-13T07:39:49Z</time>
      </trkpt>
      <trkpt lat="43.5828" lon="6.23205">
        <ele>346.7</ele>
        <time>2016-04-13T07:39:58Z</time>
      </trkpt>
      <trkpt lat="43.58287" lon="6.23209">
        <ele>346.4</ele>
        <time>2016-04-13T07:40:06Z</time>
      </trkpt>
      <trkpt lat="43.58288" lon="6.2321">
        <ele>346.6</ele>
        <time>2016-04-13T07:40:07Z</time>
      </trkpt>
      <trkpt lat="43.583" lon="6.23224">
        <ele>347</ele>
        <time>2016-04-13T07:40:23Z</time>
      </trkpt>
      <trkpt lat="43.58306" lon="6.2323">
        <ele>346.8</ele>
        <time>2016-04-13T07:40:30Z</time>
      </trkpt>
      <trkpt lat="43.58314" lon="6.23232">
        <ele>346.5</ele>
        <time>2016-04-13T07:40:39Z</time>
      </trkpt>
      <trkpt lat="43.58321" lon="6.23238">
        <ele>345.4</ele>
        <time>2016-04-13T07:40:46Z</time>
      </trkpt>
      <trkpt lat="43.58328" lon="6.23245">
        <ele>345.3</ele>
        <time>2016-04-13T07:40:53Z</time>
      </trkpt>
      <trkpt lat="43.58335" lon="6.2325">
        <ele>344.1</ele>
        <time>2016-04-13T07:41:01Z</time>
      </trkpt>
      <trkpt lat="43.58342" lon="6.23257">
        <ele>343.9</ele>
        <time>2016-04-13T07:41:09Z</time>
      </trkpt>
      <trkpt lat="43.58344" lon="6.23257">
        <ele>344</ele>
        <time>2016-04-13T07:41:10Z</time>
      </trkpt>
      <trkpt lat="43.58354" lon="6.23274">
        <ele>344</ele>
        <time>2016-04-13T07:41:22Z</time>
      </trkpt>
      <trkpt lat="43.58361" lon="6.23279">
        <ele>344.2</ele>
        <time>2016-04-13T07:41:30Z</time>
      </trkpt>
      <trkpt lat="43.58367" lon="6.23287">
        <ele>343.9</ele>
        <time>2016-04-13T07:41:43Z</time>
      </trkpt>
      <trkpt lat="43.58376" lon="6.23289">
        <ele>343.6</ele>
        <time>2016-04-13T07:41:55Z</time>
      </trkpt>
      <trkpt lat="43.5838" lon="6.23299">
        <ele>344.5</ele>
        <time>2016-04-13T07:42:10Z</time>
      </trkpt>
      <trkpt lat="43.58379" lon="6.23302">
        <ele>344.8</ele>
        <time>2016-04-13T07:42:11Z</time>
      </trkpt>
      <trkpt lat="43.58386" lon="6.23321">
        <ele>345.5</ele>
        <time>2016-04-13T07:42:29Z</time>
      </trkpt>
      <trkpt lat="43.58391" lon="6.2333">
        <ele>345.6</ele>
        <time>2016-04-13T07:42:58Z</time>
      </trkpt>
      <trkpt lat="43.58399" lon="6.23325">
        <ele>346.1</ele>
        <time>2016-04-13T07:43:42Z</time>
      </trkpt>
      <trkpt lat="43.584" lon="6.23325">
        <ele>346.1</ele>
        <time>2016-04-13T07:43:43Z</time>
      </trkpt>
      <trkpt lat="43.58416" lon="6.23322">
        <ele>346.1</ele>
        <time>2016-04-13T07:44:36Z</time>
      </trkpt>
      <trkpt lat="43.58423" lon="6.23327">
        <ele>346.3</ele>
        <time>2016-04-13T07:44:44Z</time>
      </trkpt>
      <trkpt lat="43.58424" lon="6.23327">
        <ele>346.3</ele>
        <time>2016-04-13T07:44:45Z</time>
      </trkpt>
      <trkpt lat="43.5844" lon="6.23321">
        <ele>346</ele>
        <time>2016-04-13T07:45:03Z</time>
      </trkpt>
      <trkpt lat="43.58448" lon="6.23319">
        <ele>346</ele>
        <time>2016-04-13T07:45:07Z</time>
      </trkpt>
      <trkpt lat="43.58455" lon="6.23313">
        <ele>346</ele>
        <time>2016-04-13T07:45:15Z</time>
      </trkpt>
      <trkpt lat="43.58463" lon="6.23309">
        <ele>346.8</ele>
        <time>2016-04-13T07:45:23Z</time>
      </trkpt>
      <trkpt lat="43.58471" lon="6.23305">
        <ele>347.2</ele>
        <time>2016-04-13T07:45:30Z</time>
      </trkpt>
      <trkpt lat="43.58478" lon="6.23299">
        <ele>347.6</ele>
        <time>2016-04-13T07:45:34Z</time>
      </trkpt>
      <trkpt lat="43.58484" lon="6.23291">
        <ele>347.3</ele>
        <time>2016-04-13T07:45:40Z</time>
      </trkpt>
      <trkpt lat="43.58477" lon="6.23284">
        <ele>347.5</ele>
        <time>2016-04-13T07:46:38Z</time>
      </trkpt>
      <trkpt lat="43.58475" lon="6.23283">
        <ele>347.7</ele>
        <time>2016-04-13T07:46:39Z</time>
      </trkpt>
      <trkpt lat="43.58495" lon="6.23287">
        <ele>347.7</ele>
        <time>2016-04-13T07:47:20Z</time>
      </trkpt>
      <trkpt lat="43.58503" lon="6.23285">
        <ele>348.8</ele>
        <time>2016-04-13T07:47:41Z</time>
      </trkpt>
      <trkpt lat="43.58504" lon="6.23284">
        <ele>348.9</ele>
        <time>2016-04-13T07:47:42Z</time>
      </trkpt>
      <trkpt lat="43.58517" lon="6.23277">
        <ele>348.5</ele>
        <time>2016-04-13T07:47:52Z</time>
      </trkpt>
      <trkpt lat="43.58524" lon="6.23272">
        <ele>348.6</ele>
        <time>2016-04-13T07:47:59Z</time>
      </trkpt>
      <trkpt lat="43.58532" lon="6.23266">
        <ele>348.4</ele>
        <time>2016-04-13T07:48:05Z</time>
      </trkpt>
      <trkpt lat="43.58534" lon="6.23255">
        <ele>348.9</ele>
        <time>2016-04-13T07:48:17Z</time>
      </trkpt>
      <trkpt lat="43.58533" lon="6.23244">
        <ele>348.8</ele>
        <time>2016-04-13T07:48:24Z</time>
      </trkpt>
      <trkpt lat="43.58529" lon="6.23234">
        <ele>348.9</ele>
        <time>2016-04-13T07:48:30Z</time>
      </trkpt>
      <trkpt lat="43.58525" lon="6.23225">
        <ele>348.7</ele>
        <time>2016-04-13T07:48:40Z</time>
      </trkpt>
      <trkpt lat="43.58519" lon="6.23215">
        <ele>348.9</ele>
        <time>2016-04-13T07:48:49Z</time>
      </trkpt>
      <trkpt lat="43.58519" lon="6.23215">
        <ele>349</ele>
        <time>2016-04-13T07:48:50Z</time>
      </trkpt>
      <trkpt lat="43.58531" lon="6.23202">
        <ele>354.7</ele>
        <time>2016-04-13T07:49:31Z</time>
      </trkpt>
      <trkpt lat="43.58535" lon="6.23191">
        <ele>357.9</ele>
        <time>2016-04-13T07:49:48Z</time>
      </trkpt>
      <trkpt lat="43.58536" lon="6.23205">
        <ele>359</ele>
        <time>2016-04-13T07:50:12Z</time>
      </trkpt>
      <trkpt lat="43.58535" lon="6.23207">
        <ele>359.3</ele>
        <time>2016-04-13T07:50:14Z</time>
      </trkpt>
      <trkpt lat="43.58535" lon="6.23211">
        <ele>359</ele>
        <time>2016-04-13T07:50:58Z</time>
      </trkpt>
      <trkpt lat="43.58528" lon="6.23207">
        <ele>359</ele>
        <time>2016-04-13T07:52:56Z</time>
      </trkpt>
      <trkpt lat="43.58523" lon="6.2321">
        <ele>359.1</ele>
        <time>2016-04-13T07:52:57Z</time>
      </trkpt>
      <trkpt lat="43.58532" lon="6.2321">
        <ele>359</ele>
        <time>2016-04-13T07:53:16Z</time>
      </trkpt>
      <trkpt lat="43.58534" lon="6.23199">
        <ele>357.9</ele>
        <time>2016-04-13T07:53:53Z</time>
      </trkpt>
      <trkpt lat="43.58534" lon="6.23186">
        <ele>357</ele>
        <time>2016-04-13T07:54:07Z</time>
      </trkpt>
      <trkpt lat="43.58535" lon="6.23184">
        <ele>357</ele>
        <time>2016-04-13T07:54:08Z</time>
      </trkpt>
      <trkpt lat="43.58531" lon="6.23195">
        <ele>354</ele>
        <time>2016-04-13T07:54:32Z</time>
      </trkpt>
      <trkpt lat="43.58506" lon="6.23209">
        <ele>352.5</ele>
        <time>2016-04-13T07:54:41Z</time>
      </trkpt>
      <trkpt lat="43.58505" lon="6.23192">
        <ele>346.9</ele>
        <time>2016-04-13T07:55:09Z</time>
      </trkpt>
      <trkpt lat="43.58511" lon="6.23187">
        <ele>346.6</ele>
        <time>2016-04-13T07:55:10Z</time>
      </trkpt>
      <trkpt lat="43.58513" lon="6.23178">
        <ele>347.1</ele>
        <time>2016-04-13T07:55:24Z</time>
      </trkpt>
      <trkpt lat="43.58519" lon="6.23164">
        <ele>349.8</ele>
        <time>2016-04-13T07:55:37Z</time>
      </trkpt>
      <trkpt lat="43.58525" lon="6.23162">
        <ele>351.6</ele>
        <time>2016-04-13T07:55:52Z</time>
      </trkpt>
      <trkpt lat="43.58531" lon="6.23152">
        <ele>350.9</ele>
        <time>2016-04-13T07:56:05Z</time>
      </trkpt>
      <trkpt lat="43.5854" lon="6.23139">
        <ele>353</ele>
        <time>2016-04-13T07:56:13Z</time>
      </trkpt>
      <trkpt lat="43.5854" lon="6.23137">
        <ele>353.3</ele>
        <time>2016-04-13T07:56:14Z</time>
      </trkpt>
      <trkpt lat="43.58542" lon="6.23116">
        <ele>353.8</ele>
        <time>2016-04-13T07:56:33Z</time>
      </trkpt>
      <trkpt lat="43.58538" lon="6.23109">
        <ele>357.3</ele>
        <time>2016-04-13T07:56:56Z</time>
      </trkpt>
      <trkpt lat="43.58537" lon="6.23102">
        <ele>358.2</ele>
        <time>2016-04-13T07:57:08Z</time>
      </trkpt>
      <trkpt lat="43.58533" lon="6.23087">
        <ele>359</ele>
        <time>2016-04-13T07:57:24Z</time>
      </trkpt>
      <trkpt lat="43.58537" lon="6.23075">
        <ele>359.9</ele>
        <time>2016-04-13T07:57:26Z</time>
      </trkpt>
      <trkpt lat="43.58534" lon="6.23064">
        <ele>360</ele>
        <time>2016-04-13T07:57:40Z</time>
      </trkpt>
      <trkpt lat="43.58535" lon="6.2305">
        <ele>361</ele>
        <time>2016-04-13T07:57:52Z</time>
      </trkpt>
      <trkpt lat="43.58538" lon="6.23038">
        <ele>361</ele>
        <time>2016-04-13T07:58:04Z</time>
      </trkpt>
      <trkpt lat="43.58537" lon="6.23028">
        <ele>364</ele>
        <time>2016-04-13T07:58:23Z</time>
      </trkpt>
      <trkpt lat="43.58544" lon="6.23021">
        <ele>368</ele>
        <time>2016-04-13T07:58:51Z</time>
      </trkpt>
      <trkpt lat="43.58545" lon="6.2302">
        <ele>369.3</ele>
        <time>2016-04-13T07:58:53Z</time>
      </trkpt>
      <trkpt lat="43.58564" lon="6.23013">
        <ele>368</ele>
        <time>2016-04-13T07:59:36Z</time>
      </trkpt>
      <trkpt lat="43.58575" lon="6.23014">
        <ele>369</ele>
        <time>2016-04-13T07:59:44Z</time>
      </trkpt>
      <trkpt lat="43.58584" lon="6.23012">
        <ele>370</ele>
        <time>2016-04-13T07:59:50Z</time>
      </trkpt>
      <trkpt lat="43.58589" lon="6.23001">
        <ele>371</ele>
        <time>2016-04-13T08:00:36Z</time>
      </trkpt>
      <trkpt lat="43.5859" lon="6.23">
        <ele>372.4</ele>
        <time>2016-04-13T08:00:38Z</time>
      </trkpt>
      <trkpt lat="43.58593" lon="6.22991">
        <ele>373</ele>
        <time>2016-04-13T08:01:16Z</time>
      </trkpt>
      <trkpt lat="43.58602" lon="6.22986">
        <ele>373</ele>
        <time>2016-04-13T08:01:24Z</time>
      </trkpt>
      <trkpt lat="43.58612" lon="6.22979">
        <ele>374</ele>
        <time>2016-04-13T08:01:40Z</time>
      </trkpt>
      <trkpt lat="43.58615" lon="6.22979">
        <ele>374.4</ele>
        <time>2016-04-13T08:01:42Z</time>
      </trkpt>
      <trkpt lat="43.58629" lon="6.22976">
        <ele>375.9</ele>
        <time>2016-04-13T08:02:01Z</time>
      </trkpt>
      <trkpt lat="43.58636" lon="6.22967">
        <ele>376.4</ele>
        <time>2016-04-13T08:02:09Z</time>
      </trkpt>
      <trkpt lat="43.58645" lon="6.22966">
        <ele>376.6</ele>
        <time>2016-04-13T08:02:18Z</time>
      </trkpt>
      <trkpt lat="43.58653" lon="6.22964">
        <ele>377.1</ele>
        <time>2016-04-13T08:02:33Z</time>
      </trkpt>
      <trkpt lat="43.58662" lon="6.22965">
        <ele>377.7</ele>
        <time>2016-04-13T08:02:43Z</time>
      </trkpt>
      <trkpt lat="43.58663" lon="6.22965">
        <ele>377.6</ele>
        <time>2016-04-13T08:02:44Z</time>
      </trkpt>
      <trkpt lat="43.58679" lon="6.22967">
        <ele>378.3</ele>
        <time>2016-04-13T08:03:04Z</time>
      </trkpt>
      <trkpt lat="43.58687" lon="6.22965">
        <ele>379.3</ele>
        <time>2016-04-13T08:03:11Z</time>
      </trkpt>
      <trkpt lat="43.58695" lon="6.22968">
        <ele>380.7</ele>
        <time>2016-04-13T08:03:35Z</time>
      </trkpt>
      <trkpt lat="43.58703" lon="6.22973">
        <ele>383</ele>
        <time>2016-04-13T08:03:56Z</time>
      </trkpt>
      <trkpt lat="43.58705" lon="6.22972">
        <ele>383.1</ele>
        <time>2016-04-13T08:03:57Z</time>
      </trkpt>
      <trkpt lat="43.58721" lon="6.22972">
        <ele>384.1</ele>
        <time>2016-04-13T08:04:10Z</time>
      </trkpt>
      <trkpt lat="43.58728" lon="6.22965">
        <ele>385.6</ele>
        <time>2016-04-13T08:04:21Z</time>
      </trkpt>
      <trkpt lat="43.58737" lon="6.22963">
        <ele>385.8</ele>
        <time>2016-04-13T08:04:30Z</time>
      </trkpt>
      <trkpt lat="43.58744" lon="6.22958">
        <ele>386.4</ele>
        <time>2016-04-13T08:04:41Z</time>
      </trkpt>
      <trkpt lat="43.58751" lon="6.2295">
        <ele>386.6</ele>
        <time>2016-04-13T08:04:51Z</time>
      </trkpt>
      <trkpt lat="43.58756" lon="6.22943">
        <ele>386.8</ele>
        <time>2016-04-13T08:04:59Z</time>
      </trkpt>
      <trkpt lat="43.58758" lon="6.22943">
        <ele>387</ele>
        <time>2016-04-13T08:05:00Z</time>
      </trkpt>
      <trkpt lat="43.58772" lon="6.22933">
        <ele>388.2</ele>
        <time>2016-04-13T08:05:19Z</time>
      </trkpt>
      <trkpt lat="43.58778" lon="6.22924">
        <ele>388.5</ele>
        <time>2016-04-13T08:05:27Z</time>
      </trkpt>
      <trkpt lat="43.58769" lon="6.22923">
        <ele>389.3</ele>
        <time>2016-04-13T08:05:35Z</time>
      </trkpt>
      <trkpt lat="43.58775" lon="6.22915">
        <ele>389.5</ele>
        <time>2016-04-13T08:05:51Z</time>
      </trkpt>
      <trkpt lat="43.58782" lon="6.22908">
        <ele>389.7</ele>
        <time>2016-04-13T08:05:59Z</time>
      </trkpt>
      <trkpt lat="43.5879" lon="6.22905">
        <ele>390.9</ele>
        <time>2016-04-13T08:06:09Z</time>
      </trkpt>
      <trkpt lat="43.58791" lon="6.22905">
        <ele>391.2</ele>
        <time>2016-04-13T08:06:10Z</time>
      </trkpt>
      <trkpt lat="43.58801" lon="6.22887">
        <ele>392.9</ele>
        <time>2016-04-13T08:06:34Z</time>
      </trkpt>
      <trkpt lat="43.58806" lon="6.22877">
        <ele>394.4</ele>
        <time>2016-04-13T08:06:42Z</time>
      </trkpt>
      <trkpt lat="43.5881" lon="6.22867">
        <ele>394.8</ele>
        <time>2016-04-13T08:06:49Z</time>
      </trkpt>
      <trkpt lat="43.58812" lon="6.22856">
        <ele>395.4</ele>
        <time>2016-04-13T08:06:59Z</time>
      </trkpt>
      <trkpt lat="43.5881" lon="6.22844">
        <ele>396.1</ele>
        <time>2016-04-13T08:07:08Z</time>
      </trkpt>
      <trkpt lat="43.58807" lon="6.22833">
        <ele>396</ele>
        <time>2016-04-13T08:07:14Z</time>
      </trkpt>
      <trkpt lat="43.58807" lon="6.22831">
        <ele>396</ele>
        <time>2016-04-13T08:07:15Z</time>
      </trkpt>
      <trkpt lat="43.58802" lon="6.2281">
        <ele>397.6</ele>
        <time>2016-04-13T08:07:33Z</time>
      </trkpt>
      <trkpt lat="43.58803" lon="6.22799">
        <ele>398.4</ele>
        <time>2016-04-13T08:07:42Z</time>
      </trkpt>
      <trkpt lat="43.58802" lon="6.22787">
        <ele>399.1</ele>
        <time>2016-04-13T08:07:48Z</time>
      </trkpt>
      <trkpt lat="43.58806" lon="6.22776">
        <ele>399.3</ele>
        <time>2016-04-13T08:08:01Z</time>
      </trkpt>
      <trkpt lat="43.58809" lon="6.22765">
        <ele>399</ele>
        <time>2016-04-13T08:08:11Z</time>
      </trkpt>
      <trkpt lat="43.58815" lon="6.22756">
        <ele>399.8</ele>
        <time>2016-04-13T08:08:19Z</time>
      </trkpt>
      <trkpt lat="43.58815" lon="6.22756">
        <ele>400</ele>
        <time>2016-04-13T08:08:20Z</time>
      </trkpt>
      <trkpt lat="43.58824" lon="6.22742">
        <ele>400.7</ele>
        <time>2016-04-13T08:08:40Z</time>
      </trkpt>
      <trkpt lat="43.5883" lon="6.22733">
        <ele>401.2</ele>
        <time>2016-04-13T08:08:49Z</time>
      </trkpt>
      <trkpt lat="43.58827" lon="6.22722">
        <ele>401.4</ele>
        <time>2016-04-13T08:08:59Z</time>
      </trkpt>
      <trkpt lat="43.58818" lon="6.22721">
        <ele>401.8</ele>
        <time>2016-04-13T08:09:07Z</time>
      </trkpt>
      <trkpt lat="43.5881" lon="6.2272">
        <ele>402.6</ele>
        <time>2016-04-13T08:09:16Z</time>
      </trkpt>
      <trkpt lat="43.58803" lon="6.22727">
        <ele>403.3</ele>
        <time>2016-04-13T08:09:25Z</time>
      </trkpt>
      <trkpt lat="43.58802" lon="6.22727">
        <ele>403.5</ele>
        <time>2016-04-13T08:09:26Z</time>
      </trkpt>
      <trkpt lat="43.58787" lon="6.22728">
        <ele>403.9</ele>
        <time>2016-04-13T08:09:40Z</time>
      </trkpt>
      <trkpt lat="43.58779" lon="6.22725">
        <ele>405</ele>
        <time>2016-04-13T08:09:52Z</time>
      </trkpt>
      <trkpt lat="43.58771" lon="6.2272">
        <ele>407.2</ele>
        <time>2016-04-13T08:10:10Z</time>
      </trkpt>
      <trkpt lat="43.58766" lon="6.22711">
        <ele>408.3</ele>
        <time>2016-04-13T08:10:21Z</time>
      </trkpt>
      <trkpt lat="43.5876" lon="6.22704">
        <ele>409.6</ele>
        <time>2016-04-13T08:10:31Z</time>
      </trkpt>
      <trkpt lat="43.58759" lon="6.22703">
        <ele>409.7</ele>
        <time>2016-04-13T08:10:32Z</time>
      </trkpt>
      <trkpt lat="43.58745" lon="6.2271">
        <ele>413.5</ele>
        <time>2016-04-13T08:10:57Z</time>
      </trkpt>
      <trkpt lat="43.58736" lon="6.22707">
        <ele>416.2</ele>
        <time>2016-04-13T08:11:14Z</time>
      </trkpt>
      <trkpt lat="43.5873" lon="6.22715">
        <ele>416.9</ele>
        <time>2016-04-13T08:11:25Z</time>
      </trkpt>
      <trkpt lat="43.58723" lon="6.22722">
        <ele>418.6</ele>
        <time>2016-04-13T08:11:37Z</time>
      </trkpt>
      <trkpt lat="43.58723" lon="6.22722">
        <ele>418.8</ele>
        <time>2016-04-13T08:11:38Z</time>
      </trkpt>
      <trkpt lat="43.58716" lon="6.22742">
        <ele>422.6</ele>
        <time>2016-04-13T08:14:22Z</time>
      </trkpt>
      <trkpt lat="43.58715" lon="6.22743">
        <ele>422.8</ele>
        <time>2016-04-13T08:14:23Z</time>
      </trkpt>
      <trkpt lat="43.58713" lon="6.22765">
        <ele>426.1</ele>
        <time>2016-04-13T08:14:47Z</time>
      </trkpt>
      <trkpt lat="43.58715" lon="6.22777">
        <ele>427.2</ele>
        <time>2016-04-13T08:14:58Z</time>
      </trkpt>
      <trkpt lat="43.58714" lon="6.22789">
        <ele>429</ele>
        <time>2016-04-13T08:15:12Z</time>
      </trkpt>
      <trkpt lat="43.5871" lon="6.228">
        <ele>429.7</ele>
        <time>2016-04-13T08:15:25Z</time>
      </trkpt>
      <trkpt lat="43.5871" lon="6.22799">
        <ele>429.8</ele>
        <time>2016-04-13T08:15:26Z</time>
      </trkpt>
      <trkpt lat="43.58693" lon="6.228">
        <ele>429.9</ele>
        <time>2016-04-13T08:15:47Z</time>
      </trkpt>
      <trkpt lat="43.58687" lon="6.22808">
        <ele>430.1</ele>
        <time>2016-04-13T08:16:00Z</time>
      </trkpt>
      <trkpt lat="43.58679" lon="6.22807">
        <ele>429.6</ele>
        <time>2016-04-13T08:16:16Z</time>
      </trkpt>
      <trkpt lat="43.58671" lon="6.22812">
        <ele>429</ele>
        <time>2016-04-13T08:16:33Z</time>
      </trkpt>
      <trkpt lat="43.5867" lon="6.22812">
        <ele>429.3</ele>
        <time>2016-04-13T08:16:34Z</time>
      </trkpt>
      <trkpt lat="43.58657" lon="6.22817">
        <ele>427.4</ele>
        <time>2016-04-13T08:18:47Z</time>
      </trkpt>
      <trkpt lat="43.58656" lon="6.22818">
        <ele>427.4</ele>
        <time>2016-04-13T08:18:48Z</time>
      </trkpt>
      <trkpt lat="43.58643" lon="6.22827">
        <ele>427.3</ele>
        <time>2016-04-13T08:19:07Z</time>
      </trkpt>
      <trkpt lat="43.58635" lon="6.22833">
        <ele>426.4</ele>
        <time>2016-04-13T08:19:17Z</time>
      </trkpt>
      <trkpt lat="43.58627" lon="6.22836">
        <ele>426.1</ele>
        <time>2016-04-13T08:19:29Z</time>
      </trkpt>
      <trkpt lat="43.5862" lon="6.2284">
        <ele>426.3</ele>
        <time>2016-04-13T08:19:35Z</time>
      </trkpt>
      <trkpt lat="43.58611" lon="6.22842">
        <ele>426.4</ele>
        <time>2016-04-13T08:19:39Z</time>
      </trkpt>
      <trkpt lat="43.58603" lon="6.2284">
        <ele>425.7</ele>
        <time>2016-04-13T08:19:54Z</time>
      </trkpt>
      <trkpt lat="43.58602" lon="6.2284">
        <ele>425.6</ele>
        <time>2016-04-13T08:19:55Z</time>
      </trkpt>
      <trkpt lat="43.58586" lon="6.22841">
        <ele>425.3</ele>
        <time>2016-04-13T08:20:12Z</time>
      </trkpt>
      <trkpt lat="43.58578" lon="6.22847">
        <ele>425.1</ele>
        <time>2016-04-13T08:20:21Z</time>
      </trkpt>
      <trkpt lat="43.5857" lon="6.22852">
        <ele>425</ele>
        <time>2016-04-13T08:20:27Z</time>
      </trkpt>
      <trkpt lat="43.58563" lon="6.22857">
        <ele>424.6</ele>
        <time>2016-04-13T08:20:34Z</time>
      </trkpt>
      <trkpt lat="43.58556" lon="6.22862">
        <ele>423.8</ele>
        <time>2016-04-13T08:20:42Z</time>
      </trkpt>
      <trkpt lat="43.58547" lon="6.22863">
        <ele>423.3</ele>
        <time>2016-04-13T08:20:49Z</time>
      </trkpt>
      <trkpt lat="43.5854" lon="6.22868">
        <ele>422.5</ele>
        <time>2016-04-13T08:20:56Z</time>
      </trkpt>
      <trkpt lat="43.58538" lon="6.22869">
        <ele>422.7</ele>
        <time>2016-04-13T08:20:57Z</time>
      </trkpt>
      <trkpt lat="43.58524" lon="6.22877">
        <ele>422.1</ele>
        <time>2016-04-13T08:21:09Z</time>
      </trkpt>
      <trkpt lat="43.58519" lon="6.22886">
        <ele>421.5</ele>
        <time>2016-04-13T08:21:17Z</time>
      </trkpt>
      <trkpt lat="43.58512" lon="6.22891">
        <ele>420.7</ele>
        <time>2016-04-13T08:21:27Z</time>
      </trkpt>
      <trkpt lat="43.58504" lon="6.22897">
        <ele>420.7</ele>
        <time>2016-04-13T08:21:34Z</time>
      </trkpt>
      <trkpt lat="43.58502" lon="6.22909">
        <ele>418.7</ele>
        <time>2016-04-13T08:21:42Z</time>
      </trkpt>
      <trkpt lat="43.58497" lon="6.22919">
        <ele>418.1</ele>
        <time>2016-04-13T08:21:53Z</time>
      </trkpt>
      <trkpt lat="43.58491" lon="6.22926">
        <ele>418</ele>
        <time>2016-04-13T08:21:57Z</time>
      </trkpt>
      <trkpt lat="43.5849" lon="6.22927">
        <ele>418</ele>
        <time>2016-04-13T08:21:58Z</time>
      </trkpt>
      <trkpt lat="43.58482" lon="6.22947">
        <ele>418.5</ele>
        <time>2016-04-13T08:22:14Z</time>
      </trkpt>
      <trkpt lat="43.58478" lon="6.22956">
        <ele>418.9</ele>
        <time>2016-04-13T08:22:20Z</time>
      </trkpt>
      <trkpt lat="43.5847" lon="6.22961">
        <ele>418.5</ele>
        <time>2016-04-13T08:22:24Z</time>
      </trkpt>
      <trkpt lat="43.58466" lon="6.22972">
        <ele>418.5</ele>
        <time>2016-04-13T08:22:33Z</time>
      </trkpt>
      <trkpt lat="43.58462" lon="6.22982">
        <ele>419.8</ele>
        <time>2016-04-13T08:22:45Z</time>
      </trkpt>
      <trkpt lat="43.58456" lon="6.2299">
        <ele>420.1</ele>
        <time>2016-04-13T08:22:54Z</time>
      </trkpt>
      <trkpt lat="43.58449" lon="6.22998">
        <ele>419.9</ele>
        <time>2016-04-13T08:23:02Z</time>
      </trkpt>
      <trkpt lat="43.58449" lon="6.22999">
        <ele>420</ele>
        <time>2016-04-13T08:23:03Z</time>
      </trkpt>
      <trkpt lat="43.5844" lon="6.23012">
        <ele>418</ele>
        <time>2016-04-13T08:24:45Z</time>
      </trkpt>
      <trkpt lat="43.5844" lon="6.23013">
        <ele>418.2</ele>
        <time>2016-04-13T08:24:47Z</time>
      </trkpt>
      <trkpt lat="43.58429" lon="6.23013">
        <ele>417.1</ele>
        <time>2016-04-13T08:25:50Z</time>
      </trkpt>
      <trkpt lat="43.58428" lon="6.23014">
        <ele>417</ele>
        <time>2016-04-13T08:25:51Z</time>
      </trkpt>
      <trkpt lat="43.58417" lon="6.23029">
        <ele>415.4</ele>
        <time>2016-04-13T08:26:08Z</time>
      </trkpt>
      <trkpt lat="43.58412" lon="6.23038">
        <ele>415.4</ele>
        <time>2016-04-13T08:26:14Z</time>
      </trkpt>
      <trkpt lat="43.58405" lon="6.23044">
        <ele>414.5</ele>
        <time>2016-04-13T08:26:20Z</time>
      </trkpt>
      <trkpt lat="43.58399" lon="6.23051">
        <ele>413.5</ele>
        <time>2016-04-13T08:26:26Z</time>
      </trkpt>
      <trkpt lat="43.58393" lon="6.2306">
        <ele>412.1</ele>
        <time>2016-04-13T08:26:34Z</time>
      </trkpt>
      <trkpt lat="43.58387" lon="6.23067">
        <ele>411.1</ele>
        <time>2016-04-13T08:26:41Z</time>
      </trkpt>
      <trkpt lat="43.58381" lon="6.23073">
        <ele>410.5</ele>
        <time>2016-04-13T08:26:47Z</time>
      </trkpt>
      <trkpt lat="43.58373" lon="6.23077">
        <ele>409.9</ele>
        <time>2016-04-13T08:26:53Z</time>
      </trkpt>
      <trkpt lat="43.58371" lon="6.23077">
        <ele>409.9</ele>
        <time>2016-04-13T08:26:54Z</time>
      </trkpt>
      <trkpt lat="43.58361" lon="6.23094">
        <ele>407.7</ele>
        <time>2016-04-13T08:27:17Z</time>
      </trkpt>
      <trkpt lat="43.58367" lon="6.23103">
        <ele>408.3</ele>
        <time>2016-04-13T08:27:32Z</time>
      </trkpt>
      <trkpt lat="43.58368" lon="6.23114">
        <ele>407.1</ele>
        <time>2016-04-13T08:28:14Z</time>
      </trkpt>
      <trkpt lat="43.58369" lon="6.23116">
        <ele>407</ele>
        <time>2016-04-13T08:28:15Z</time>
      </trkpt>
      <trkpt lat="43.58383" lon="6.23124">
        <ele>405.9</ele>
        <time>2016-04-13T08:28:46Z</time>
      </trkpt>
      <trkpt lat="43.58386" lon="6.23135">
        <ele>401.1</ele>
        <time>2016-04-13T08:29:20Z</time>
      </trkpt>
      <trkpt lat="43.58386" lon="6.23136">
        <ele>400.7</ele>
        <time>2016-04-13T08:29:21Z</time>
      </trkpt>
      <trkpt lat="43.58382" lon="6.23151">
        <ele>395.8</ele>
        <time>2016-04-13T08:30:14Z</time>
      </trkpt>
      <trkpt lat="43.58374" lon="6.23156">
        <ele>390.1</ele>
        <time>2016-04-13T08:31:08Z</time>
      </trkpt>
      <trkpt lat="43.58373" lon="6.23157">
        <ele>390</ele>
        <time>2016-04-13T08:31:09Z</time>
      </trkpt>
      <trkpt lat="43.58373" lon="6.23176">
        <ele>378.3</ele>
        <time>2016-04-13T08:33:11Z</time>
      </trkpt>
      <trkpt lat="43.58373" lon="6.23176">
        <ele>378.4</ele>
        <time>2016-04-13T08:33:12Z</time>
      </trkpt>
      <trkpt lat="43.58355" lon="6.23179">
        <ele>375.6</ele>
        <time>2016-04-13T08:33:53Z</time>
      </trkpt>
      <trkpt lat="43.58362" lon="6.23184">
        <ele>372</ele>
        <time>2016-04-13T08:34:27Z</time>
      </trkpt>
      <trkpt lat="43.58364" lon="6.23184">
        <ele>372</ele>
        <time>2016-04-13T08:34:28Z</time>
      </trkpt>
      <trkpt lat="43.58361" lon="6.23189">
        <ele>366.8</ele>
        <time>2016-04-13T08:35:29Z</time>
      </trkpt>
      <trkpt lat="43.58364" lon="6.23189">
        <ele>366.5</ele>
        <time>2016-04-13T08:35:30Z</time>
      </trkpt>
      <trkpt lat="43.5836" lon="6.23182">
        <ele>366</ele>
        <time>2016-04-13T08:35:57Z</time>
      </trkpt>
      <trkpt lat="43.58355" lon="6.23191">
        <ele>364.8</ele>
        <time>2016-04-13T08:36:24Z</time>
      </trkpt>
      <trkpt lat="43.58351" lon="6.23199">
        <ele>366.6</ele>
        <time>2016-04-13T08:36:30Z</time>
      </trkpt>
      <trkpt lat="43.58348" lon="6.232">
        <ele>366.3</ele>
        <time>2016-04-13T08:36:31Z</time>
      </trkpt>
      <trkpt lat="43.58348" lon="6.23194">
        <ele>364.1</ele>
        <time>2016-04-13T08:37:18Z</time>
      </trkpt>
      <trkpt lat="43.58355" lon="6.23187">
        <ele>363.8</ele>
        <time>2016-04-13T08:37:31Z</time>
      </trkpt>
      <trkpt lat="43.58355" lon="6.23186">
        <ele>363.6</ele>
        <time>2016-04-13T08:37:32Z</time>
      </trkpt>
      <trkpt lat="43.58365" lon="6.23169">
        <ele>363.6</ele>
        <time>2016-04-13T08:37:49Z</time>
      </trkpt>
      <trkpt lat="43.58358" lon="6.23176">
        <ele>363</ele>
        <time>2016-04-13T08:38:19Z</time>
      </trkpt>
      <trkpt lat="43.58353" lon="6.23186">
        <ele>363.1</ele>
        <time>2016-04-13T08:39:38Z</time>
      </trkpt>
      <trkpt lat="43.58353" lon="6.23187">
        <ele>364.3</ele>
        <time>2016-04-13T08:39:39Z</time>
      </trkpt>
      <trkpt lat="43.58352" lon="6.2321">
        <ele>363</ele>
        <time>2016-04-13T08:40:43Z</time>
      </trkpt>
      <trkpt lat="43.58352" lon="6.23211">
        <ele>362.8</ele>
        <time>2016-04-13T08:40:44Z</time>
      </trkpt>
      <trkpt lat="43.58352" lon="6.23223">
        <ele>365.6</ele>
        <time>2016-04-13T08:42:00Z</time>
      </trkpt>
      <trkpt lat="43.58357" lon="6.23224">
        <ele>368.4</ele>
        <time>2016-04-13T08:43:00Z</time>
      </trkpt>
      <trkpt lat="43.58357" lon="6.23223">
        <ele>368.6</ele>
        <time>2016-04-13T08:43:01Z</time>
      </trkpt>
      <trkpt lat="43.58363" lon="6.23206">
        <ele>371.8</ele>
        <time>2016-04-13T08:44:12Z</time>
      </trkpt>
      <trkpt lat="43.58363" lon="6.23204">
        <ele>371.6</ele>
        <time>2016-04-13T08:44:13Z</time>
      </trkpt>
      <trkpt lat="43.58368" lon="6.23183">
        <ele>377.3</ele>
        <time>2016-04-13T08:46:27Z</time>
      </trkpt>
      <trkpt lat="43.58369" lon="6.23183">
        <ele>376.8</ele>
        <time>2016-04-13T08:46:28Z</time>
      </trkpt>
      <trkpt lat="43.58375" lon="6.23175">
        <ele>383.2</ele>
        <time>2016-04-13T08:48:03Z</time>
      </trkpt>
      <trkpt lat="43.58374" lon="6.23166">
        <ele>383.2</ele>
        <time>2016-04-13T08:49:57Z</time>
      </trkpt>
      <trkpt lat="43.58373" lon="6.23165">
        <ele>383.2</ele>
        <time>2016-04-13T08:49:58Z</time>
      </trkpt>
      <trkpt lat="43.58363" lon="6.23184">
        <ele>371.9</ele>
        <time>2016-04-13T08:50:58Z</time>
      </trkpt>
      <trkpt lat="43.58363" lon="6.23185">
        <ele>371.7</ele>
        <time>2016-04-13T08:50:59Z</time>
      </trkpt>
      <trkpt lat="43.58372" lon="6.23179">
        <ele>378.5</ele>
        <time>2016-04-13T08:52:32Z</time>
      </trkpt>
      <trkpt lat="43.58381" lon="6.23163">
        <ele>389.8</ele>
        <time>2016-04-13T08:53:38Z</time>
      </trkpt>
      <trkpt lat="43.58382" lon="6.23162">
        <ele>389.8</ele>
        <time>2016-04-13T08:53:39Z</time>
      </trkpt>
      <trkpt lat="43.58384" lon="6.23157">
        <ele>397</ele>
        <time>2016-04-13T08:56:30Z</time>
      </trkpt>
      <trkpt lat="43.58384" lon="6.23158">
        <ele>397.6</ele>
        <time>2016-04-13T08:56:31Z</time>
      </trkpt>
      <trkpt lat="43.58393" lon="6.23138">
        <ele>400.9</ele>
        <time>2016-04-13T08:57:14Z</time>
      </trkpt>
      <trkpt lat="43.58389" lon="6.23128">
        <ele>403.1</ele>
        <time>2016-04-13T08:57:30Z</time>
      </trkpt>
      <trkpt lat="43.58383" lon="6.2312">
        <ele>403.4</ele>
        <time>2016-04-13T08:57:47Z</time>
      </trkpt>
      <trkpt lat="43.58383" lon="6.23119">
        <ele>403.8</ele>
        <time>2016-04-13T08:57:48Z</time>
      </trkpt>
      <trkpt lat="43.58374" lon="6.23105">
        <ele>406.2</ele>
        <time>2016-04-13T08:58:18Z</time>
      </trkpt>
      <trkpt lat="43.58365" lon="6.23103">
        <ele>405.7</ele>
        <time>2016-04-13T08:58:37Z</time>
      </trkpt>
      <trkpt lat="43.58371" lon="6.23095">
        <ele>406.2</ele>
        <time>2016-04-13T09:00:09Z</time>
      </trkpt>
      <trkpt lat="43.58372" lon="6.23094">
        <ele>406.4</ele>
        <time>2016-04-13T09:00:10Z</time>
      </trkpt>
      <trkpt lat="43.58377" lon="6.23084">
        <ele>408</ele>
        <time>2016-04-13T09:01:13Z</time>
      </trkpt>
      <trkpt lat="43.58389" lon="6.23069">
        <ele>411</ele>
        <time>2016-04-13T09:01:34Z</time>
      </trkpt>
      <trkpt lat="43.58397" lon="6.23065">
        <ele>412.6</ele>
        <time>2016-04-13T09:01:42Z</time>
      </trkpt>
      <trkpt lat="43.58404" lon="6.23058">
        <ele>412.9</ele>
        <time>2016-04-13T09:01:53Z</time>
      </trkpt>
      <trkpt lat="43.58411" lon="6.23051">
        <ele>413.8</ele>
        <time>2016-04-13T09:02:02Z</time>
      </trkpt>
      <trkpt lat="43.58416" lon="6.23041">
        <ele>414.9</ele>
        <time>2016-04-13T09:02:09Z</time>
      </trkpt>
      <trkpt lat="43.58422" lon="6.23033">
        <ele>416.6</ele>
        <time>2016-04-13T09:02:32Z</time>
      </trkpt>
      <trkpt lat="43.58422" lon="6.23032">
        <ele>416.5</ele>
        <time>2016-04-13T09:02:33Z</time>
      </trkpt>
      <trkpt lat="43.58434" lon="6.23017">
        <ele>417.4</ele>
        <time>2016-04-13T09:02:50Z</time>
      </trkpt>
      <trkpt lat="43.58442" lon="6.23016">
        <ele>416.9</ele>
        <time>2016-04-13T09:03:02Z</time>
      </trkpt>
      <trkpt lat="43.5845" lon="6.23012">
        <ele>417.3</ele>
        <time>2016-04-13T09:03:09Z</time>
      </trkpt>
      <trkpt lat="43.58457" lon="6.23005">
        <ele>417.3</ele>
        <time>2016-04-13T09:03:19Z</time>
      </trkpt>
      <trkpt lat="43.58465" lon="6.23001">
        <ele>416.3</ele>
        <time>2016-04-13T09:03:27Z</time>
      </trkpt>
      <trkpt lat="43.5847" lon="6.22992">
        <ele>416</ele>
        <time>2016-04-13T09:03:34Z</time>
      </trkpt>
      <trkpt lat="43.5847" lon="6.2299">
        <ele>416.2</ele>
        <time>2016-04-13T09:03:35Z</time>
      </trkpt>
      <trkpt lat="43.58477" lon="6.22972">
        <ele>416</ele>
        <time>2016-04-13T09:03:53Z</time>
      </trkpt>
      <trkpt lat="43.5848" lon="6.2296">
        <ele>416.6</ele>
        <time>2016-04-13T09:04:05Z</time>
      </trkpt>
      <trkpt lat="43.58485" lon="6.2295">
        <ele>417.8</ele>
        <time>2016-04-13T09:04:22Z</time>
      </trkpt>
      <trkpt lat="43.5849" lon="6.22941">
        <ele>418.5</ele>
        <time>2016-04-13T09:04:30Z</time>
      </trkpt>
      <trkpt lat="43.58495" lon="6.2293">
        <ele>418.3</ele>
        <time>2016-04-13T09:04:37Z</time>
      </trkpt>
      <trkpt lat="43.58495" lon="6.22929">
        <ele>418.9</ele>
        <time>2016-04-13T09:04:38Z</time>
      </trkpt>
      <trkpt lat="43.58504" lon="6.22911">
        <ele>420</ele>
        <time>2016-04-13T09:04:50Z</time>
      </trkpt>
      <trkpt lat="43.58511" lon="6.22905">
        <ele>420.7</ele>
        <time>2016-04-13T09:04:57Z</time>
      </trkpt>
      <trkpt lat="43.58519" lon="6.229">
        <ele>421.1</ele>
        <time>2016-04-13T09:05:06Z</time>
      </trkpt>
      <trkpt lat="43.58527" lon="6.22895">
        <ele>421.8</ele>
        <time>2016-04-13T09:05:16Z</time>
      </trkpt>
      <trkpt lat="43.58534" lon="6.22889">
        <ele>421.3</ele>
        <time>2016-04-13T09:05:24Z</time>
      </trkpt>
      <trkpt lat="43.58541" lon="6.22882">
        <ele>422.4</ele>
        <time>2016-04-13T09:05:31Z</time>
      </trkpt>
      <trkpt lat="43.58548" lon="6.22877">
        <ele>422.2</ele>
        <time>2016-04-13T09:05:39Z</time>
      </trkpt>
      <trkpt lat="43.58549" lon="6.22876">
        <ele>422.3</ele>
        <time>2016-04-13T09:05:40Z</time>
      </trkpt>
      <trkpt lat="43.58563" lon="6.22866">
        <ele>424.1</ele>
        <time>2016-04-13T09:05:55Z</time>
      </trkpt>
      <trkpt lat="43.58572" lon="6.22863">
        <ele>424.2</ele>
        <time>2016-04-13T09:06:02Z</time>
      </trkpt>
      <trkpt lat="43.5858" lon="6.22861">
        <ele>423.9</ele>
        <time>2016-04-13T09:06:10Z</time>
      </trkpt>
      <trkpt lat="43.58588" lon="6.22856">
        <ele>423.4</ele>
        <time>2016-04-13T09:06:16Z</time>
      </trkpt>
      <trkpt lat="43.58596" lon="6.22852">
        <ele>424.6</ele>
        <time>2016-04-13T09:06:24Z</time>
      </trkpt>
      <trkpt lat="43.58603" lon="6.22851">
        <ele>425</ele>
        <time>2016-04-13T09:06:33Z</time>
      </trkpt>
      <trkpt lat="43.58611" lon="6.22851">
        <ele>425.7</ele>
        <time>2016-04-13T09:06:41Z</time>
      </trkpt>
      <trkpt lat="43.58613" lon="6.2285">
        <ele>425.9</ele>
        <time>2016-04-13T09:06:42Z</time>
      </trkpt>
      <trkpt lat="43.58627" lon="6.22847">
        <ele>426.5</ele>
        <time>2016-04-13T09:07:12Z</time>
      </trkpt>
      <trkpt lat="43.58634" lon="6.2284">
        <ele>426.2</ele>
        <time>2016-04-13T09:07:19Z</time>
      </trkpt>
      <trkpt lat="43.58642" lon="6.22838">
        <ele>426.5</ele>
        <time>2016-04-13T09:07:25Z</time>
      </trkpt>
      <trkpt lat="43.58649" lon="6.22833">
        <ele>426.5</ele>
        <time>2016-04-13T09:07:35Z</time>
      </trkpt>
      <trkpt lat="43.58658" lon="6.2283">
        <ele>427</ele>
        <time>2016-04-13T09:07:44Z</time>
      </trkpt>
      <trkpt lat="43.58659" lon="6.2283">
        <ele>427</ele>
        <time>2016-04-13T09:07:45Z</time>
      </trkpt>
      <trkpt lat="43.58675" lon="6.22823">
        <ele>429</ele>
        <time>2016-04-13T09:08:08Z</time>
      </trkpt>
      <trkpt lat="43.58682" lon="6.22822">
        <ele>429.2</ele>
        <time>2016-04-13T09:08:16Z</time>
      </trkpt>
      <trkpt lat="43.5869" lon="6.22817">
        <ele>428.5</ele>
        <time>2016-04-13T09:08:25Z</time>
      </trkpt>
      <trkpt lat="43.58698" lon="6.22816">
        <ele>428.8</ele>
        <time>2016-04-13T09:08:33Z</time>
      </trkpt>
      <trkpt lat="43.58706" lon="6.22814">
        <ele>427.9</ele>
        <time>2016-04-13T09:08:41Z</time>
      </trkpt>
      <trkpt lat="43.58714" lon="6.22809">
        <ele>428.7</ele>
        <time>2016-04-13T09:08:48Z</time>
      </trkpt>
      <trkpt lat="43.58715" lon="6.2281">
        <ele>428.1</ele>
        <time>2016-04-13T09:08:49Z</time>
      </trkpt>
      <trkpt lat="43.58718" lon="6.22786">
        <ele>424.3</ele>
        <time>2016-04-13T09:09:12Z</time>
      </trkpt>
      <trkpt lat="43.58717" lon="6.22774">
        <ele>423.5</ele>
        <time>2016-04-13T09:09:25Z</time>
      </trkpt>
      <trkpt lat="43.58717" lon="6.22762">
        <ele>421.6</ele>
        <time>2016-04-13T09:09:33Z</time>
      </trkpt>
      <trkpt lat="43.58723" lon="6.22754">
        <ele>421.2</ele>
        <time>2016-04-13T09:09:43Z</time>
      </trkpt>
      <trkpt lat="43.58725" lon="6.22743">
        <ele>418.6</ele>
        <time>2016-04-13T09:09:52Z</time>
      </trkpt>
      <trkpt lat="43.58726" lon="6.22742">
        <ele>418.3</ele>
        <time>2016-04-13T09:09:53Z</time>
      </trkpt>
      <trkpt lat="43.58732" lon="6.22721">
        <ele>415.2</ele>
        <time>2016-04-13T09:10:16Z</time>
      </trkpt>
      <trkpt lat="43.58739" lon="6.22715">
        <ele>412.1</ele>
        <time>2016-04-13T09:10:36Z</time>
      </trkpt>
      <trkpt lat="43.58747" lon="6.22714">
        <ele>409.7</ele>
        <time>2016-04-13T09:10:45Z</time>
      </trkpt>
      <trkpt lat="43.58754" lon="6.22721">
        <ele>405.8</ele>
        <time>2016-04-13T09:11:41Z</time>
      </trkpt>
      <trkpt lat="43.58755" lon="6.22721">
        <ele>405.6</ele>
        <time>2016-04-13T09:11:42Z</time>
      </trkpt>
      <trkpt lat="43.58767" lon="6.22732">
        <ele>402.9</ele>
        <time>2016-04-13T09:11:51Z</time>
      </trkpt>
      <trkpt lat="43.58775" lon="6.22736">
        <ele>400.4</ele>
        <time>2016-04-13T09:11:56Z</time>
      </trkpt>
      <trkpt lat="43.58783" lon="6.22741">
        <ele>401.2</ele>
        <time>2016-04-13T09:12:01Z</time>
      </trkpt>
      <trkpt lat="43.58791" lon="6.22742">
        <ele>400</ele>
        <time>2016-04-13T09:12:10Z</time>
      </trkpt>
      <trkpt lat="43.58799" lon="6.22741">
        <ele>400.3</ele>
        <time>2016-04-13T09:12:22Z</time>
      </trkpt>
      <trkpt lat="43.58811" lon="6.22735">
        <ele>399</ele>
        <time>2016-04-13T09:12:31Z</time>
      </trkpt>
      <trkpt lat="43.58806" lon="6.22748">
        <ele>398.1</ele>
        <time>2016-04-13T09:13:12Z</time>
      </trkpt>
      <trkpt lat="43.58805" lon="6.22749">
        <ele>398.2</ele>
        <time>2016-04-13T09:13:13Z</time>
      </trkpt>
      <trkpt lat="43.58803" lon="6.22771">
        <ele>398.7</ele>
        <time>2016-04-13T09:13:30Z</time>
      </trkpt>
      <trkpt lat="43.58803" lon="6.22782">
        <ele>397.2</ele>
        <time>2016-04-13T09:13:37Z</time>
      </trkpt>
      <trkpt lat="43.58799" lon="6.22792">
        <ele>397.7</ele>
        <time>2016-04-13T09:13:42Z</time>
      </trkpt>
      <trkpt lat="43.588" lon="6.22804">
        <ele>396.9</ele>
        <time>2016-04-13T09:13:54Z</time>
      </trkpt>
      <trkpt lat="43.58797" lon="6.22816">
        <ele>396.8</ele>
        <time>2016-04-13T09:14:04Z</time>
      </trkpt>
      <trkpt lat="43.58797" lon="6.22827">
        <ele>395.8</ele>
        <time>2016-04-13T09:14:12Z</time>
      </trkpt>
      <trkpt lat="43.58796" lon="6.22839">
        <ele>394.2</ele>
        <time>2016-04-13T09:14:21Z</time>
      </trkpt>
      <trkpt lat="43.58795" lon="6.22841">
        <ele>394.2</ele>
        <time>2016-04-13T09:14:22Z</time>
      </trkpt>
      <trkpt lat="43.58793" lon="6.22862">
        <ele>394.7</ele>
        <time>2016-04-13T09:14:36Z</time>
      </trkpt>
      <trkpt lat="43.58788" lon="6.22872">
        <ele>392.8</ele>
        <time>2016-04-13T09:14:44Z</time>
      </trkpt>
      <trkpt lat="43.58784" lon="6.22882">
        <ele>392</ele>
        <time>2016-04-13T09:14:56Z</time>
      </trkpt>
      <trkpt lat="43.58778" lon="6.22889">
        <ele>391.7</ele>
        <time>2016-04-13T09:15:06Z</time>
      </trkpt>
      <trkpt lat="43.58771" lon="6.22895">
        <ele>390.9</ele>
        <time>2016-04-13T09:15:13Z</time>
      </trkpt>
      <trkpt lat="43.58763" lon="6.22901">
        <ele>390.4</ele>
        <time>2016-04-13T09:15:19Z</time>
      </trkpt>
      <trkpt lat="43.58755" lon="6.22905">
        <ele>388.5</ele>
        <time>2016-04-13T09:15:31Z</time>
      </trkpt>
      <trkpt lat="43.58754" lon="6.22905">
        <ele>388.2</ele>
        <time>2016-04-13T09:15:32Z</time>
      </trkpt>
      <trkpt lat="43.58744" lon="6.22924">
        <ele>387.2</ele>
        <time>2016-04-13T09:15:49Z</time>
      </trkpt>
      <trkpt lat="43.58738" lon="6.22932">
        <ele>386.8</ele>
        <time>2016-04-13T09:15:55Z</time>
      </trkpt>
      <trkpt lat="43.58732" lon="6.22937">
        <ele>386.4</ele>
        <time>2016-04-13T09:16:04Z</time>
      </trkpt>
      <trkpt lat="43.58725" lon="6.22945">
        <ele>385.1</ele>
        <time>2016-04-13T09:16:14Z</time>
      </trkpt>
      <trkpt lat="43.58721" lon="6.22955">
        <ele>384.9</ele>
        <time>2016-04-13T09:16:22Z</time>
      </trkpt>
      <trkpt lat="43.58715" lon="6.22963">
        <ele>384.4</ele>
        <time>2016-04-13T09:16:29Z</time>
      </trkpt>
      <trkpt lat="43.58708" lon="6.2297">
        <ele>383.8</ele>
        <time>2016-04-13T09:16:39Z</time>
      </trkpt>
      <trkpt lat="43.58708" lon="6.22971">
        <ele>383.5</ele>
        <time>2016-04-13T09:16:40Z</time>
      </trkpt>
      <trkpt lat="43.58692" lon="6.22965">
        <ele>379.9</ele>
        <time>2016-04-13T09:17:09Z</time>
      </trkpt>
      <trkpt lat="43.5868" lon="6.22964">
        <ele>378</ele>
        <time>2016-04-13T09:17:22Z</time>
      </trkpt>
      <trkpt lat="43.58673" lon="6.2296">
        <ele>378</ele>
        <time>2016-04-13T09:17:30Z</time>
      </trkpt>
      <trkpt lat="43.58664" lon="6.22959">
        <ele>377.8</ele>
        <time>2016-04-13T09:17:36Z</time>
      </trkpt>
      <trkpt lat="43.58653" lon="6.22957">
        <ele>376</ele>
        <time>2016-04-13T09:17:43Z</time>
      </trkpt>
      <trkpt lat="43.58651" lon="6.22958">
        <ele>376.7</ele>
        <time>2016-04-13T09:17:45Z</time>
      </trkpt>
      <trkpt lat="43.58637" lon="6.22962">
        <ele>375</ele>
        <time>2016-04-13T09:17:56Z</time>
      </trkpt>
      <trkpt lat="43.58629" lon="6.22962">
        <ele>374.5</ele>
        <time>2016-04-13T09:18:05Z</time>
      </trkpt>
      <trkpt lat="43.58621" lon="6.22963">
        <ele>375.8</ele>
        <time>2016-04-13T09:18:18Z</time>
      </trkpt>
      <trkpt lat="43.58612" lon="6.22961">
        <ele>374.4</ele>
        <time>2016-04-13T09:18:25Z</time>
      </trkpt>
      <trkpt lat="43.58603" lon="6.22963">
        <ele>373.7</ele>
        <time>2016-04-13T09:18:34Z</time>
      </trkpt>
      <trkpt lat="43.58596" lon="6.22969">
        <ele>373.2</ele>
        <time>2016-04-13T09:18:40Z</time>
      </trkpt>
      <trkpt lat="43.58589" lon="6.22976">
        <ele>372.4</ele>
        <time>2016-04-13T09:18:47Z</time>
      </trkpt>
      <trkpt lat="43.58588" lon="6.22977">
        <ele>372.1</ele>
        <time>2016-04-13T09:18:48Z</time>
      </trkpt>
      <trkpt lat="43.58577" lon="6.22991">
        <ele>373.2</ele>
        <time>2016-04-13T09:19:10Z</time>
      </trkpt>
      <trkpt lat="43.58572" lon="6.23001">
        <ele>371.1</ele>
        <time>2016-04-13T09:19:19Z</time>
      </trkpt>
      <trkpt lat="43.58565" lon="6.23008">
        <ele>370.3</ele>
        <time>2016-04-13T09:19:28Z</time>
      </trkpt>
      <trkpt lat="43.58562" lon="6.23021">
        <ele>370</ele>
        <time>2016-04-13T09:20:55Z</time>
      </trkpt>
      <trkpt lat="43.58561" lon="6.2302">
        <ele>370.9</ele>
        <time>2016-04-13T09:20:57Z</time>
      </trkpt>
      <trkpt lat="43.58568" lon="6.23019">
        <ele>372</ele>
        <time>2016-04-13T09:21:50Z</time>
      </trkpt>
      <trkpt lat="43.58567" lon="6.23033">
        <ele>387</ele>
        <time>2016-04-13T09:23:50Z</time>
      </trkpt>
      <trkpt lat="43.58567" lon="6.23033">
        <ele>388.5</ele>
        <time>2016-04-13T09:23:52Z</time>
      </trkpt>
      <trkpt lat="43.58584" lon="6.2304">
        <ele>392</ele>
        <time>2016-04-13T09:24:26Z</time>
      </trkpt>
      <trkpt lat="43.58594" lon="6.23037">
        <ele>399</ele>
        <time>2016-04-13T09:25:09Z</time>
      </trkpt>
      <trkpt lat="43.58594" lon="6.23038">
        <ele>399.7</ele>
        <time>2016-04-13T09:25:12Z</time>
      </trkpt>
      <trkpt lat="43.58601" lon="6.23052">
        <ele>409</ele>
        <time>2016-04-13T09:26:22Z</time>
      </trkpt>
      <trkpt lat="43.586" lon="6.23069">
        <ele>414.3</ele>
        <time>2016-04-13T09:26:56Z</time>
      </trkpt>
      <trkpt lat="43.58606" lon="6.23079">
        <ele>417.6</ele>
        <time>2016-04-13T09:27:21Z</time>
      </trkpt>
      <trkpt lat="43.58613" lon="6.23086">
        <ele>418.4</ele>
        <time>2016-04-13T09:27:43Z</time>
      </trkpt>
      <trkpt lat="43.58614" lon="6.23085">
        <ele>418.7</ele>
        <time>2016-04-13T09:27:44Z</time>
      </trkpt>
      <trkpt lat="43.58628" lon="6.23097">
        <ele>422.3</ele>
        <time>2016-04-13T09:28:12Z</time>
      </trkpt>
      <trkpt lat="43.58637" lon="6.23098">
        <ele>424.7</ele>
        <time>2016-04-13T09:28:23Z</time>
      </trkpt>
      <trkpt lat="43.58645" lon="6.23093">
        <ele>424</ele>
        <time>2016-04-13T09:28:36Z</time>
      </trkpt>
      <trkpt lat="43.58654" lon="6.23094">
        <ele>425.7</ele>
        <time>2016-04-13T09:28:49Z</time>
      </trkpt>
      <trkpt lat="43.58655" lon="6.23094">
        <ele>425.4</ele>
        <time>2016-04-13T09:28:50Z</time>
      </trkpt>
      <trkpt lat="43.58669" lon="6.23089">
        <ele>427.5</ele>
        <time>2016-04-13T09:29:09Z</time>
      </trkpt>
      <trkpt lat="43.58676" lon="6.23096">
        <ele>429.3</ele>
        <time>2016-04-13T09:30:18Z</time>
      </trkpt>
      <trkpt lat="43.58677" lon="6.23096">
        <ele>429.2</ele>
        <time>2016-04-13T09:30:19Z</time>
      </trkpt>
      <trkpt lat="43.58684" lon="6.23103">
        <ele>429.8</ele>
        <time>2016-04-13T09:32:30Z</time>
      </trkpt>
      <trkpt lat="43.58698" lon="6.23091">
        <ele>427.5</ele>
        <time>2016-04-13T09:33:05Z</time>
      </trkpt>
      <trkpt lat="43.58704" lon="6.231">
        <ele>426.7</ele>
        <time>2016-04-13T09:33:20Z</time>
      </trkpt>
      <trkpt lat="43.58702" lon="6.23088">
        <ele>427.3</ele>
        <time>2016-04-13T09:33:40Z</time>
      </trkpt>
      <trkpt lat="43.58702" lon="6.23087">
        <ele>427.6</ele>
        <time>2016-04-13T09:33:41Z</time>
      </trkpt>
      <trkpt lat="43.58687" lon="6.23077">
        <ele>424.4</ele>
        <time>2016-04-13T09:33:59Z</time>
      </trkpt>
      <trkpt lat="43.58678" lon="6.23076">
        <ele>425.6</ele>
        <time>2016-04-13T09:34:08Z</time>
      </trkpt>
      <trkpt lat="43.58672" lon="6.23086">
        <ele>427.8</ele>
        <time>2016-04-13T09:34:38Z</time>
      </trkpt>
      <trkpt lat="43.5868" lon="6.23088">
        <ele>426.8</ele>
        <time>2016-04-13T09:35:28Z</time>
      </trkpt>
      <trkpt lat="43.58681" lon="6.23087">
        <ele>427.3</ele>
        <time>2016-04-13T09:35:29Z</time>
      </trkpt>
      <trkpt lat="43.58663" lon="6.23083">
        <ele>426.4</ele>
        <time>2016-04-13T09:36:11Z</time>
      </trkpt>
      <trkpt lat="43.58655" lon="6.23087">
        <ele>425.7</ele>
        <time>2016-04-13T09:36:22Z</time>
      </trkpt>
      <trkpt lat="43.58647" lon="6.23083">
        <ele>425.6</ele>
        <time>2016-04-13T09:36:28Z</time>
      </trkpt>
      <trkpt lat="43.58639" lon="6.23085">
        <ele>425.1</ele>
        <time>2016-04-13T09:36:39Z</time>
      </trkpt>
      <trkpt lat="43.58638" lon="6.23086">
        <ele>425.2</ele>
        <time>2016-04-13T09:36:40Z</time>
      </trkpt>
      <trkpt lat="43.58623" lon="6.23086">
        <ele>420</ele>
        <time>2016-04-13T09:37:10Z</time>
      </trkpt>
      <trkpt lat="43.58614" lon="6.23089">
        <ele>418.2</ele>
        <time>2016-04-13T09:37:24Z</time>
      </trkpt>
      <trkpt lat="43.58607" lon="6.23095">
        <ele>414.7</ele>
        <time>2016-04-13T09:37:45Z</time>
      </trkpt>
      <trkpt lat="43.58606" lon="6.23096">
        <ele>414.7</ele>
        <time>2016-04-13T09:37:46Z</time>
      </trkpt>
      <trkpt lat="43.58607" lon="6.23118">
        <ele>415.1</ele>
        <time>2016-04-13T09:38:20Z</time>
      </trkpt>
      <trkpt lat="43.58603" lon="6.23128">
        <ele>412.2</ele>
        <time>2016-04-13T09:39:01Z</time>
      </trkpt>
      <trkpt lat="43.58603" lon="6.23129">
        <ele>412.3</ele>
        <time>2016-04-13T09:39:02Z</time>
      </trkpt>
      <trkpt lat="43.58597" lon="6.23117">
        <ele>409.2</ele>
        <time>2016-04-13T09:40:16Z</time>
      </trkpt>
      <trkpt lat="43.58589" lon="6.23133">
        <ele>407.5</ele>
        <time>2016-04-13T09:41:27Z</time>
      </trkpt>
      <trkpt lat="43.5859" lon="6.23134">
        <ele>407.7</ele>
        <time>2016-04-13T09:41:28Z</time>
      </trkpt>
      <trkpt lat="43.58591" lon="6.2312">
        <ele>406.5</ele>
        <time>2016-04-13T09:42:42Z</time>
      </trkpt>
      <trkpt lat="43.58595" lon="6.23108">
        <ele>406.4</ele>
        <time>2016-04-13T09:43:11Z</time>
      </trkpt>
      <trkpt lat="43.58594" lon="6.23096">
        <ele>406.9</ele>
        <time>2016-04-13T09:43:27Z</time>
      </trkpt>
      <trkpt lat="43.586" lon="6.23091">
        <ele>409.8</ele>
        <time>2016-04-13T09:44:00Z</time>
      </trkpt>
      <trkpt lat="43.58601" lon="6.23089">
        <ele>410.3</ele>
        <time>2016-04-13T09:44:01Z</time>
      </trkpt>
      <trkpt lat="43.58599" lon="6.23071">
        <ele>410.7</ele>
        <time>2016-04-13T09:44:25Z</time>
      </trkpt>
      <trkpt lat="43.58597" lon="6.23059">
        <ele>409.7</ele>
        <time>2016-04-13T09:45:10Z</time>
      </trkpt>
      <trkpt lat="43.58597" lon="6.23058">
        <ele>409.6</ele>
        <time>2016-04-13T09:45:11Z</time>
      </trkpt>
      <trkpt lat="43.58601" lon="6.23037">
        <ele>398.9</ele>
        <time>2016-04-13T09:46:12Z</time>
      </trkpt>
      <trkpt lat="43.58601" lon="6.23036">
        <ele>398.7</ele>
        <time>2016-04-13T09:46:13Z</time>
      </trkpt>
      <trkpt lat="43.58584" lon="6.23032">
        <ele>392.4</ele>
        <time>2016-04-13T09:46:44Z</time>
      </trkpt>
      <trkpt lat="43.58576" lon="6.23031">
        <ele>391.8</ele>
        <time>2016-04-13T09:46:51Z</time>
      </trkpt>
      <trkpt lat="43.5857" lon="6.23023">
        <ele>387.9</ele>
        <time>2016-04-13T09:47:15Z</time>
      </trkpt>
      <trkpt lat="43.5857" lon="6.23021">
        <ele>387.9</ele>
        <time>2016-04-13T09:47:16Z</time>
      </trkpt>
      <trkpt lat="43.58573" lon="6.23012">
        <ele>375.7</ele>
        <time>2016-04-13T09:48:33Z</time>
      </trkpt>
      <trkpt lat="43.58573" lon="6.23011">
        <ele>375.6</ele>
        <time>2016-04-13T09:48:34Z</time>
      </trkpt>
      <trkpt lat="43.58561" lon="6.23004">
        <ele>372.5</ele>
        <time>2016-04-13T09:49:57Z</time>
      </trkpt>
      <trkpt lat="43.58552" lon="6.23013">
        <ele>370.6</ele>
        <time>2016-04-13T09:50:24Z</time>
      </trkpt>
      <trkpt lat="43.58545" lon="6.2302">
        <ele>372</ele>
        <time>2016-04-13T09:50:48Z</time>
      </trkpt>
      <trkpt lat="43.58539" lon="6.23028">
        <ele>370.2</ele>
        <time>2016-04-13T09:51:01Z</time>
      </trkpt>
      <trkpt lat="43.58539" lon="6.23029">
        <ele>370</ele>
        <time>2016-04-13T09:51:02Z</time>
      </trkpt>
      <trkpt lat="43.58533" lon="6.23047">
        <ele>361.3</ele>
        <time>2016-04-13T09:51:48Z</time>
      </trkpt>
      <trkpt lat="43.58532" lon="6.23059">
        <ele>360.8</ele>
        <time>2016-04-13T09:51:59Z</time>
      </trkpt>
      <trkpt lat="43.58532" lon="6.2307">
        <ele>360.1</ele>
        <time>2016-04-13T09:52:06Z</time>
      </trkpt>
      <trkpt lat="43.58533" lon="6.23072">
        <ele>359.9</ele>
        <time>2016-04-13T09:52:07Z</time>
      </trkpt>
      <trkpt lat="43.58532" lon="6.23092">
        <ele>356.5</ele>
        <time>2016-04-13T09:52:27Z</time>
      </trkpt>
      <trkpt lat="43.58532" lon="6.23104">
        <ele>354.6</ele>
        <time>2016-04-13T09:52:36Z</time>
      </trkpt>
      <trkpt lat="43.58536" lon="6.23114">
        <ele>352.2</ele>
        <time>2016-04-13T09:52:49Z</time>
      </trkpt>
      <trkpt lat="43.58535" lon="6.23126">
        <ele>352</ele>
        <time>2016-04-13T09:52:57Z</time>
      </trkpt>
      <trkpt lat="43.58532" lon="6.23137">
        <ele>350.3</ele>
        <time>2016-04-13T09:53:11Z</time>
      </trkpt>
      <trkpt lat="43.58532" lon="6.23138">
        <ele>350.4</ele>
        <time>2016-04-13T09:53:12Z</time>
      </trkpt>
      <trkpt lat="43.58523" lon="6.23157">
        <ele>348.1</ele>
        <time>2016-04-13T09:53:32Z</time>
      </trkpt>
      <trkpt lat="43.58516" lon="6.23164">
        <ele>346.5</ele>
        <time>2016-04-13T09:53:40Z</time>
      </trkpt>
      <trkpt lat="43.58512" lon="6.23174">
        <ele>344.8</ele>
        <time>2016-04-13T09:53:54Z</time>
      </trkpt>
      <trkpt lat="43.58508" lon="6.23184">
        <ele>345.8</ele>
        <time>2016-04-13T09:54:02Z</time>
      </trkpt>
      <trkpt lat="43.58503" lon="6.23193">
        <ele>347.2</ele>
        <time>2016-04-13T09:54:13Z</time>
      </trkpt>
      <trkpt lat="43.58504" lon="6.23195">
        <ele>347</ele>
        <time>2016-04-13T09:54:14Z</time>
      </trkpt>
      <trkpt lat="43.58509" lon="6.23215">
        <ele>347.3</ele>
        <time>2016-04-13T09:54:24Z</time>
      </trkpt>
      <trkpt lat="43.58502" lon="6.23223">
        <ele>345.5</ele>
        <time>2016-04-13T09:54:43Z</time>
      </trkpt>
      <trkpt lat="43.58507" lon="6.23233">
        <ele>346.3</ele>
        <time>2016-04-13T09:54:50Z</time>
      </trkpt>
      <trkpt lat="43.58499" lon="6.23237">
        <ele>345.9</ele>
        <time>2016-04-13T09:55:12Z</time>
      </trkpt>
      <trkpt lat="43.58507" lon="6.2324">
        <ele>345.4</ele>
        <time>2016-04-13T09:56:54Z</time>
      </trkpt>
      <trkpt lat="43.58508" lon="6.2324">
        <ele>345.5</ele>
        <time>2016-04-13T09:56:55Z</time>
      </trkpt>
      <trkpt lat="43.5852" lon="6.23229">
        <ele>346.4</ele>
        <time>2016-04-13T09:57:05Z</time>
      </trkpt>
      <trkpt lat="43.58529" lon="6.23232">
        <ele>347.4</ele>
        <time>2016-04-13T09:58:10Z</time>
      </trkpt>
      <trkpt lat="43.5853" lon="6.23233">
        <ele>347</ele>
        <time>2016-04-13T09:58:11Z</time>
      </trkpt>
      <trkpt lat="43.58545" lon="6.23239">
        <ele>345.8</ele>
        <time>2016-04-13T09:58:24Z</time>
      </trkpt>
      <trkpt lat="43.58553" lon="6.2324">
        <ele>345.8</ele>
        <time>2016-04-13T09:58:30Z</time>
      </trkpt>
      <trkpt lat="43.58562" lon="6.23238">
        <ele>346.1</ele>
        <time>2016-04-13T09:58:34Z</time>
      </trkpt>
      <trkpt lat="43.58569" lon="6.23238">
        <ele>345.6</ele>
        <time>2016-04-13T09:58:38Z</time>
      </trkpt>
      <trkpt lat="43.58577" lon="6.2324">
        <ele>347.3</ele>
        <time>2016-04-13T09:58:42Z</time>
      </trkpt>
      <trkpt lat="43.58586" lon="6.23243">
        <ele>347.1</ele>
        <time>2016-04-13T09:58:50Z</time>
      </trkpt>
      <trkpt lat="43.58597" lon="6.23251">
        <ele>345.9</ele>
        <time>2016-04-13T09:59:03Z</time>
      </trkpt>
      <trkpt lat="43.58603" lon="6.2326">
        <ele>345.9</ele>
        <time>2016-04-13T09:59:12Z</time>
      </trkpt>
      <trkpt lat="43.58605" lon="6.23262">
        <ele>345.4</ele>
        <time>2016-04-13T09:59:13Z</time>
      </trkpt>
      <trkpt lat="43.58616" lon="6.23272">
        <ele>346</ele>
        <time>2016-04-13T09:59:32Z</time>
      </trkpt>
      <trkpt lat="43.58624" lon="6.23272">
        <ele>347.4</ele>
        <time>2016-04-13T09:59:38Z</time>
      </trkpt>
      <trkpt lat="43.58631" lon="6.2327">
        <ele>347.1</ele>
        <time>2016-04-13T09:59:41Z</time>
      </trkpt>
      <trkpt lat="43.5864" lon="6.23268">
        <ele>347.9</ele>
        <time>2016-04-13T09:59:48Z</time>
      </trkpt>
      <trkpt lat="43.58648" lon="6.23267">
        <ele>347.8</ele>
        <time>2016-04-13T09:59:57Z</time>
      </trkpt>
      <trkpt lat="43.58656" lon="6.23267">
        <ele>348.4</ele>
        <time>2016-04-13T10:00:04Z</time>
      </trkpt>
      <trkpt lat="43.58665" lon="6.23268">
        <ele>348.3</ele>
        <time>2016-04-13T10:00:10Z</time>
      </trkpt>
      <trkpt lat="43.58672" lon="6.23263">
        <ele>348.4</ele>
        <time>2016-04-13T10:00:16Z</time>
      </trkpt>
      <trkpt lat="43.58674" lon="6.23263">
        <ele>347.7</ele>
        <time>2016-04-13T10:00:17Z</time>
      </trkpt>
      <trkpt lat="43.58687" lon="6.23258">
        <ele>348.5</ele>
        <time>2016-04-13T10:00:31Z</time>
      </trkpt>
      <trkpt lat="43.58694" lon="6.23251">
        <ele>347.9</ele>
        <time>2016-04-13T10:00:36Z</time>
      </trkpt>
      <trkpt lat="43.58702" lon="6.23248">
        <ele>347.5</ele>
        <time>2016-04-13T10:00:45Z</time>
      </trkpt>
      <trkpt lat="43.58709" lon="6.23242">
        <ele>346.8</ele>
        <time>2016-04-13T10:00:54Z</time>
      </trkpt>
      <trkpt lat="43.58722" lon="6.23233">
        <ele>347</ele>
        <time>2016-04-13T10:01:05Z</time>
      </trkpt>
      <trkpt lat="43.5873" lon="6.23232">
        <ele>347.6</ele>
        <time>2016-04-13T10:01:14Z</time>
      </trkpt>
      <trkpt lat="43.58738" lon="6.23233">
        <ele>347.8</ele>
        <time>2016-04-13T10:01:19Z</time>
      </trkpt>
      <trkpt lat="43.5874" lon="6.23233">
        <ele>347.8</ele>
        <time>2016-04-13T10:01:20Z</time>
      </trkpt>
      <trkpt lat="43.58756" lon="6.23232">
        <ele>350</ele>
        <time>2016-04-13T10:01:35Z</time>
      </trkpt>
      <trkpt lat="43.58763" lon="6.23236">
        <ele>349.9</ele>
        <time>2016-04-13T10:01:45Z</time>
      </trkpt>
      <trkpt lat="43.58771" lon="6.23235">
        <ele>350.3</ele>
        <time>2016-04-13T10:01:50Z</time>
      </trkpt>
      <trkpt lat="43.58782" lon="6.23237">
        <ele>349</ele>
        <time>2016-04-13T10:02:02Z</time>
      </trkpt>
      <trkpt lat="43.58788" lon="6.23245">
        <ele>349.2</ele>
        <time>2016-04-13T10:02:12Z</time>
      </trkpt>
      <trkpt lat="43.58794" lon="6.23253">
        <ele>350.1</ele>
        <time>2016-04-13T10:02:23Z</time>
      </trkpt>
      <trkpt lat="43.58794" lon="6.23255">
        <ele>350.5</ele>
        <time>2016-04-13T10:02:24Z</time>
      </trkpt>
      <trkpt lat="43.58784" lon="6.23279">
        <ele>352</ele>
        <time>2016-04-13T10:02:44Z</time>
      </trkpt>
      <trkpt lat="43.58782" lon="6.2329">
        <ele>350.7</ele>
        <time>2016-04-13T10:02:51Z</time>
      </trkpt>
      <trkpt lat="43.58784" lon="6.233">
        <ele>351.6</ele>
        <time>2016-04-13T10:02:56Z</time>
      </trkpt>
      <trkpt lat="43.5879" lon="6.23309">
        <ele>351.5</ele>
        <time>2016-04-13T10:03:03Z</time>
      </trkpt>
      <trkpt lat="43.58783" lon="6.2332">
        <ele>352</ele>
        <time>2016-04-13T10:04:18Z</time>
      </trkpt>
      <trkpt lat="43.58783" lon="6.23321">
        <ele>352.3</ele>
        <time>2016-04-13T10:04:20Z</time>
      </trkpt>
      <trkpt lat="43.58798" lon="6.23312">
        <ele>353.4</ele>
        <time>2016-04-13T10:04:44Z</time>
      </trkpt>
      <trkpt lat="43.58791" lon="6.23317">
        <ele>352.5</ele>
        <time>2016-04-13T10:05:07Z</time>
      </trkpt>
      <trkpt lat="43.5878" lon="6.2332">
        <ele>353.2</ele>
        <time>2016-04-13T10:05:12Z</time>
      </trkpt>
      <trkpt lat="43.58774" lon="6.23329">
        <ele>352.4</ele>
        <time>2016-04-13T10:05:47Z</time>
      </trkpt>
      <trkpt lat="43.58774" lon="6.2333">
        <ele>353</ele>
        <time>2016-04-13T10:05:48Z</time>
      </trkpt>
      <trkpt lat="43.58766" lon="6.23348">
        <ele>353.8</ele>
        <time>2016-04-13T10:06:05Z</time>
      </trkpt>
      <trkpt lat="43.58763" lon="6.23359">
        <ele>352.6</ele>
        <time>2016-04-13T10:06:12Z</time>
      </trkpt>
      <trkpt lat="43.58757" lon="6.23368">
        <ele>352.3</ele>
        <time>2016-04-13T10:06:21Z</time>
      </trkpt>
      <trkpt lat="43.58754" lon="6.23379">
        <ele>353.3</ele>
        <time>2016-04-13T10:06:27Z</time>
      </trkpt>
      <trkpt lat="43.58757" lon="6.23389">
        <ele>354.3</ele>
        <time>2016-04-13T10:06:34Z</time>
      </trkpt>
      <trkpt lat="43.58761" lon="6.23401">
        <ele>352.8</ele>
        <time>2016-04-13T10:06:42Z</time>
      </trkpt>
      <trkpt lat="43.58765" lon="6.23411">
        <ele>353.8</ele>
        <time>2016-04-13T10:06:49Z</time>
      </trkpt>
      <trkpt lat="43.58766" lon="6.23413">
        <ele>353.3</ele>
        <time>2016-04-13T10:06:50Z</time>
      </trkpt>
      <trkpt lat="43.58777" lon="6.23429">
        <ele>355.3</ele>
        <time>2016-04-13T10:07:06Z</time>
      </trkpt>
      <trkpt lat="43.58782" lon="6.23439">
        <ele>355.4</ele>
        <time>2016-04-13T10:07:23Z</time>
      </trkpt>
      <trkpt lat="43.58789" lon="6.23441">
        <ele>355.7</ele>
        <time>2016-04-13T10:07:26Z</time>
      </trkpt>
      <trkpt lat="43.58796" lon="6.23445">
        <ele>354.3</ele>
        <time>2016-04-13T10:07:29Z</time>
      </trkpt>
      <trkpt lat="43.58804" lon="6.23447">
        <ele>353.1</ele>
        <time>2016-04-13T10:07:55Z</time>
      </trkpt>
      <trkpt lat="43.58806" lon="6.23447">
        <ele>352.8</ele>
        <time>2016-04-13T10:07:56Z</time>
      </trkpt>
      <trkpt lat="43.58811" lon="6.23427">
        <ele>353</ele>
        <time>2016-04-13T10:08:28Z</time>
      </trkpt>
      <trkpt lat="43.58818" lon="6.23423">
        <ele>352.7</ele>
        <time>2016-04-13T10:08:32Z</time>
      </trkpt>
      <trkpt lat="43.58823" lon="6.2342">
        <ele>353</ele>
        <time>2016-04-13T10:08:48Z</time>
      </trkpt>
      <trkpt lat="43.58826" lon="6.23414">
        <ele>354</ele>
        <time>2016-04-13T10:09:02Z</time>
      </trkpt>
      <trkpt lat="43.58828" lon="6.23411">
        <ele>354.5</ele>
        <time>2016-04-13T10:09:04Z</time>
      </trkpt>
      <trkpt lat="43.58844" lon="6.23403">
        <ele>352</ele>
        <time>2016-04-13T10:09:30Z</time>
      </trkpt>
      <trkpt lat="43.58854" lon="6.23399">
        <ele>353.1</ele>
        <time>2016-04-13T10:09:40Z</time>
      </trkpt>
      <trkpt lat="43.58862" lon="6.23415">
        <ele>353.6</ele>
        <time>2016-04-13T10:09:44Z</time>
      </trkpt>
      <trkpt lat="43.58853" lon="6.23399">
        <ele>353</ele>
        <time>2016-04-13T10:09:47Z</time>
      </trkpt>
      <trkpt lat="43.58847" lon="6.23405">
        <ele>353</ele>
        <time>2016-04-13T10:09:55Z</time>
      </trkpt>
      <trkpt lat="43.58838" lon="6.23403">
        <ele>353</ele>
        <time>2016-04-13T10:10:33Z</time>
      </trkpt>
      <trkpt lat="43.58835" lon="6.23405">
        <ele>354</ele>
        <time>2016-04-13T10:10:37Z</time>
      </trkpt>
      <trkpt lat="43.58825" lon="6.23419">
        <ele>353</ele>
        <time>2016-04-13T10:11:07Z</time>
      </trkpt>
      <trkpt lat="43.58812" lon="6.23426">
        <ele>353</ele>
        <time>2016-04-13T10:11:24Z</time>
      </trkpt>
      <trkpt lat="43.58804" lon="6.23446">
        <ele>352</ele>
        <time>2016-04-13T10:11:33Z</time>
      </trkpt>
      <trkpt lat="43.58796" lon="6.23442">
        <ele>353</ele>
        <time>2016-04-13T10:11:47Z</time>
      </trkpt>
      <trkpt lat="43.58792" lon="6.2344">
        <ele>353.2</ele>
        <time>2016-04-13T10:11:50Z</time>
      </trkpt>
      <trkpt lat="43.58773" lon="6.23443">
        <ele>351.5</ele>
        <time>2016-04-13T10:12:19Z</time>
      </trkpt>
      <trkpt lat="43.58775" lon="6.23455">
        <ele>357.9</ele>
        <time>2016-04-13T10:12:58Z</time>
      </trkpt>
      <trkpt lat="43.58775" lon="6.23455">
        <ele>357.9</ele>
        <time>2016-04-13T10:12:59Z</time>
      </trkpt>
      <trkpt lat="43.58774" lon="6.23456">
        <ele>360.1</ele>
        <time>2016-04-13T10:13:38Z</time>
      </trkpt>
      <trkpt lat="43.58774" lon="6.23458">
        <ele>361</ele>
        <time>2016-04-13T10:13:47Z</time>
      </trkpt>
      <trkpt lat="43.58775" lon="6.23459">
        <ele>362</ele>
        <time>2016-04-13T10:14:07Z</time>
      </trkpt>
      <trkpt lat="43.58775" lon="6.23459">
        <ele>363.1</ele>
        <time>2016-04-13T10:14:09Z</time>
      </trkpt>
      <trkpt lat="43.58775" lon="6.23457">
        <ele>365</ele>
        <time>2016-04-13T10:14:48Z</time>
      </trkpt>
      <trkpt lat="43.58773" lon="6.23461">
        <ele>364.9</ele>
        <time>2016-04-13T10:15:15Z</time>
      </trkpt>
      <trkpt lat="43.58774" lon="6.23462">
        <ele>364.9</ele>
        <time>2016-04-13T10:15:16Z</time>
      </trkpt>
      <trkpt lat="43.58774" lon="6.23463">
        <ele>364.7</ele>
        <time>2016-04-13T10:15:39Z</time>
      </trkpt>
      <trkpt lat="43.58778" lon="6.23464">
        <ele>364</ele>
        <time>2016-04-13T10:16:03Z</time>
      </trkpt>
      <trkpt lat="43.58777" lon="6.23466">
        <ele>364</ele>
        <time>2016-04-13T10:16:21Z</time>
      </trkpt>
      <trkpt lat="43.58775" lon="6.23465">
        <ele>364.8</ele>
        <time>2016-04-13T10:16:25Z</time>
      </trkpt>
      <trkpt lat="43.58774" lon="6.23466">
        <ele>368.1</ele>
        <time>2016-04-13T10:17:01Z</time>
      </trkpt>
      <trkpt lat="43.58771" lon="6.23474">
        <ele>370.7</ele>
        <time>2016-04-13T10:18:05Z</time>
      </trkpt>
      <trkpt lat="43.58772" lon="6.23477">
        <ele>371.4</ele>
        <time>2016-04-13T10:18:06Z</time>
      </trkpt>
      <trkpt lat="43.58776" lon="6.23484">
        <ele>377.2</ele>
        <time>2016-04-13T10:19:12Z</time>
      </trkpt>
      <trkpt lat="43.58776" lon="6.23485">
        <ele>377.3</ele>
        <time>2016-04-13T10:19:13Z</time>
      </trkpt>
      <trkpt lat="43.58776" lon="6.23486">
        <ele>378.4</ele>
        <time>2016-04-13T10:19:56Z</time>
      </trkpt>
      <trkpt lat="43.58773" lon="6.2349">
        <ele>377</ele>
        <time>2016-04-13T10:21:13Z</time>
      </trkpt>
      <trkpt lat="43.58772" lon="6.23491">
        <ele>376.8</ele>
        <time>2016-04-13T10:21:15Z</time>
      </trkpt>
      <trkpt lat="43.58769" lon="6.23499">
        <ele>384.8</ele>
        <time>2016-04-13T10:22:23Z</time>
      </trkpt>
      <trkpt lat="43.58769" lon="6.235">
        <ele>384.9</ele>
        <time>2016-04-13T10:22:24Z</time>
      </trkpt>
      <trkpt lat="43.58777" lon="6.2351">
        <ele>387.9</ele>
        <time>2016-04-13T10:23:20Z</time>
      </trkpt>
      <trkpt lat="43.58773" lon="6.23524">
        <ele>390.3</ele>
        <time>2016-04-13T10:24:03Z</time>
      </trkpt>
      <trkpt lat="43.58773" lon="6.23524">
        <ele>390.2</ele>
        <time>2016-04-13T10:24:04Z</time>
      </trkpt>
      <trkpt lat="43.58791" lon="6.23515">
        <ele>393.1</ele>
        <time>2016-04-13T10:24:43Z</time>
      </trkpt>
      <trkpt lat="43.58797" lon="6.23523">
        <ele>394.9</ele>
        <time>2016-04-13T10:25:04Z</time>
      </trkpt>
      <trkpt lat="43.58799" lon="6.23523">
        <ele>395</ele>
        <time>2016-04-13T10:25:05Z</time>
      </trkpt>
      <trkpt lat="43.58813" lon="6.23523">
        <ele>398.7</ele>
        <time>2016-04-13T10:26:08Z</time>
      </trkpt>
      <trkpt lat="43.58813" lon="6.23522">
        <ele>398.8</ele>
        <time>2016-04-13T10:26:09Z</time>
      </trkpt>
      <trkpt lat="43.5883" lon="6.23513">
        <ele>396.6</ele>
        <time>2016-04-13T10:26:31Z</time>
      </trkpt>
      <trkpt lat="43.58838" lon="6.23515">
        <ele>396.6</ele>
        <time>2016-04-13T10:26:40Z</time>
      </trkpt>
      <trkpt lat="43.58846" lon="6.23515">
        <ele>396.8</ele>
        <time>2016-04-13T10:26:50Z</time>
      </trkpt>
      <trkpt lat="43.58855" lon="6.23517">
        <ele>397.1</ele>
        <time>2016-04-13T10:27:07Z</time>
      </trkpt>
      <trkpt lat="43.58863" lon="6.23523">
        <ele>396</ele>
        <time>2016-04-13T10:27:19Z</time>
      </trkpt>
      <trkpt lat="43.58864" lon="6.23523">
        <ele>396</ele>
        <time>2016-04-13T10:27:20Z</time>
      </trkpt>
      <trkpt lat="43.58878" lon="6.23532">
        <ele>394</ele>
        <time>2016-04-13T10:27:44Z</time>
      </trkpt>
      <trkpt lat="43.58886" lon="6.23537">
        <ele>393.3</ele>
        <time>2016-04-13T10:27:59Z</time>
      </trkpt>
      <trkpt lat="43.58894" lon="6.2354">
        <ele>393.1</ele>
        <time>2016-04-13T10:28:06Z</time>
      </trkpt>
      <trkpt lat="43.58901" lon="6.23548">
        <ele>389.4</ele>
        <time>2016-04-13T10:28:19Z</time>
      </trkpt>
      <trkpt lat="43.58905" lon="6.23558">
        <ele>388.5</ele>
        <time>2016-04-13T10:28:29Z</time>
      </trkpt>
      <trkpt lat="43.58905" lon="6.2356">
        <ele>388.9</ele>
        <time>2016-04-13T10:28:30Z</time>
      </trkpt>
      <trkpt lat="43.58913" lon="6.23577">
        <ele>390.1</ele>
        <time>2016-04-13T10:28:45Z</time>
      </trkpt>
      <trkpt lat="43.58921" lon="6.23583">
        <ele>390.8</ele>
        <time>2016-04-13T10:28:53Z</time>
      </trkpt>
      <trkpt lat="43.58926" lon="6.23591">
        <ele>390.4</ele>
        <time>2016-04-13T10:29:01Z</time>
      </trkpt>
      <trkpt lat="43.58932" lon="6.23601">
        <ele>389.7</ele>
        <time>2016-04-13T10:29:09Z</time>
      </trkpt>
      <trkpt lat="43.58934" lon="6.23612">
        <ele>390.1</ele>
        <time>2016-04-13T10:29:16Z</time>
      </trkpt>
      <trkpt lat="43.58931" lon="6.23622">
        <ele>390.9</ele>
        <time>2016-04-13T10:29:23Z</time>
      </trkpt>
      <trkpt lat="43.58933" lon="6.23634">
        <ele>391.8</ele>
        <time>2016-04-13T10:29:31Z</time>
      </trkpt>
      <trkpt lat="43.58934" lon="6.23635">
        <ele>391.9</ele>
        <time>2016-04-13T10:29:32Z</time>
      </trkpt>
      <trkpt lat="43.58934" lon="6.23658">
        <ele>391.7</ele>
        <time>2016-04-13T10:29:46Z</time>
      </trkpt>
      <trkpt lat="43.58939" lon="6.23667">
        <ele>391.5</ele>
        <time>2016-04-13T10:29:53Z</time>
      </trkpt>
      <trkpt lat="43.58937" lon="6.23678">
        <ele>391.2</ele>
        <time>2016-04-13T10:30:01Z</time>
      </trkpt>
      <trkpt lat="43.58945" lon="6.23685">
        <ele>390.2</ele>
        <time>2016-04-13T10:30:24Z</time>
      </trkpt>
      <trkpt lat="43.58943" lon="6.23696">
        <ele>391.1</ele>
        <time>2016-04-13T10:31:19Z</time>
      </trkpt>
      <trkpt lat="43.58943" lon="6.23697">
        <ele>390.6</ele>
        <time>2016-04-13T10:31:20Z</time>
      </trkpt>
      <trkpt lat="43.58945" lon="6.23719">
        <ele>386.6</ele>
        <time>2016-04-13T10:31:38Z</time>
      </trkpt>
      <trkpt lat="43.58947" lon="6.2373">
        <ele>386</ele>
        <time>2016-04-13T10:31:46Z</time>
      </trkpt>
      <trkpt lat="43.58947" lon="6.23741">
        <ele>385.6</ele>
        <time>2016-04-13T10:32:00Z</time>
      </trkpt>
      <trkpt lat="43.58947" lon="6.23753">
        <ele>386.2</ele>
        <time>2016-04-13T10:32:10Z</time>
      </trkpt>
      <trkpt lat="43.58946" lon="6.23764">
        <ele>384.8</ele>
        <time>2016-04-13T10:32:19Z</time>
      </trkpt>
      <trkpt lat="43.58947" lon="6.23776">
        <ele>382.7</ele>
        <time>2016-04-13T10:32:27Z</time>
      </trkpt>
      <trkpt lat="43.58947" lon="6.23778">
        <ele>383.1</ele>
        <time>2016-04-13T10:32:28Z</time>
      </trkpt>
      <trkpt lat="43.58947" lon="6.23799">
        <ele>382.1</ele>
        <time>2016-04-13T10:32:43Z</time>
      </trkpt>
      <trkpt lat="43.58951" lon="6.2381">
        <ele>382.1</ele>
        <time>2016-04-13T10:32:50Z</time>
      </trkpt>
      <trkpt lat="43.58951" lon="6.2382">
        <ele>381.9</ele>
        <time>2016-04-13T10:32:56Z</time>
      </trkpt>
      <trkpt lat="43.58954" lon="6.23831">
        <ele>381</ele>
        <time>2016-04-13T10:33:01Z</time>
      </trkpt>
      <trkpt lat="43.58958" lon="6.23841">
        <ele>381</ele>
        <time>2016-04-13T10:33:09Z</time>
      </trkpt>
      <trkpt lat="43.58964" lon="6.23848">
        <ele>379.5</ele>
        <time>2016-04-13T10:33:19Z</time>
      </trkpt>
      <trkpt lat="43.58969" lon="6.23857">
        <ele>378.7</ele>
        <time>2016-04-13T10:33:25Z</time>
      </trkpt>
      <trkpt lat="43.58973" lon="6.23865">
        <ele>381</ele>
        <time>2016-04-13T11:29:15Z</time>
      </trkpt>
      <trkpt lat="43.58977" lon="6.23875">
        <ele>378.1</ele>
        <time>2016-04-13T11:29:30Z</time>
      </trkpt>
      <trkpt lat="43.58978" lon="6.23875">
        <ele>377.8</ele>
        <time>2016-04-13T11:29:31Z</time>
      </trkpt>
      <trkpt lat="43.58993" lon="6.2388">
        <ele>378.8</ele>
        <time>2016-04-13T11:29:50Z</time>
      </trkpt>
      <trkpt lat="43.59001" lon="6.2388">
        <ele>379.2</ele>
        <time>2016-04-13T11:30:06Z</time>
      </trkpt>
      <trkpt lat="43.59009" lon="6.23882">
        <ele>380.2</ele>
        <time>2016-04-13T11:30:13Z</time>
      </trkpt>
      <trkpt lat="43.59017" lon="6.23882">
        <ele>379.6</ele>
        <time>2016-04-13T11:30:31Z</time>
      </trkpt>
      <trkpt lat="43.59018" lon="6.23883">
        <ele>379.8</ele>
        <time>2016-04-13T11:30:32Z</time>
      </trkpt>
      <trkpt lat="43.59032" lon="6.2388">
        <ele>381.8</ele>
        <time>2016-04-13T11:30:42Z</time>
      </trkpt>
      <trkpt lat="43.59041" lon="6.2388">
        <ele>381.2</ele>
        <time>2016-04-13T11:30:51Z</time>
      </trkpt>
      <trkpt lat="43.59046" lon="6.2389">
        <ele>383.4</ele>
        <time>2016-04-13T11:31:08Z</time>
      </trkpt>
      <trkpt lat="43.59051" lon="6.239">
        <ele>384.8</ele>
        <time>2016-04-13T11:31:17Z</time>
      </trkpt>
      <trkpt lat="43.59059" lon="6.23904">
        <ele>384.4</ele>
        <time>2016-04-13T11:31:28Z</time>
      </trkpt>
      <trkpt lat="43.59067" lon="6.23902">
        <ele>385.2</ele>
        <time>2016-04-13T11:31:41Z</time>
      </trkpt>
      <trkpt lat="43.59068" lon="6.23902">
        <ele>385.2</ele>
        <time>2016-04-13T11:31:42Z</time>
      </trkpt>
      <trkpt lat="43.59083" lon="6.23905">
        <ele>386.6</ele>
        <time>2016-04-13T11:32:07Z</time>
      </trkpt>
      <trkpt lat="43.59091" lon="6.23901">
        <ele>386.3</ele>
        <time>2016-04-13T11:32:15Z</time>
      </trkpt>
      <trkpt lat="43.591" lon="6.23899">
        <ele>386.7</ele>
        <time>2016-04-13T11:32:29Z</time>
      </trkpt>
      <trkpt lat="43.59107" lon="6.23891">
        <ele>387.1</ele>
        <time>2016-04-13T11:33:01Z</time>
      </trkpt>
      <trkpt lat="43.59107" lon="6.23891">
        <ele>386.7</ele>
        <time>2016-04-13T11:33:02Z</time>
      </trkpt>
      <trkpt lat="43.5912" lon="6.23875">
        <ele>387.1</ele>
        <time>2016-04-13T11:33:35Z</time>
      </trkpt>
      <trkpt lat="43.59128" lon="6.2387">
        <ele>388</ele>
        <time>2016-04-13T11:33:47Z</time>
      </trkpt>
      <trkpt lat="43.59136" lon="6.23864">
        <ele>387.5</ele>
        <time>2016-04-13T11:33:57Z</time>
      </trkpt>
      <trkpt lat="43.59142" lon="6.23857">
        <ele>388.1</ele>
        <time>2016-04-13T11:34:04Z</time>
      </trkpt>
      <trkpt lat="43.59143" lon="6.23857">
        <ele>388.2</ele>
        <time>2016-04-13T11:34:05Z</time>
      </trkpt>
      <trkpt lat="43.59159" lon="6.23855">
        <ele>391.6</ele>
        <time>2016-04-13T11:34:34Z</time>
      </trkpt>
      <trkpt lat="43.59163" lon="6.23844">
        <ele>394.3</ele>
        <time>2016-04-13T11:34:45Z</time>
      </trkpt>
      <trkpt lat="43.5917" lon="6.23838">
        <ele>396.4</ele>
        <time>2016-04-13T11:34:56Z</time>
      </trkpt>
      <trkpt lat="43.59174" lon="6.23827">
        <ele>396.4</ele>
        <time>2016-04-13T11:35:10Z</time>
      </trkpt>
      <trkpt lat="43.59174" lon="6.23825">
        <ele>396.6</ele>
        <time>2016-04-13T11:35:11Z</time>
      </trkpt>
      <trkpt lat="43.59179" lon="6.23805">
        <ele>398.3</ele>
        <time>2016-04-13T11:35:25Z</time>
      </trkpt>
      <trkpt lat="43.59184" lon="6.23795">
        <ele>398.5</ele>
        <time>2016-04-13T11:35:33Z</time>
      </trkpt>
      <trkpt lat="43.59186" lon="6.23785">
        <ele>398</ele>
        <time>2016-04-13T11:35:41Z</time>
      </trkpt>
      <trkpt lat="43.59191" lon="6.23774">
        <ele>397.9</ele>
        <time>2016-04-13T11:35:49Z</time>
      </trkpt>
      <trkpt lat="43.59193" lon="6.23762">
        <ele>396.4</ele>
        <time>2016-04-13T11:35:59Z</time>
      </trkpt>
      <trkpt lat="43.59198" lon="6.23753">
        <ele>395.8</ele>
        <time>2016-04-13T11:36:06Z</time>
      </trkpt>
      <trkpt lat="43.59204" lon="6.23745">
        <ele>395.7</ele>
        <time>2016-04-13T11:36:13Z</time>
      </trkpt>
      <trkpt lat="43.59205" lon="6.23744">
        <ele>395.7</ele>
        <time>2016-04-13T11:36:14Z</time>
      </trkpt>
      <trkpt lat="43.59217" lon="6.23732">
        <ele>396.3</ele>
        <time>2016-04-13T11:36:33Z</time>
      </trkpt>
      <trkpt lat="43.59224" lon="6.23725">
        <ele>397.1</ele>
        <time>2016-04-13T11:36:40Z</time>
      </trkpt>
      <trkpt lat="43.59231" lon="6.2372">
        <ele>397.2</ele>
        <time>2016-04-13T11:36:49Z</time>
      </trkpt>
      <trkpt lat="43.5924" lon="6.23718">
        <ele>398.2</ele>
        <time>2016-04-13T11:37:01Z</time>
      </trkpt>
      <trkpt lat="43.59249" lon="6.23719">
        <ele>400.4</ele>
        <time>2016-04-13T11:37:17Z</time>
      </trkpt>
      <trkpt lat="43.5925" lon="6.23719">
        <ele>400.7</ele>
        <time>2016-04-13T11:37:18Z</time>
      </trkpt>
      <trkpt lat="43.59263" lon="6.23709">
        <ele>400.5</ele>
        <time>2016-04-13T11:37:49Z</time>
      </trkpt>
      <trkpt lat="43.5927" lon="6.23703">
        <ele>399.7</ele>
        <time>2016-04-13T11:37:56Z</time>
      </trkpt>
      <trkpt lat="43.59275" lon="6.23694">
        <ele>399.9</ele>
        <time>2016-04-13T11:38:05Z</time>
      </trkpt>
      <trkpt lat="43.59282" lon="6.23687">
        <ele>400.5</ele>
        <time>2016-04-13T11:38:15Z</time>
      </trkpt>
      <trkpt lat="43.59289" lon="6.23687">
        <ele>400.8</ele>
        <time>2016-04-13T11:38:21Z</time>
      </trkpt>
      <trkpt lat="43.59291" lon="6.23687">
        <ele>400.8</ele>
        <time>2016-04-13T11:38:22Z</time>
      </trkpt>
      <trkpt lat="43.59306" lon="6.23678">
        <ele>401.8</ele>
        <time>2016-04-13T11:38:35Z</time>
      </trkpt>
      <trkpt lat="43.59312" lon="6.23672">
        <ele>401.8</ele>
        <time>2016-04-13T11:38:42Z</time>
      </trkpt>
      <trkpt lat="43.5932" lon="6.2367">
        <ele>402.6</ele>
        <time>2016-04-13T11:38:49Z</time>
      </trkpt>
      <trkpt lat="43.59328" lon="6.23671">
        <ele>401.5</ele>
        <time>2016-04-13T11:38:59Z</time>
      </trkpt>
      <trkpt lat="43.59335" lon="6.23663">
        <ele>402.1</ele>
        <time>2016-04-13T11:39:09Z</time>
      </trkpt>
      <trkpt lat="43.59341" lon="6.23657">
        <ele>401.9</ele>
        <time>2016-04-13T11:39:15Z</time>
      </trkpt>
      <trkpt lat="43.59348" lon="6.23651">
        <ele>403.2</ele>
        <time>2016-04-13T11:39:27Z</time>
      </trkpt>
      <trkpt lat="43.59349" lon="6.2365">
        <ele>403.4</ele>
        <time>2016-04-13T11:39:28Z</time>
      </trkpt>
      <trkpt lat="43.59361" lon="6.23637">
        <ele>403.3</ele>
        <time>2016-04-13T11:39:43Z</time>
      </trkpt>
      <trkpt lat="43.59369" lon="6.23635">
        <ele>404.1</ele>
        <time>2016-04-13T11:39:54Z</time>
      </trkpt>
      <trkpt lat="43.59378" lon="6.23636">
        <ele>405.8</ele>
        <time>2016-04-13T11:40:09Z</time>
      </trkpt>
      <trkpt lat="43.59386" lon="6.2364">
        <ele>405.3</ele>
        <time>2016-04-13T11:40:17Z</time>
      </trkpt>
      <trkpt lat="43.59394" lon="6.23642">
        <ele>404.1</ele>
        <time>2016-04-13T11:40:25Z</time>
      </trkpt>
      <trkpt lat="43.59403" lon="6.23643">
        <ele>403.8</ele>
        <time>2016-04-13T11:40:37Z</time>
      </trkpt>
      <trkpt lat="43.59403" lon="6.23644">
        <ele>403.6</ele>
        <time>2016-04-13T11:40:38Z</time>
      </trkpt>
      <trkpt lat="43.59419" lon="6.23648">
        <ele>402.7</ele>
        <time>2016-04-13T11:40:58Z</time>
      </trkpt>
      <trkpt lat="43.59424" lon="6.23657">
        <ele>404.9</ele>
        <time>2016-04-13T11:41:13Z</time>
      </trkpt>
      <trkpt lat="43.59416" lon="6.23656">
        <ele>406.7</ele>
        <time>2016-04-13T11:41:40Z</time>
      </trkpt>
      <trkpt lat="43.59415" lon="6.23655">
        <ele>407.2</ele>
        <time>2016-04-13T11:41:41Z</time>
      </trkpt>
      <trkpt lat="43.59407" lon="6.23671">
        <ele>411.1</ele>
        <time>2016-04-13T11:42:09Z</time>
      </trkpt>
      <trkpt lat="43.5941" lon="6.23683">
        <ele>411.4</ele>
        <time>2016-04-13T11:42:19Z</time>
      </trkpt>
      <trkpt lat="43.59412" lon="6.23694">
        <ele>413.1</ele>
        <time>2016-04-13T11:42:33Z</time>
      </trkpt>
      <trkpt lat="43.5941" lon="6.23706">
        <ele>416.4</ele>
        <time>2016-04-13T11:42:53Z</time>
      </trkpt>
      <trkpt lat="43.5941" lon="6.23707">
        <ele>416.2</ele>
        <time>2016-04-13T11:42:54Z</time>
      </trkpt>
      <trkpt lat="43.59418" lon="6.23724">
        <ele>414.8</ele>
        <time>2016-04-13T11:43:10Z</time>
      </trkpt>
      <trkpt lat="43.59421" lon="6.23735">
        <ele>416.2</ele>
        <time>2016-04-13T11:43:26Z</time>
      </trkpt>
      <trkpt lat="43.59426" lon="6.23746">
        <ele>420.1</ele>
        <time>2016-04-13T11:43:46Z</time>
      </trkpt>
      <trkpt lat="43.59433" lon="6.23752">
        <ele>420.7</ele>
        <time>2016-04-13T11:43:57Z</time>
      </trkpt>
      <trkpt lat="43.59434" lon="6.23751">
        <ele>420.9</ele>
        <time>2016-04-13T11:43:58Z</time>
      </trkpt>
      <trkpt lat="43.59446" lon="6.23741">
        <ele>419.4</ele>
        <time>2016-04-13T11:44:12Z</time>
      </trkpt>
      <trkpt lat="43.5945" lon="6.23731">
        <ele>418.8</ele>
        <time>2016-04-13T11:44:24Z</time>
      </trkpt>
      <trkpt lat="43.59457" lon="6.23725">
        <ele>419.6</ele>
        <time>2016-04-13T11:44:31Z</time>
      </trkpt>
      <trkpt lat="43.59456" lon="6.23737">
        <ele>426.9</ele>
        <time>2016-04-13T11:45:06Z</time>
      </trkpt>
      <trkpt lat="43.59457" lon="6.23738">
        <ele>427.4</ele>
        <time>2016-04-13T11:45:07Z</time>
      </trkpt>
      <trkpt lat="43.59473" lon="6.23742">
        <ele>429.6</ele>
        <time>2016-04-13T11:45:30Z</time>
      </trkpt>
      <trkpt lat="43.59481" lon="6.23746">
        <ele>430.6</ele>
        <time>2016-04-13T11:45:40Z</time>
      </trkpt>
      <trkpt lat="43.59487" lon="6.23753">
        <ele>432.5</ele>
        <time>2016-04-13T11:45:52Z</time>
      </trkpt>
      <trkpt lat="43.59495" lon="6.23758">
        <ele>432.4</ele>
        <time>2016-04-13T11:46:02Z</time>
      </trkpt>
      <trkpt lat="43.59496" lon="6.23746">
        <ele>432.9</ele>
        <time>2016-04-13T11:46:43Z</time>
      </trkpt>
      <trkpt lat="43.59496" lon="6.23745">
        <ele>433</ele>
        <time>2016-04-13T11:46:44Z</time>
      </trkpt>
      <trkpt lat="43.59508" lon="6.23757">
        <ele>433.7</ele>
        <time>2016-04-13T11:47:38Z</time>
      </trkpt>
      <trkpt lat="43.59514" lon="6.23766">
        <ele>435</ele>
        <time>2016-04-13T11:48:00Z</time>
      </trkpt>
      <trkpt lat="43.59514" lon="6.23767">
        <ele>435.2</ele>
        <time>2016-04-13T11:48:01Z</time>
      </trkpt>
      <trkpt lat="43.59527" lon="6.23778">
        <ele>435.7</ele>
        <time>2016-04-13T11:48:21Z</time>
      </trkpt>
      <trkpt lat="43.59533" lon="6.23788">
        <ele>435.9</ele>
        <time>2016-04-13T11:48:33Z</time>
      </trkpt>
      <trkpt lat="43.59538" lon="6.23797">
        <ele>436.3</ele>
        <time>2016-04-13T11:48:41Z</time>
      </trkpt>
      <trkpt lat="43.59543" lon="6.23807">
        <ele>436.8</ele>
        <time>2016-04-13T11:48:50Z</time>
      </trkpt>
      <trkpt lat="43.5955" lon="6.23813">
        <ele>437.8</ele>
        <time>2016-04-13T11:48:58Z</time>
      </trkpt>
      <trkpt lat="43.59556" lon="6.23821">
        <ele>439.8</ele>
        <time>2016-04-13T11:49:09Z</time>
      </trkpt>
      <trkpt lat="43.59557" lon="6.23823">
        <ele>440.1</ele>
        <time>2016-04-13T11:49:10Z</time>
      </trkpt>
      <trkpt lat="43.59568" lon="6.23839">
        <ele>441.1</ele>
        <time>2016-04-13T11:49:29Z</time>
      </trkpt>
      <trkpt lat="43.59574" lon="6.23847">
        <ele>443.3</ele>
        <time>2016-04-13T11:49:41Z</time>
      </trkpt>
      <trkpt lat="43.5958" lon="6.23852">
        <ele>443.6</ele>
        <time>2016-04-13T11:49:48Z</time>
      </trkpt>
      <trkpt lat="43.59588" lon="6.23856">
        <ele>442.6</ele>
        <time>2016-04-13T11:49:54Z</time>
      </trkpt>
      <trkpt lat="43.59595" lon="6.23863">
        <ele>442.2</ele>
        <time>2016-04-13T11:50:00Z</time>
      </trkpt>
      <trkpt lat="43.59601" lon="6.23871">
        <ele>443.2</ele>
        <time>2016-04-13T11:50:12Z</time>
      </trkpt>
      <trkpt lat="43.59603" lon="6.23872">
        <ele>443</ele>
        <time>2016-04-13T11:50:13Z</time>
      </trkpt>
      <trkpt lat="43.59616" lon="6.2388">
        <ele>439</ele>
        <time>2016-04-13T11:50:30Z</time>
      </trkpt>
      <trkpt lat="43.59624" lon="6.23885">
        <ele>437.3</ele>
        <time>2016-04-13T11:50:41Z</time>
      </trkpt>
      <trkpt lat="43.59632" lon="6.23886">
        <ele>437</ele>
        <time>2016-04-13T11:50:48Z</time>
      </trkpt>
      <trkpt lat="43.59641" lon="6.23885">
        <ele>435.4</ele>
        <time>2016-04-13T11:50:56Z</time>
      </trkpt>
      <trkpt lat="43.5965" lon="6.23883">
        <ele>434.2</ele>
        <time>2016-04-13T11:51:04Z</time>
      </trkpt>
      <trkpt lat="43.59658" lon="6.23881">
        <ele>434.2</ele>
        <time>2016-04-13T11:51:21Z</time>
      </trkpt>
      <trkpt lat="43.59659" lon="6.2388">
        <ele>434.1</ele>
        <time>2016-04-13T11:51:22Z</time>
      </trkpt>
      <trkpt lat="43.59674" lon="6.23876">
        <ele>435.8</ele>
        <time>2016-04-13T11:51:42Z</time>
      </trkpt>
      <trkpt lat="43.59683" lon="6.23874">
        <ele>437.3</ele>
        <time>2016-04-13T11:51:52Z</time>
      </trkpt>
      <trkpt lat="43.59691" lon="6.2388">
        <ele>436.8</ele>
        <time>2016-04-13T11:51:57Z</time>
      </trkpt>
      <trkpt lat="43.59698" lon="6.23887">
        <ele>435.7</ele>
        <time>2016-04-13T11:52:07Z</time>
      </trkpt>
      <trkpt lat="43.59701" lon="6.23898">
        <ele>434.7</ele>
        <time>2016-04-13T11:52:21Z</time>
      </trkpt>
      <trkpt lat="43.59708" lon="6.23904">
        <ele>435</ele>
        <time>2016-04-13T11:52:31Z</time>
      </trkpt>
      <trkpt lat="43.59709" lon="6.23904">
        <ele>435.4</ele>
        <time>2016-04-13T11:52:32Z</time>
      </trkpt>
      <trkpt lat="43.59725" lon="6.23899">
        <ele>435.6</ele>
        <time>2016-04-13T11:52:48Z</time>
      </trkpt>
      <trkpt lat="43.59733" lon="6.23893">
        <ele>435.6</ele>
        <time>2016-04-13T11:52:55Z</time>
      </trkpt>
      <trkpt lat="43.59741" lon="6.2389">
        <ele>435.2</ele>
        <time>2016-04-13T11:53:03Z</time>
      </trkpt>
      <trkpt lat="43.59749" lon="6.2389">
        <ele>435.9</ele>
        <time>2016-04-13T11:53:14Z</time>
      </trkpt>
      <trkpt lat="43.59758" lon="6.23892">
        <ele>437.6</ele>
        <time>2016-04-13T11:53:25Z</time>
      </trkpt>
      <trkpt lat="43.59765" lon="6.23896">
        <ele>436.7</ele>
        <time>2016-04-13T11:53:35Z</time>
      </trkpt>
      <trkpt lat="43.59767" lon="6.23897">
        <ele>436.1</ele>
        <time>2016-04-13T11:53:36Z</time>
      </trkpt>
      <trkpt lat="43.59773" lon="6.23916">
        <ele>434.9</ele>
        <time>2016-04-13T11:53:53Z</time>
      </trkpt>
      <trkpt lat="43.59778" lon="6.23926">
        <ele>435.2</ele>
        <time>2016-04-13T11:54:02Z</time>
      </trkpt>
      <trkpt lat="43.59781" lon="6.23937">
        <ele>434.7</ele>
        <time>2016-04-13T11:54:10Z</time>
      </trkpt>
      <trkpt lat="43.5978" lon="6.23949">
        <ele>434.1</ele>
        <time>2016-04-13T11:54:19Z</time>
      </trkpt>
      <trkpt lat="43.59786" lon="6.23958">
        <ele>434.3</ele>
        <time>2016-04-13T11:54:25Z</time>
      </trkpt>
      <trkpt lat="43.59791" lon="6.23968">
        <ele>434.3</ele>
        <time>2016-04-13T11:54:33Z</time>
      </trkpt>
      <trkpt lat="43.59793" lon="6.2398">
        <ele>433.9</ele>
        <time>2016-04-13T11:54:39Z</time>
      </trkpt>
      <trkpt lat="43.59793" lon="6.23981">
        <ele>433.7</ele>
        <time>2016-04-13T11:54:40Z</time>
      </trkpt>
      <trkpt lat="43.59803" lon="6.24">
        <ele>435.5</ele>
        <time>2016-04-13T11:54:54Z</time>
      </trkpt>
      <trkpt lat="43.59808" lon="6.24009">
        <ele>434.9</ele>
        <time>2016-04-13T11:55:01Z</time>
      </trkpt>
      <trkpt lat="43.59812" lon="6.2402">
        <ele>435.7</ele>
        <time>2016-04-13T11:55:08Z</time>
      </trkpt>
      <trkpt lat="43.59817" lon="6.24028">
        <ele>436.3</ele>
        <time>2016-04-13T11:55:14Z</time>
      </trkpt>
      <trkpt lat="43.59821" lon="6.24037">
        <ele>435.8</ele>
        <time>2016-04-13T11:55:21Z</time>
      </trkpt>
      <trkpt lat="43.59824" lon="6.24048">
        <ele>435.1</ele>
        <time>2016-04-13T11:55:29Z</time>
      </trkpt>
      <trkpt lat="43.59828" lon="6.24058">
        <ele>436</ele>
        <time>2016-04-13T11:55:36Z</time>
      </trkpt>
      <trkpt lat="43.59831" lon="6.24068">
        <ele>436.3</ele>
        <time>2016-04-13T11:55:42Z</time>
      </trkpt>
      <trkpt lat="43.59832" lon="6.24069">
        <ele>436.5</ele>
        <time>2016-04-13T11:55:43Z</time>
      </trkpt>
      <trkpt lat="43.59842" lon="6.24085">
        <ele>436.1</ele>
        <time>2016-04-13T11:55:54Z</time>
      </trkpt>
      <trkpt lat="43.59847" lon="6.24094">
        <ele>436.4</ele>
        <time>2016-04-13T11:56:01Z</time>
      </trkpt>
      <trkpt lat="43.59852" lon="6.24102">
        <ele>436.2</ele>
        <time>2016-04-13T11:56:08Z</time>
      </trkpt>
      <trkpt lat="43.59855" lon="6.24114">
        <ele>436.5</ele>
        <time>2016-04-13T11:56:15Z</time>
      </trkpt>
      <trkpt lat="43.59858" lon="6.24125">
        <ele>436.6</ele>
        <time>2016-04-13T11:56:28Z</time>
      </trkpt>
      <trkpt lat="43.59849" lon="6.24126">
        <ele>436.9</ele>
        <time>2016-04-13T11:58:52Z</time>
      </trkpt>
      <trkpt lat="43.59848" lon="6.24126">
        <ele>436.7</ele>
        <time>2016-04-13T11:58:53Z</time>
      </trkpt>
      <trkpt lat="43.59835" lon="6.24136">
        <ele>437.8</ele>
        <time>2016-04-13T11:59:09Z</time>
      </trkpt>
      <trkpt lat="43.59829" lon="6.24145">
        <ele>438.8</ele>
        <time>2016-04-13T11:59:15Z</time>
      </trkpt>
      <trkpt lat="43.59822" lon="6.2415">
        <ele>437.9</ele>
        <time>2016-04-13T11:59:24Z</time>
      </trkpt>
      <trkpt lat="43.59816" lon="6.24159">
        <ele>439.1</ele>
        <time>2016-04-13T11:59:33Z</time>
      </trkpt>
      <trkpt lat="43.59809" lon="6.24168">
        <ele>439.5</ele>
        <time>2016-04-13T11:59:41Z</time>
      </trkpt>
      <trkpt lat="43.59804" lon="6.24178">
        <ele>439.7</ele>
        <time>2016-04-13T11:59:48Z</time>
      </trkpt>
      <trkpt lat="43.598" lon="6.24188">
        <ele>441</ele>
        <time>2016-04-13T11:59:56Z</time>
      </trkpt>
      <trkpt lat="43.598" lon="6.24189">
        <ele>441.1</ele>
        <time>2016-04-13T11:59:57Z</time>
      </trkpt>
      <trkpt lat="43.59792" lon="6.24208">
        <ele>442.1</ele>
        <time>2016-04-13T12:00:15Z</time>
      </trkpt>
      <trkpt lat="43.59789" lon="6.2422">
        <ele>441.7</ele>
        <time>2016-04-13T12:00:24Z</time>
      </trkpt>
      <trkpt lat="43.59783" lon="6.24228">
        <ele>443.9</ele>
        <time>2016-04-13T12:00:33Z</time>
      </trkpt>
      <trkpt lat="43.59776" lon="6.24236">
        <ele>444.5</ele>
        <time>2016-04-13T12:00:42Z</time>
      </trkpt>
      <trkpt lat="43.59776" lon="6.24247">
        <ele>445.1</ele>
        <time>2016-04-13T12:00:53Z</time>
      </trkpt>
      <trkpt lat="43.59773" lon="6.24259">
        <ele>445.3</ele>
        <time>2016-04-13T12:01:05Z</time>
      </trkpt>
      <trkpt lat="43.59772" lon="6.24259">
        <ele>445.3</ele>
        <time>2016-04-13T12:01:06Z</time>
      </trkpt>
      <trkpt lat="43.59759" lon="6.24271">
        <ele>446.6</ele>
        <time>2016-04-13T12:01:21Z</time>
      </trkpt>
      <trkpt lat="43.59752" lon="6.24279">
        <ele>447.1</ele>
        <time>2016-04-13T12:01:29Z</time>
      </trkpt>
      <trkpt lat="43.59745" lon="6.24286">
        <ele>446.9</ele>
        <time>2016-04-13T12:01:36Z</time>
      </trkpt>
      <trkpt lat="43.59738" lon="6.24293">
        <ele>448.4</ele>
        <time>2016-04-13T12:01:45Z</time>
      </trkpt>
      <trkpt lat="43.59731" lon="6.24298">
        <ele>448.8</ele>
        <time>2016-04-13T12:01:53Z</time>
      </trkpt>
      <trkpt lat="43.59724" lon="6.24305">
        <ele>448</ele>
        <time>2016-04-13T12:02:02Z</time>
      </trkpt>
      <trkpt lat="43.5972" lon="6.24316">
        <ele>448.7</ele>
        <time>2016-04-13T12:02:08Z</time>
      </trkpt>
      <trkpt lat="43.5972" lon="6.24317">
        <ele>448.8</ele>
        <time>2016-04-13T12:02:09Z</time>
      </trkpt>
      <trkpt lat="43.59708" lon="6.24332">
        <ele>450.7</ele>
        <time>2016-04-13T12:02:22Z</time>
      </trkpt>
      <trkpt lat="43.59701" lon="6.24338">
        <ele>450.8</ele>
        <time>2016-04-13T12:02:30Z</time>
      </trkpt>
      <trkpt lat="43.59694" lon="6.24346">
        <ele>450.6</ele>
        <time>2016-04-13T12:02:37Z</time>
      </trkpt>
      <trkpt lat="43.59689" lon="6.24354">
        <ele>449.9</ele>
        <time>2016-04-13T12:02:44Z</time>
      </trkpt>
      <trkpt lat="43.59684" lon="6.24365">
        <ele>450.9</ele>
        <time>2016-04-13T12:02:52Z</time>
      </trkpt>
      <trkpt lat="43.59679" lon="6.24375">
        <ele>451.8</ele>
        <time>2016-04-13T12:03:00Z</time>
      </trkpt>
      <trkpt lat="43.59671" lon="6.24378">
        <ele>452</ele>
        <time>2016-04-13T12:03:17Z</time>
      </trkpt>
      <trkpt lat="43.5967" lon="6.24378">
        <ele>452.3</ele>
        <time>2016-04-13T12:03:18Z</time>
      </trkpt>
      <trkpt lat="43.59655" lon="6.24388">
        <ele>453.5</ele>
        <time>2016-04-13T12:03:30Z</time>
      </trkpt>
      <trkpt lat="43.59649" lon="6.24396">
        <ele>453.1</ele>
        <time>2016-04-13T12:03:37Z</time>
      </trkpt>
      <trkpt lat="43.59644" lon="6.24405">
        <ele>453.2</ele>
        <time>2016-04-13T12:03:44Z</time>
      </trkpt>
      <trkpt lat="43.5964" lon="6.24415">
        <ele>454.8</ele>
        <time>2016-04-13T12:03:51Z</time>
      </trkpt>
      <trkpt lat="43.59635" lon="6.24425">
        <ele>453.9</ele>
        <time>2016-04-13T12:03:58Z</time>
      </trkpt>
      <trkpt lat="43.59631" lon="6.24436">
        <ele>453.5</ele>
        <time>2016-04-13T12:04:05Z</time>
      </trkpt>
      <trkpt lat="43.59627" lon="6.24446">
        <ele>453.3</ele>
        <time>2016-04-13T12:04:14Z</time>
      </trkpt>
      <trkpt lat="43.59626" lon="6.24457">
        <ele>452.5</ele>
        <time>2016-04-13T12:04:21Z</time>
      </trkpt>
      <trkpt lat="43.59626" lon="6.2446">
        <ele>452.6</ele>
        <time>2016-04-13T12:04:22Z</time>
      </trkpt>
      <trkpt lat="43.59628" lon="6.24481">
        <ele>450.8</ele>
        <time>2016-04-13T12:04:41Z</time>
      </trkpt>
      <trkpt lat="43.59631" lon="6.24491">
        <ele>452</ele>
        <time>2016-04-13T12:04:51Z</time>
      </trkpt>
      <trkpt lat="43.59637" lon="6.24499">
        <ele>451.8</ele>
        <time>2016-04-13T12:04:58Z</time>
      </trkpt>
      <trkpt lat="43.59643" lon="6.24508">
        <ele>451.5</ele>
        <time>2016-04-13T12:05:06Z</time>
      </trkpt>
      <trkpt lat="43.5965" lon="6.24515">
        <ele>451.3</ele>
        <time>2016-04-13T12:05:14Z</time>
      </trkpt>
      <trkpt lat="43.59657" lon="6.2452">
        <ele>451.3</ele>
        <time>2016-04-13T12:05:21Z</time>
      </trkpt>
      <trkpt lat="43.59664" lon="6.24527">
        <ele>451.7</ele>
        <time>2016-04-13T12:05:28Z</time>
      </trkpt>
      <trkpt lat="43.59665" lon="6.24528">
        <ele>451.7</ele>
        <time>2016-04-13T12:05:29Z</time>
      </trkpt>
      <trkpt lat="43.59672" lon="6.24548">
        <ele>449.5</ele>
        <time>2016-04-13T12:05:45Z</time>
      </trkpt>
      <trkpt lat="43.59675" lon="6.24559">
        <ele>449</ele>
        <time>2016-04-13T12:05:53Z</time>
      </trkpt>
      <trkpt lat="43.59678" lon="6.24569">
        <ele>449</ele>
        <time>2016-04-13T12:06:01Z</time>
      </trkpt>
      <trkpt lat="43.5968" lon="6.2458">
        <ele>448.4</ele>
        <time>2016-04-13T12:06:08Z</time>
      </trkpt>
      <trkpt lat="43.59683" lon="6.24591">
        <ele>449.1</ele>
        <time>2016-04-13T12:06:14Z</time>
      </trkpt>
      <trkpt lat="43.59686" lon="6.24602">
        <ele>448.5</ele>
        <time>2016-04-13T12:06:21Z</time>
      </trkpt>
      <trkpt lat="43.59687" lon="6.24613">
        <ele>449.2</ele>
        <time>2016-04-13T12:06:28Z</time>
      </trkpt>
      <trkpt lat="43.59689" lon="6.24625">
        <ele>447.5</ele>
        <time>2016-04-13T12:06:36Z</time>
      </trkpt>
      <trkpt lat="43.59689" lon="6.24627">
        <ele>447.8</ele>
        <time>2016-04-13T12:06:37Z</time>
      </trkpt>
      <trkpt lat="43.59687" lon="6.24648">
        <ele>447.8</ele>
        <time>2016-04-13T12:06:49Z</time>
      </trkpt>
      <trkpt lat="43.59687" lon="6.2466">
        <ele>447.3</ele>
        <time>2016-04-13T12:06:57Z</time>
      </trkpt>
      <trkpt lat="43.59687" lon="6.24671">
        <ele>446.7</ele>
        <time>2016-04-13T12:07:04Z</time>
      </trkpt>
      <trkpt lat="43.59689" lon="6.24682">
        <ele>447.8</ele>
        <time>2016-04-13T12:07:10Z</time>
      </trkpt>
      <trkpt lat="43.59692" lon="6.24693">
        <ele>447.9</ele>
        <time>2016-04-13T12:07:18Z</time>
      </trkpt>
      <trkpt lat="43.59696" lon="6.24703">
        <ele>446.8</ele>
        <time>2016-04-13T12:07:25Z</time>
      </trkpt>
      <trkpt lat="43.597" lon="6.24714">
        <ele>446.2</ele>
        <time>2016-04-13T12:07:33Z</time>
      </trkpt>
      <trkpt lat="43.59701" lon="6.24725">
        <ele>444.4</ele>
        <time>2016-04-13T12:07:40Z</time>
      </trkpt>
      <trkpt lat="43.59701" lon="6.24727">
        <ele>444.5</ele>
        <time>2016-04-13T12:07:41Z</time>
      </trkpt>
      <trkpt lat="43.59707" lon="6.24747">
        <ele>444.2</ele>
        <time>2016-04-13T12:07:56Z</time>
      </trkpt>
      <trkpt lat="43.59711" lon="6.24758">
        <ele>442.7</ele>
        <time>2016-04-13T12:08:04Z</time>
      </trkpt>
      <trkpt lat="43.59713" lon="6.2477">
        <ele>441.5</ele>
        <time>2016-04-13T12:08:14Z</time>
      </trkpt>
      <trkpt lat="43.59711" lon="6.2478">
        <ele>441.2</ele>
        <time>2016-04-13T12:08:26Z</time>
      </trkpt>
      <trkpt lat="43.59707" lon="6.24791">
        <ele>439.1</ele>
        <time>2016-04-13T12:08:34Z</time>
      </trkpt>
      <trkpt lat="43.59705" lon="6.24802">
        <ele>440.4</ele>
        <time>2016-04-13T12:08:42Z</time>
      </trkpt>
      <trkpt lat="43.59704" lon="6.24803">
        <ele>440.3</ele>
        <time>2016-04-13T12:08:43Z</time>
      </trkpt>
      <trkpt lat="43.59702" lon="6.24824">
        <ele>439.1</ele>
        <time>2016-04-13T12:08:54Z</time>
      </trkpt>
      <trkpt lat="43.59706" lon="6.24834">
        <ele>439.1</ele>
        <time>2016-04-13T12:09:03Z</time>
      </trkpt>
      <trkpt lat="43.59708" lon="6.24846">
        <ele>437.4</ele>
        <time>2016-04-13T12:09:11Z</time>
      </trkpt>
      <trkpt lat="43.59708" lon="6.24858">
        <ele>437.7</ele>
        <time>2016-04-13T12:09:19Z</time>
      </trkpt>
      <trkpt lat="43.59709" lon="6.2487">
        <ele>438.6</ele>
        <time>2016-04-13T12:09:26Z</time>
      </trkpt>
      <trkpt lat="43.59711" lon="6.24882">
        <ele>438.1</ele>
        <time>2016-04-13T12:09:31Z</time>
      </trkpt>
      <trkpt lat="43.59715" lon="6.24893">
        <ele>439.5</ele>
        <time>2016-04-13T12:09:39Z</time>
      </trkpt>
      <trkpt lat="43.59722" lon="6.249">
        <ele>439.8</ele>
        <time>2016-04-13T12:09:47Z</time>
      </trkpt>
      <trkpt lat="43.59723" lon="6.24901">
        <ele>439.9</ele>
        <time>2016-04-13T12:09:48Z</time>
      </trkpt>
      <trkpt lat="43.59736" lon="6.24903">
        <ele>440.3</ele>
        <time>2016-04-13T12:10:51Z</time>
      </trkpt>
      <trkpt lat="43.59736" lon="6.24903">
        <ele>440.3</ele>
        <time>2016-04-13T12:10:52Z</time>
      </trkpt>
      <trkpt lat="43.59728" lon="6.24923">
        <ele>440.5</ele>
        <time>2016-04-13T12:11:18Z</time>
      </trkpt>
      <trkpt lat="43.59723" lon="6.24933">
        <ele>440.6</ele>
        <time>2016-04-13T12:11:26Z</time>
      </trkpt>
      <trkpt lat="43.59719" lon="6.24944">
        <ele>441.2</ele>
        <time>2016-04-13T12:11:37Z</time>
      </trkpt>
      <trkpt lat="43.5972" lon="6.24955">
        <ele>441.6</ele>
        <time>2016-04-13T12:11:46Z</time>
      </trkpt>
      <trkpt lat="43.59717" lon="6.24967">
        <ele>441.5</ele>
        <time>2016-04-13T12:11:54Z</time>
      </trkpt>
      <trkpt lat="43.59717" lon="6.24968">
        <ele>441.5</ele>
        <time>2016-04-13T12:11:55Z</time>
      </trkpt>
      <trkpt lat="43.59714" lon="6.24989">
        <ele>442.1</ele>
        <time>2016-04-13T12:12:18Z</time>
      </trkpt>
      <trkpt lat="43.59714" lon="6.25001">
        <ele>442.1</ele>
        <time>2016-04-13T12:12:28Z</time>
      </trkpt>
      <trkpt lat="43.59712" lon="6.25012">
        <ele>443.5</ele>
        <time>2016-04-13T12:12:36Z</time>
      </trkpt>
      <trkpt lat="43.59712" lon="6.25025">
        <ele>445.2</ele>
        <time>2016-04-13T12:12:48Z</time>
      </trkpt>
      <trkpt lat="43.5971" lon="6.25036">
        <ele>447.8</ele>
        <time>2016-04-13T12:13:00Z</time>
      </trkpt>
      <trkpt lat="43.5971" lon="6.25038">
        <ele>448</ele>
        <time>2016-04-13T12:13:01Z</time>
      </trkpt>
      <trkpt lat="43.59706" lon="6.25059">
        <ele>448.2</ele>
        <time>2016-04-13T12:13:20Z</time>
      </trkpt>
      <trkpt lat="43.59701" lon="6.25068">
        <ele>448.6</ele>
        <time>2016-04-13T12:13:30Z</time>
      </trkpt>
      <trkpt lat="43.59699" lon="6.2508">
        <ele>448.4</ele>
        <time>2016-04-13T12:13:41Z</time>
      </trkpt>
      <trkpt lat="43.59695" lon="6.2509">
        <ele>448.1</ele>
        <time>2016-04-13T12:13:50Z</time>
      </trkpt>
      <trkpt lat="43.59689" lon="6.25097">
        <ele>447.9</ele>
        <time>2016-04-13T12:13:57Z</time>
      </trkpt>
      <trkpt lat="43.59688" lon="6.25109">
        <ele>448</ele>
        <time>2016-04-13T12:14:05Z</time>
      </trkpt>
      <trkpt lat="43.59688" lon="6.2511">
        <ele>448.5</ele>
        <time>2016-04-13T12:14:06Z</time>
      </trkpt>
      <trkpt lat="43.59681" lon="6.2513">
        <ele>448.5</ele>
        <time>2016-04-13T12:14:21Z</time>
      </trkpt>
      <trkpt lat="43.59675" lon="6.25138">
        <ele>447.8</ele>
        <time>2016-04-13T12:14:27Z</time>
      </trkpt>
      <trkpt lat="43.59675" lon="6.2515">
        <ele>447.9</ele>
        <time>2016-04-13T12:14:37Z</time>
      </trkpt>
      <trkpt lat="43.59673" lon="6.25162">
        <ele>447.5</ele>
        <time>2016-04-13T12:14:45Z</time>
      </trkpt>
      <trkpt lat="43.5967" lon="6.25173">
        <ele>447.1</ele>
        <time>2016-04-13T12:14:51Z</time>
      </trkpt>
      <trkpt lat="43.59668" lon="6.25185">
        <ele>447.8</ele>
        <time>2016-04-13T12:14:59Z</time>
      </trkpt>
      <trkpt lat="43.59664" lon="6.25196">
        <ele>447.7</ele>
        <time>2016-04-13T12:15:07Z</time>
      </trkpt>
      <trkpt lat="43.59663" lon="6.25197">
        <ele>447.3</ele>
        <time>2016-04-13T12:15:08Z</time>
      </trkpt>
      <trkpt lat="43.59656" lon="6.25217">
        <ele>448.1</ele>
        <time>2016-04-13T12:15:22Z</time>
      </trkpt>
      <trkpt lat="43.59652" lon="6.25227">
        <ele>446.7</ele>
        <time>2016-04-13T12:15:31Z</time>
      </trkpt>
      <trkpt lat="43.59647" lon="6.25235">
        <ele>447</ele>
        <time>2016-04-13T12:15:38Z</time>
      </trkpt>
      <trkpt lat="43.59641" lon="6.25244">
        <ele>446.8</ele>
        <time>2016-04-13T12:15:45Z</time>
      </trkpt>
      <trkpt lat="43.59636" lon="6.25254">
        <ele>447.1</ele>
        <time>2016-04-13T12:15:52Z</time>
      </trkpt>
      <trkpt lat="43.59631" lon="6.25264">
        <ele>446.1</ele>
        <time>2016-04-13T12:16:00Z</time>
      </trkpt>
      <trkpt lat="43.59627" lon="6.25274">
        <ele>446</ele>
        <time>2016-04-13T12:16:09Z</time>
      </trkpt>
      <trkpt lat="43.59626" lon="6.25276">
        <ele>445.2</ele>
        <time>2016-04-13T12:16:10Z</time>
      </trkpt>
      <trkpt lat="43.59618" lon="6.25292">
        <ele>444</ele>
        <time>2016-04-13T12:16:21Z</time>
      </trkpt>
      <trkpt lat="43.59613" lon="6.25302">
        <ele>444.6</ele>
        <time>2016-04-13T12:16:28Z</time>
      </trkpt>
      <trkpt lat="43.59609" lon="6.25313">
        <ele>443</ele>
        <time>2016-04-13T12:16:36Z</time>
      </trkpt>
      <trkpt lat="43.59603" lon="6.25322">
        <ele>442.9</ele>
        <time>2016-04-13T12:16:44Z</time>
      </trkpt>
      <trkpt lat="43.59597" lon="6.2533">
        <ele>441.8</ele>
        <time>2016-04-13T12:16:54Z</time>
      </trkpt>
      <trkpt lat="43.5959" lon="6.25337">
        <ele>441.1</ele>
        <time>2016-04-13T12:17:04Z</time>
      </trkpt>
      <trkpt lat="43.59585" lon="6.25347">
        <ele>441</ele>
        <time>2016-04-13T12:17:12Z</time>
      </trkpt>
      <trkpt lat="43.59584" lon="6.25348">
        <ele>441.2</ele>
        <time>2016-04-13T12:17:13Z</time>
      </trkpt>
      <trkpt lat="43.59575" lon="6.25366">
        <ele>438.8</ele>
        <time>2016-04-13T12:17:31Z</time>
      </trkpt>
      <trkpt lat="43.59572" lon="6.25377">
        <ele>438.4</ele>
        <time>2016-04-13T12:17:39Z</time>
      </trkpt>
      <trkpt lat="43.59569" lon="6.25387">
        <ele>439.4</ele>
        <time>2016-04-13T12:17:46Z</time>
      </trkpt>
      <trkpt lat="43.59566" lon="6.25397">
        <ele>439.7</ele>
        <time>2016-04-13T12:17:53Z</time>
      </trkpt>
      <trkpt lat="43.59563" lon="6.25407">
        <ele>439.2</ele>
        <time>2016-04-13T12:18:00Z</time>
      </trkpt>
      <trkpt lat="43.59561" lon="6.25418">
        <ele>439.8</ele>
        <time>2016-04-13T12:18:08Z</time>
      </trkpt>
      <trkpt lat="43.59559" lon="6.25431">
        <ele>439</ele>
        <time>2016-04-13T12:18:19Z</time>
      </trkpt>
      <trkpt lat="43.59559" lon="6.25432">
        <ele>438.8</ele>
        <time>2016-04-13T12:18:20Z</time>
      </trkpt>
      <trkpt lat="43.59549" lon="6.25449">
        <ele>439.5</ele>
        <time>2016-04-13T12:18:36Z</time>
      </trkpt>
      <trkpt lat="43.59545" lon="6.2546">
        <ele>439.4</ele>
        <time>2016-04-13T12:18:44Z</time>
      </trkpt>
      <trkpt lat="43.59541" lon="6.2547">
        <ele>440.1</ele>
        <time>2016-04-13T12:18:52Z</time>
      </trkpt>
      <trkpt lat="43.59537" lon="6.25481">
        <ele>439.2</ele>
        <time>2016-04-13T12:19:00Z</time>
      </trkpt>
      <trkpt lat="43.59532" lon="6.2549">
        <ele>439.3</ele>
        <time>2016-04-13T12:19:07Z</time>
      </trkpt>
      <trkpt lat="43.59526" lon="6.25498">
        <ele>440.4</ele>
        <time>2016-04-13T12:19:15Z</time>
      </trkpt>
      <trkpt lat="43.59519" lon="6.25503">
        <ele>439.6</ele>
        <time>2016-04-13T12:19:26Z</time>
      </trkpt>
      <trkpt lat="43.59518" lon="6.25505">
        <ele>439.1</ele>
        <time>2016-04-13T12:19:27Z</time>
      </trkpt>
      <trkpt lat="43.59507" lon="6.2552">
        <ele>439.1</ele>
        <time>2016-04-13T12:19:41Z</time>
      </trkpt>
      <trkpt lat="43.595" lon="6.25524">
        <ele>439.3</ele>
        <time>2016-04-13T12:19:49Z</time>
      </trkpt>
      <trkpt lat="43.59492" lon="6.25529">
        <ele>439</ele>
        <time>2016-04-13T12:19:58Z</time>
      </trkpt>
      <trkpt lat="43.59484" lon="6.25534">
        <ele>438.2</ele>
        <time>2016-04-13T12:20:07Z</time>
      </trkpt>
      <trkpt lat="43.59477" lon="6.25542">
        <ele>436.8</ele>
        <time>2016-04-13T12:20:20Z</time>
      </trkpt>
      <trkpt lat="43.59472" lon="6.2555">
        <ele>435.3</ele>
        <time>2016-04-13T12:20:30Z</time>
      </trkpt>
      <trkpt lat="43.59471" lon="6.25551">
        <ele>435.1</ele>
        <time>2016-04-13T12:20:31Z</time>
      </trkpt>
      <trkpt lat="43.59459" lon="6.25562">
        <ele>434.4</ele>
        <time>2016-04-13T12:21:01Z</time>
      </trkpt>
      <trkpt lat="43.59456" lon="6.25573">
        <ele>435.7</ele>
        <time>2016-04-13T12:21:23Z</time>
      </trkpt>
      <trkpt lat="43.5945" lon="6.25582">
        <ele>437.1</ele>
        <time>2016-04-13T12:21:36Z</time>
      </trkpt>
      <trkpt lat="43.5945" lon="6.25583">
        <ele>437.2</ele>
        <time>2016-04-13T12:21:37Z</time>
      </trkpt>
      <trkpt lat="43.59442" lon="6.25602">
        <ele>438.4</ele>
        <time>2016-04-13T12:21:55Z</time>
      </trkpt>
      <trkpt lat="43.59435" lon="6.25608">
        <ele>438.3</ele>
        <time>2016-04-13T12:22:04Z</time>
      </trkpt>
      <trkpt lat="43.59432" lon="6.25618">
        <ele>437.9</ele>
        <time>2016-04-13T12:22:13Z</time>
      </trkpt>
      <trkpt lat="43.59426" lon="6.25624">
        <ele>439.2</ele>
        <time>2016-04-13T12:22:22Z</time>
      </trkpt>
      <trkpt lat="43.5942" lon="6.25633">
        <ele>440.6</ele>
        <time>2016-04-13T12:22:28Z</time>
      </trkpt>
      <trkpt lat="43.59414" lon="6.25642">
        <ele>441.2</ele>
        <time>2016-04-13T12:22:35Z</time>
      </trkpt>
      <trkpt lat="43.59406" lon="6.25646">
        <ele>441.3</ele>
        <time>2016-04-13T12:22:44Z</time>
      </trkpt>
      <trkpt lat="43.59405" lon="6.25647">
        <ele>441.8</ele>
        <time>2016-04-13T12:22:45Z</time>
      </trkpt>
      <trkpt lat="43.59393" lon="6.25661">
        <ele>441.8</ele>
        <time>2016-04-13T12:23:00Z</time>
      </trkpt>
      <trkpt lat="43.59387" lon="6.25669">
        <ele>441.5</ele>
        <time>2016-04-13T12:23:12Z</time>
      </trkpt>
      <trkpt lat="43.59385" lon="6.25681">
        <ele>442</ele>
        <time>2016-04-13T12:24:53Z</time>
      </trkpt>
      <trkpt lat="43.59384" lon="6.25681">
        <ele>441.8</ele>
        <time>2016-04-13T12:24:54Z</time>
      </trkpt>
      <trkpt lat="43.59369" lon="6.25688">
        <ele>441.9</ele>
        <time>2016-04-13T12:25:21Z</time>
      </trkpt>
      <trkpt lat="43.59362" lon="6.25695">
        <ele>441.7</ele>
        <time>2016-04-13T12:25:29Z</time>
      </trkpt>
      <trkpt lat="43.59356" lon="6.25703">
        <ele>442.9</ele>
        <time>2016-04-13T12:25:38Z</time>
      </trkpt>
      <trkpt lat="43.59349" lon="6.25709">
        <ele>441.7</ele>
        <time>2016-04-13T12:25:51Z</time>
      </trkpt>
      <trkpt lat="43.59342" lon="6.25716">
        <ele>442.9</ele>
        <time>2016-04-13T12:26:00Z</time>
      </trkpt>
      <trkpt lat="43.59341" lon="6.25717">
        <ele>442.8</ele>
        <time>2016-04-13T12:26:01Z</time>
      </trkpt>
      <trkpt lat="43.59328" lon="6.2573">
        <ele>442.8</ele>
        <time>2016-04-13T12:26:14Z</time>
      </trkpt>
      <trkpt lat="43.59321" lon="6.25736">
        <ele>442.4</ele>
        <time>2016-04-13T12:26:20Z</time>
      </trkpt>
      <trkpt lat="43.59314" lon="6.25741">
        <ele>442.2</ele>
        <time>2016-04-13T12:26:25Z</time>
      </trkpt>
      <trkpt lat="43.59306" lon="6.25746">
        <ele>441.7</ele>
        <time>2016-04-13T12:26:32Z</time>
      </trkpt>
      <trkpt lat="43.59302" lon="6.25755">
        <ele>442</ele>
        <time>2016-04-13T12:26:38Z</time>
      </trkpt>
      <trkpt lat="43.59297" lon="6.25765">
        <ele>441.8</ele>
        <time>2016-04-13T12:26:50Z</time>
      </trkpt>
      <trkpt lat="43.5929" lon="6.25772">
        <ele>442.6</ele>
        <time>2016-04-13T12:26:57Z</time>
      </trkpt>
      <trkpt lat="43.59283" lon="6.2578">
        <ele>442.5</ele>
        <time>2016-04-13T12:27:04Z</time>
      </trkpt>
      <trkpt lat="43.59283" lon="6.25781">
        <ele>442.9</ele>
        <time>2016-04-13T12:27:05Z</time>
      </trkpt>
      <trkpt lat="43.59273" lon="6.25796">
        <ele>444.9</ele>
        <time>2016-04-13T12:27:19Z</time>
      </trkpt>
      <trkpt lat="43.59266" lon="6.25803">
        <ele>444.8</ele>
        <time>2016-04-13T12:27:27Z</time>
      </trkpt>
      <trkpt lat="43.5926" lon="6.2581">
        <ele>446.2</ele>
        <time>2016-04-13T12:27:34Z</time>
      </trkpt>
      <trkpt lat="43.59253" lon="6.25817">
        <ele>446.8</ele>
        <time>2016-04-13T12:27:43Z</time>
      </trkpt>
      <trkpt lat="43.59247" lon="6.25826">
        <ele>447.3</ele>
        <time>2016-04-13T12:27:51Z</time>
      </trkpt>
      <trkpt lat="43.59242" lon="6.25835">
        <ele>447.1</ele>
        <time>2016-04-13T12:28:03Z</time>
      </trkpt>
      <trkpt lat="43.59236" lon="6.25843">
        <ele>447.1</ele>
        <time>2016-04-13T12:28:10Z</time>
      </trkpt>
      <trkpt lat="43.59235" lon="6.25844">
        <ele>447.5</ele>
        <time>2016-04-13T12:28:11Z</time>
      </trkpt>
      <trkpt lat="43.59223" lon="6.25857">
        <ele>447.9</ele>
        <time>2016-04-13T12:28:24Z</time>
      </trkpt>
      <trkpt lat="43.59217" lon="6.25866">
        <ele>448.4</ele>
        <time>2016-04-13T12:28:30Z</time>
      </trkpt>
      <trkpt lat="43.59211" lon="6.25873">
        <ele>447.7</ele>
        <time>2016-04-13T12:28:36Z</time>
      </trkpt>
      <trkpt lat="43.59206" lon="6.25881">
        <ele>448.1</ele>
        <time>2016-04-13T12:28:41Z</time>
      </trkpt>
      <trkpt lat="43.59199" lon="6.25889">
        <ele>448.2</ele>
        <time>2016-04-13T12:28:48Z</time>
      </trkpt>
      <trkpt lat="43.59193" lon="6.25897">
        <ele>448.7</ele>
        <time>2016-04-13T12:28:55Z</time>
      </trkpt>
      <trkpt lat="43.59187" lon="6.25906">
        <ele>448.7</ele>
        <time>2016-04-13T12:29:03Z</time>
      </trkpt>
      <trkpt lat="43.59181" lon="6.25913">
        <ele>449.3</ele>
        <time>2016-04-13T12:29:09Z</time>
      </trkpt>
      <trkpt lat="43.59175" lon="6.25922">
        <ele>450.2</ele>
        <time>2016-04-13T12:29:16Z</time>
      </trkpt>
      <trkpt lat="43.59174" lon="6.25923">
        <ele>450.4</ele>
        <time>2016-04-13T12:29:17Z</time>
      </trkpt>
      <trkpt lat="43.59161" lon="6.25935">
        <ele>450.5</ele>
        <time>2016-04-13T12:29:31Z</time>
      </trkpt>
      <trkpt lat="43.59155" lon="6.25943">
        <ele>449.9</ele>
        <time>2016-04-13T12:29:39Z</time>
      </trkpt>
      <trkpt lat="43.59149" lon="6.25953">
        <ele>450.3</ele>
        <time>2016-04-13T12:29:47Z</time>
      </trkpt>
      <trkpt lat="43.59144" lon="6.25961">
        <ele>450.9</ele>
        <time>2016-04-13T12:29:54Z</time>
      </trkpt>
      <trkpt lat="43.59138" lon="6.25969">
        <ele>450.7</ele>
        <time>2016-04-13T12:30:03Z</time>
      </trkpt>
      <trkpt lat="43.59132" lon="6.25978">
        <ele>451.5</ele>
        <time>2016-04-13T12:30:11Z</time>
      </trkpt>
      <trkpt lat="43.59125" lon="6.25986">
        <ele>451.3</ele>
        <time>2016-04-13T12:30:19Z</time>
      </trkpt>
      <trkpt lat="43.59124" lon="6.25988">
        <ele>451.2</ele>
        <time>2016-04-13T12:30:20Z</time>
      </trkpt>
      <trkpt lat="43.59112" lon="6.26001">
        <ele>451.5</ele>
        <time>2016-04-13T12:30:33Z</time>
      </trkpt>
      <trkpt lat="43.59106" lon="6.26007">
        <ele>452.1</ele>
        <time>2016-04-13T12:30:41Z</time>
      </trkpt>
      <trkpt lat="43.59098" lon="6.26013">
        <ele>452.7</ele>
        <time>2016-04-13T12:30:48Z</time>
      </trkpt>
      <trkpt lat="43.59092" lon="6.26021">
        <ele>454.4</ele>
        <time>2016-04-13T12:30:56Z</time>
      </trkpt>
      <trkpt lat="43.59086" lon="6.2603">
        <ele>454.8</ele>
        <time>2016-04-13T12:31:06Z</time>
      </trkpt>
      <trkpt lat="43.5908" lon="6.26038">
        <ele>456.7</ele>
        <time>2016-04-13T12:31:14Z</time>
      </trkpt>
      <trkpt lat="43.59073" lon="6.26046">
        <ele>457.1</ele>
        <time>2016-04-13T12:31:20Z</time>
      </trkpt>
      <trkpt lat="43.59072" lon="6.26046">
        <ele>456.3</ele>
        <time>2016-04-13T12:31:21Z</time>
      </trkpt>
      <trkpt lat="43.59061" lon="6.26062">
        <ele>459.9</ele>
        <time>2016-04-13T12:31:39Z</time>
      </trkpt>
      <trkpt lat="43.59054" lon="6.26069">
        <ele>459</ele>
        <time>2016-04-13T12:31:47Z</time>
      </trkpt>
      <trkpt lat="43.59048" lon="6.26076">
        <ele>460.4</ele>
        <time>2016-04-13T12:31:54Z</time>
      </trkpt>
      <trkpt lat="43.59042" lon="6.26084">
        <ele>459.2</ele>
        <time>2016-04-13T12:32:01Z</time>
      </trkpt>
      <trkpt lat="43.59038" lon="6.26094">
        <ele>460.9</ele>
        <time>2016-04-13T12:32:08Z</time>
      </trkpt>
      <trkpt lat="43.59034" lon="6.26105">
        <ele>459.9</ele>
        <time>2016-04-13T12:32:16Z</time>
      </trkpt>
      <trkpt lat="43.59029" lon="6.26114">
        <ele>459.7</ele>
        <time>2016-04-13T12:32:23Z</time>
      </trkpt>
      <trkpt lat="43.59028" lon="6.26115">
        <ele>459.9</ele>
        <time>2016-04-13T12:32:24Z</time>
      </trkpt>
      <trkpt lat="43.59015" lon="6.26127">
        <ele>459.3</ele>
        <time>2016-04-13T12:33:13Z</time>
      </trkpt>
      <trkpt lat="43.59007" lon="6.26128">
        <ele>458.7</ele>
        <time>2016-04-13T12:37:45Z</time>
      </trkpt>
      <trkpt lat="43.59006" lon="6.26128">
        <ele>458.7</ele>
        <time>2016-04-13T12:37:46Z</time>
      </trkpt>
      <trkpt lat="43.58993" lon="6.26117">
        <ele>459.2</ele>
        <time>2016-04-13T12:37:59Z</time>
      </trkpt>
      <trkpt lat="43.58986" lon="6.26111">
        <ele>459.4</ele>
        <time>2016-04-13T12:38:05Z</time>
      </trkpt>
      <trkpt lat="43.58979" lon="6.26105">
        <ele>459.1</ele>
        <time>2016-04-13T12:38:15Z</time>
      </trkpt>
      <trkpt lat="43.58972" lon="6.26096">
        <ele>459.6</ele>
        <time>2016-04-13T12:38:23Z</time>
      </trkpt>
      <trkpt lat="43.58965" lon="6.26089">
        <ele>459.3</ele>
        <time>2016-04-13T12:38:30Z</time>
      </trkpt>
      <trkpt lat="43.58964" lon="6.26077">
        <ele>458.7</ele>
        <time>2016-04-13T12:38:38Z</time>
      </trkpt>
      <trkpt lat="43.58963" lon="6.26065">
        <ele>457</ele>
        <time>2016-04-13T12:38:47Z</time>
      </trkpt>
      <trkpt lat="43.58964" lon="6.26063">
        <ele>456.9</ele>
        <time>2016-04-13T12:38:48Z</time>
      </trkpt>
      <trkpt lat="43.58956" lon="6.26047">
        <ele>457.6</ele>
        <time>2016-04-13T12:39:01Z</time>
      </trkpt>
      <trkpt lat="43.58951" lon="6.26037">
        <ele>456.4</ele>
        <time>2016-04-13T12:39:37Z</time>
      </trkpt>
      <trkpt lat="43.58943" lon="6.26033">
        <ele>455.7</ele>
        <time>2016-04-13T12:39:50Z</time>
      </trkpt>
      <trkpt lat="43.58942" lon="6.26032">
        <ele>455.9</ele>
        <time>2016-04-13T12:39:51Z</time>
      </trkpt>
      <trkpt lat="43.58929" lon="6.26022">
        <ele>455.3</ele>
        <time>2016-04-13T12:40:05Z</time>
      </trkpt>
      <trkpt lat="43.58922" lon="6.26014">
        <ele>455.6</ele>
        <time>2016-04-13T12:40:13Z</time>
      </trkpt>
      <trkpt lat="43.58915" lon="6.2601">
        <ele>453.1</ele>
        <time>2016-04-13T12:40:19Z</time>
      </trkpt>
      <trkpt lat="43.58906" lon="6.26009">
        <ele>453</ele>
        <time>2016-04-13T12:40:26Z</time>
      </trkpt>
      <trkpt lat="43.58898" lon="6.26007">
        <ele>452.9</ele>
        <time>2016-04-13T12:40:36Z</time>
      </trkpt>
      <trkpt lat="43.58891" lon="6.26">
        <ele>451.4</ele>
        <time>2016-04-13T12:40:45Z</time>
      </trkpt>
      <trkpt lat="43.58889" lon="6.25988">
        <ele>451.7</ele>
        <time>2016-04-13T12:40:53Z</time>
      </trkpt>
      <trkpt lat="43.58887" lon="6.25987">
        <ele>451.7</ele>
        <time>2016-04-13T12:40:54Z</time>
      </trkpt>
      <trkpt lat="43.58876" lon="6.25975">
        <ele>450.9</ele>
        <time>2016-04-13T12:41:06Z</time>
      </trkpt>
      <trkpt lat="43.58867" lon="6.25974">
        <ele>450.5</ele>
        <time>2016-04-13T12:41:12Z</time>
      </trkpt>
      <trkpt lat="43.58859" lon="6.25974">
        <ele>450.9</ele>
        <time>2016-04-13T12:41:18Z</time>
      </trkpt>
      <trkpt lat="43.58851" lon="6.25977">
        <ele>448.9</ele>
        <time>2016-04-13T12:41:24Z</time>
      </trkpt>
      <trkpt lat="43.58842" lon="6.25973">
        <ele>449.7</ele>
        <time>2016-04-13T12:41:32Z</time>
      </trkpt>
      <trkpt lat="43.58835" lon="6.25969">
        <ele>448.9</ele>
        <time>2016-04-13T12:41:41Z</time>
      </trkpt>
      <trkpt lat="43.58828" lon="6.25962">
        <ele>449.5</ele>
        <time>2016-04-13T12:41:49Z</time>
      </trkpt>
      <trkpt lat="43.5882" lon="6.2596">
        <ele>448.9</ele>
        <time>2016-04-13T12:41:58Z</time>
      </trkpt>
      <trkpt lat="43.58819" lon="6.2596">
        <ele>448.7</ele>
        <time>2016-04-13T12:41:59Z</time>
      </trkpt>
      <trkpt lat="43.58805" lon="6.25962">
        <ele>447.2</ele>
        <time>2016-04-13T12:42:33Z</time>
      </trkpt>
      <trkpt lat="43.58796" lon="6.25963">
        <ele>447.7</ele>
        <time>2016-04-13T12:42:42Z</time>
      </trkpt>
      <trkpt lat="43.58788" lon="6.25959">
        <ele>447.1</ele>
        <time>2016-04-13T12:42:51Z</time>
      </trkpt>
      <trkpt lat="43.58782" lon="6.25951">
        <ele>447.9</ele>
        <time>2016-04-13T12:43:02Z</time>
      </trkpt>
      <trkpt lat="43.58781" lon="6.2595">
        <ele>447.9</ele>
        <time>2016-04-13T12:43:03Z</time>
      </trkpt>
      <trkpt lat="43.58766" lon="6.2594">
        <ele>447.4</ele>
        <time>2016-04-13T12:43:20Z</time>
      </trkpt>
      <trkpt lat="43.58759" lon="6.25934">
        <ele>448.4</ele>
        <time>2016-04-13T12:43:28Z</time>
      </trkpt>
      <trkpt lat="43.58754" lon="6.25924">
        <ele>447.8</ele>
        <time>2016-04-13T12:43:36Z</time>
      </trkpt>
      <trkpt lat="43.5875" lon="6.25913">
        <ele>448.7</ele>
        <time>2016-04-13T12:43:45Z</time>
      </trkpt>
      <trkpt lat="43.58744" lon="6.25906">
        <ele>448.3</ele>
        <time>2016-04-13T12:43:50Z</time>
      </trkpt>
      <trkpt lat="43.58735" lon="6.25903">
        <ele>449.6</ele>
        <time>2016-04-13T12:43:57Z</time>
      </trkpt>
      <trkpt lat="43.58727" lon="6.25897">
        <ele>449.1</ele>
        <time>2016-04-13T12:44:03Z</time>
      </trkpt>
      <trkpt lat="43.58726" lon="6.25895">
        <ele>449.7</ele>
        <time>2016-04-13T12:44:04Z</time>
      </trkpt>
      <trkpt lat="43.58712" lon="6.25888">
        <ele>449.9</ele>
        <time>2016-04-13T12:44:14Z</time>
      </trkpt>
      <trkpt lat="43.58705" lon="6.25882">
        <ele>448.7</ele>
        <time>2016-04-13T12:44:21Z</time>
      </trkpt>
      <trkpt lat="43.58704" lon="6.2587">
        <ele>447.9</ele>
        <time>2016-04-13T12:44:30Z</time>
      </trkpt>
      <trkpt lat="43.58707" lon="6.25859">
        <ele>447.2</ele>
        <time>2016-04-13T12:44:38Z</time>
      </trkpt>
      <trkpt lat="43.58707" lon="6.25846">
        <ele>448.1</ele>
        <time>2016-04-13T12:44:45Z</time>
      </trkpt>
      <trkpt lat="43.587" lon="6.2584">
        <ele>446.7</ele>
        <time>2016-04-13T12:44:50Z</time>
      </trkpt>
      <trkpt lat="43.58693" lon="6.25833">
        <ele>447.3</ele>
        <time>2016-04-13T12:44:57Z</time>
      </trkpt>
      <trkpt lat="43.5869" lon="6.25823">
        <ele>446.7</ele>
        <time>2016-04-13T12:45:06Z</time>
      </trkpt>
      <trkpt lat="43.5869" lon="6.25821">
        <ele>446.6</ele>
        <time>2016-04-13T12:45:07Z</time>
      </trkpt>
      <trkpt lat="43.58688" lon="6.258">
        <ele>446.8</ele>
        <time>2016-04-13T12:45:20Z</time>
      </trkpt>
      <trkpt lat="43.58685" lon="6.25789">
        <ele>447.6</ele>
        <time>2016-04-13T12:45:27Z</time>
      </trkpt>
      <trkpt lat="43.58682" lon="6.25779">
        <ele>447.5</ele>
        <time>2016-04-13T12:45:33Z</time>
      </trkpt>
      <trkpt lat="43.58676" lon="6.2577">
        <ele>448</ele>
        <time>2016-04-13T12:45:41Z</time>
      </trkpt>
      <trkpt lat="43.58671" lon="6.2576">
        <ele>448.2</ele>
        <time>2016-04-13T12:45:49Z</time>
      </trkpt>
      <trkpt lat="43.58667" lon="6.25752">
        <ele>447.9</ele>
        <time>2016-04-13T12:45:54Z</time>
      </trkpt>
      <trkpt lat="43.5866" lon="6.25744">
        <ele>448.4</ele>
        <time>2016-04-13T12:46:01Z</time>
      </trkpt>
      <trkpt lat="43.58654" lon="6.25738">
        <ele>448.2</ele>
        <time>2016-04-13T12:46:06Z</time>
      </trkpt>
      <trkpt lat="43.58646" lon="6.25735">
        <ele>447.8</ele>
        <time>2016-04-13T12:46:10Z</time>
      </trkpt>
      <trkpt lat="43.58645" lon="6.25735">
        <ele>448</ele>
        <time>2016-04-13T12:46:11Z</time>
      </trkpt>
      <trkpt lat="43.58631" lon="6.25727">
        <ele>447.7</ele>
        <time>2016-04-13T12:46:24Z</time>
      </trkpt>
      <trkpt lat="43.58626" lon="6.25718">
        <ele>448</ele>
        <time>2016-04-13T12:46:30Z</time>
      </trkpt>
      <trkpt lat="43.58624" lon="6.25707">
        <ele>447</ele>
        <time>2016-04-13T12:46:37Z</time>
      </trkpt>
      <trkpt lat="43.58618" lon="6.25699">
        <ele>447.4</ele>
        <time>2016-04-13T12:46:43Z</time>
      </trkpt>
      <trkpt lat="43.58614" lon="6.25689">
        <ele>447.2</ele>
        <time>2016-04-13T12:46:51Z</time>
      </trkpt>
      <trkpt lat="43.58611" lon="6.25679">
        <ele>447.4</ele>
        <time>2016-04-13T12:46:56Z</time>
      </trkpt>
      <trkpt lat="43.58608" lon="6.2567">
        <ele>448.1</ele>
        <time>2016-04-13T12:47:08Z</time>
      </trkpt>
      <trkpt lat="43.5861" lon="6.25658">
        <ele>448</ele>
        <time>2016-04-13T12:47:14Z</time>
      </trkpt>
      <trkpt lat="43.5861" lon="6.25657">
        <ele>447.9</ele>
        <time>2016-04-13T12:47:15Z</time>
      </trkpt>
      <trkpt lat="43.58614" lon="6.25636">
        <ele>446.8</ele>
        <time>2016-04-13T12:47:28Z</time>
      </trkpt>
      <trkpt lat="43.58616" lon="6.25626">
        <ele>447.2</ele>
        <time>2016-04-13T12:47:33Z</time>
      </trkpt>
      <trkpt lat="43.58617" lon="6.25615">
        <ele>446.7</ele>
        <time>2016-04-13T12:47:38Z</time>
      </trkpt>
      <trkpt lat="43.58622" lon="6.25605">
        <ele>447.9</ele>
        <time>2016-04-13T12:47:48Z</time>
      </trkpt>
      <trkpt lat="43.58629" lon="6.25599">
        <ele>447.9</ele>
        <time>2016-04-13T12:47:57Z</time>
      </trkpt>
      <trkpt lat="43.58635" lon="6.25591">
        <ele>447.7</ele>
        <time>2016-04-13T12:48:05Z</time>
      </trkpt>
      <trkpt lat="43.58639" lon="6.25581">
        <ele>447.5</ele>
        <time>2016-04-13T12:48:11Z</time>
      </trkpt>
      <trkpt lat="43.58639" lon="6.25569">
        <ele>447.2</ele>
        <time>2016-04-13T12:48:18Z</time>
      </trkpt>
      <trkpt lat="43.58639" lon="6.25567">
        <ele>447.1</ele>
        <time>2016-04-13T12:48:19Z</time>
      </trkpt>
      <trkpt lat="43.58634" lon="6.25547">
        <ele>447.7</ele>
        <time>2016-04-13T12:48:39Z</time>
      </trkpt>
      <trkpt lat="43.58634" lon="6.25534">
        <ele>449.3</ele>
        <time>2016-04-13T12:48:48Z</time>
      </trkpt>
      <trkpt lat="43.58634" lon="6.25522">
        <ele>449.4</ele>
        <time>2016-04-13T12:48:57Z</time>
      </trkpt>
      <trkpt lat="43.58637" lon="6.25512">
        <ele>449.7</ele>
        <time>2016-04-13T12:49:04Z</time>
      </trkpt>
      <trkpt lat="43.58636" lon="6.25502">
        <ele>449.3</ele>
        <time>2016-04-13T12:49:09Z</time>
      </trkpt>
      <trkpt lat="43.58631" lon="6.25493">
        <ele>449.4</ele>
        <time>2016-04-13T12:49:17Z</time>
      </trkpt>
      <trkpt lat="43.58628" lon="6.25481">
        <ele>449.4</ele>
        <time>2016-04-13T12:49:24Z</time>
      </trkpt>
      <trkpt lat="43.58628" lon="6.25479">
        <ele>449.7</ele>
        <time>2016-04-13T12:49:25Z</time>
      </trkpt>
      <trkpt lat="43.5862" lon="6.2546">
        <ele>449.4</ele>
        <time>2016-04-13T12:49:37Z</time>
      </trkpt>
      <trkpt lat="43.58615" lon="6.25451">
        <ele>449.7</ele>
        <time>2016-04-13T12:49:44Z</time>
      </trkpt>
      <trkpt lat="43.58617" lon="6.25439">
        <ele>449.6</ele>
        <time>2016-04-13T12:49:53Z</time>
      </trkpt>
      <trkpt lat="43.58617" lon="6.25427">
        <ele>449.2</ele>
        <time>2016-04-13T12:50:01Z</time>
      </trkpt>
      <trkpt lat="43.5862" lon="6.25417">
        <ele>449.1</ele>
        <time>2016-04-13T12:50:10Z</time>
      </trkpt>
      <trkpt lat="43.58616" lon="6.25406">
        <ele>448.8</ele>
        <time>2016-04-13T12:50:33Z</time>
      </trkpt>
      <trkpt lat="43.58616" lon="6.25405">
        <ele>448.9</ele>
        <time>2016-04-13T12:50:34Z</time>
      </trkpt>
      <trkpt lat="43.58628" lon="6.25393">
        <ele>448.6</ele>
        <time>2016-04-13T12:50:58Z</time>
      </trkpt>
      <trkpt lat="43.58624" lon="6.25383">
        <ele>448.7</ele>
        <time>2016-04-13T12:51:04Z</time>
      </trkpt>
      <trkpt lat="43.58618" lon="6.25375">
        <ele>447.2</ele>
        <time>2016-04-13T12:51:10Z</time>
      </trkpt>
      <trkpt lat="43.58614" lon="6.25366">
        <ele>446.2</ele>
        <time>2016-04-13T12:51:18Z</time>
      </trkpt>
      <trkpt lat="43.58609" lon="6.25356">
        <ele>446.4</ele>
        <time>2016-04-13T12:51:24Z</time>
      </trkpt>
      <trkpt lat="43.58606" lon="6.25345">
        <ele>445.6</ele>
        <time>2016-04-13T12:51:32Z</time>
      </trkpt>
      <trkpt lat="43.58599" lon="6.25337">
        <ele>445.4</ele>
        <time>2016-04-13T12:51:37Z</time>
      </trkpt>
      <trkpt lat="43.58598" lon="6.25335">
        <ele>445.2</ele>
        <time>2016-04-13T12:51:38Z</time>
      </trkpt>
      <trkpt lat="43.58586" lon="6.25324">
        <ele>445.2</ele>
        <time>2016-04-13T12:51:46Z</time>
      </trkpt>
      <trkpt lat="43.58577" lon="6.25322">
        <ele>445.5</ele>
        <time>2016-04-13T12:51:51Z</time>
      </trkpt>
      <trkpt lat="43.58569" lon="6.25319">
        <ele>445</ele>
        <time>2016-04-13T12:51:58Z</time>
      </trkpt>
      <trkpt lat="43.58561" lon="6.25319">
        <ele>444.7</ele>
        <time>2016-04-13T12:52:03Z</time>
      </trkpt>
      <trkpt lat="43.58553" lon="6.25317">
        <ele>444.8</ele>
        <time>2016-04-13T12:52:09Z</time>
      </trkpt>
      <trkpt lat="43.58544" lon="6.25314">
        <ele>444.3</ele>
        <time>2016-04-13T12:52:16Z</time>
      </trkpt>
      <trkpt lat="43.58542" lon="6.25303">
        <ele>444.1</ele>
        <time>2016-04-13T12:52:30Z</time>
      </trkpt>
      <trkpt lat="43.58541" lon="6.25291">
        <ele>443.9</ele>
        <time>2016-04-13T12:52:40Z</time>
      </trkpt>
      <trkpt lat="43.58541" lon="6.25289">
        <ele>444.5</ele>
        <time>2016-04-13T12:52:41Z</time>
      </trkpt>
      <trkpt lat="43.58541" lon="6.25267">
        <ele>447.4</ele>
        <time>2016-04-13T12:52:57Z</time>
      </trkpt>
      <trkpt lat="43.58539" lon="6.25255">
        <ele>448.2</ele>
        <time>2016-04-13T12:53:03Z</time>
      </trkpt>
      <trkpt lat="43.58537" lon="6.25244">
        <ele>448.2</ele>
        <time>2016-04-13T12:53:10Z</time>
      </trkpt>
      <trkpt lat="43.58535" lon="6.25233">
        <ele>448.7</ele>
        <time>2016-04-13T12:53:17Z</time>
      </trkpt>
      <trkpt lat="43.58534" lon="6.25221">
        <ele>448.8</ele>
        <time>2016-04-13T12:53:25Z</time>
      </trkpt>
      <trkpt lat="43.58534" lon="6.25209">
        <ele>449.8</ele>
        <time>2016-04-13T12:53:33Z</time>
      </trkpt>
      <trkpt lat="43.58531" lon="6.25198">
        <ele>450.4</ele>
        <time>2016-04-13T12:53:42Z</time>
      </trkpt>
      <trkpt lat="43.58531" lon="6.25197">
        <ele>450.5</ele>
        <time>2016-04-13T12:53:43Z</time>
      </trkpt>
      <trkpt lat="43.58528" lon="6.25178">
        <ele>450.8</ele>
        <time>2016-04-13T12:53:57Z</time>
      </trkpt>
      <trkpt lat="43.58524" lon="6.25168">
        <ele>451.4</ele>
        <time>2016-04-13T12:54:06Z</time>
      </trkpt>
      <trkpt lat="43.58518" lon="6.2516">
        <ele>451.3</ele>
        <time>2016-04-13T12:54:13Z</time>
      </trkpt>
      <trkpt lat="43.58515" lon="6.25149">
        <ele>452</ele>
        <time>2016-04-13T12:54:21Z</time>
      </trkpt>
      <trkpt lat="43.58513" lon="6.25138">
        <ele>452</ele>
        <time>2016-04-13T12:54:28Z</time>
      </trkpt>
      <trkpt lat="43.5851" lon="6.25127">
        <ele>452.6</ele>
        <time>2016-04-13T12:54:35Z</time>
      </trkpt>
      <trkpt lat="43.58506" lon="6.25118">
        <ele>452.5</ele>
        <time>2016-04-13T12:54:39Z</time>
      </trkpt>
      <trkpt lat="43.58502" lon="6.25107">
        <ele>452.2</ele>
        <time>2016-04-13T12:54:46Z</time>
      </trkpt>
      <trkpt lat="43.58501" lon="6.25105">
        <ele>452.2</ele>
        <time>2016-04-13T12:54:47Z</time>
      </trkpt>
      <trkpt lat="43.58488" lon="6.25098">
        <ele>452.1</ele>
        <time>2016-04-13T12:55:12Z</time>
      </trkpt>
      <trkpt lat="43.58481" lon="6.25092">
        <ele>452.2</ele>
        <time>2016-04-13T12:55:53Z</time>
      </trkpt>
      <trkpt lat="43.58479" lon="6.25092">
        <ele>452.3</ele>
        <time>2016-04-13T12:55:54Z</time>
      </trkpt>
      <trkpt lat="43.58465" lon="6.25089">
        <ele>451.4</ele>
        <time>2016-04-13T12:56:08Z</time>
      </trkpt>
      <trkpt lat="43.58456" lon="6.25087">
        <ele>451.2</ele>
        <time>2016-04-13T12:56:16Z</time>
      </trkpt>
      <trkpt lat="43.58448" lon="6.25082">
        <ele>450.8</ele>
        <time>2016-04-13T12:56:24Z</time>
      </trkpt>
      <trkpt lat="43.58441" lon="6.25076">
        <ele>451.1</ele>
        <time>2016-04-13T12:56:31Z</time>
      </trkpt>
      <trkpt lat="43.58434" lon="6.25069">
        <ele>451.3</ele>
        <time>2016-04-13T12:56:38Z</time>
      </trkpt>
      <trkpt lat="43.58429" lon="6.25061">
        <ele>450.9</ele>
        <time>2016-04-13T12:56:45Z</time>
      </trkpt>
      <trkpt lat="43.58423" lon="6.25051">
        <ele>450.2</ele>
        <time>2016-04-13T12:56:51Z</time>
      </trkpt>
      <trkpt lat="43.58416" lon="6.25045">
        <ele>449.9</ele>
        <time>2016-04-13T12:57:01Z</time>
      </trkpt>
      <trkpt lat="43.58416" lon="6.25044">
        <ele>449.6</ele>
        <time>2016-04-13T12:57:02Z</time>
      </trkpt>
      <trkpt lat="43.58401" lon="6.25035">
        <ele>449.7</ele>
        <time>2016-04-13T12:57:17Z</time>
      </trkpt>
      <trkpt lat="43.58393" lon="6.25031">
        <ele>450.3</ele>
        <time>2016-04-13T12:57:24Z</time>
      </trkpt>
      <trkpt lat="43.58386" lon="6.25023">
        <ele>450.7</ele>
        <time>2016-04-13T12:57:34Z</time>
      </trkpt>
      <trkpt lat="43.5838" lon="6.25015">
        <ele>450.7</ele>
        <time>2016-04-13T12:57:40Z</time>
      </trkpt>
      <trkpt lat="43.58378" lon="6.25004">
        <ele>450.8</ele>
        <time>2016-04-13T12:57:48Z</time>
      </trkpt>
      <trkpt lat="43.58372" lon="6.24996">
        <ele>452.6</ele>
        <time>2016-04-13T12:57:54Z</time>
      </trkpt>
      <trkpt lat="43.58366" lon="6.2499">
        <ele>451.6</ele>
        <time>2016-04-13T12:57:58Z</time>
      </trkpt>
      <trkpt lat="43.5836" lon="6.24982">
        <ele>451.3</ele>
        <time>2016-04-13T12:58:03Z</time>
      </trkpt>
      <trkpt lat="43.58359" lon="6.24981">
        <ele>450.7</ele>
        <time>2016-04-13T12:58:04Z</time>
      </trkpt>
      <trkpt lat="43.58354" lon="6.24961">
        <ele>451.2</ele>
        <time>2016-04-13T12:58:19Z</time>
      </trkpt>
      <trkpt lat="43.58354" lon="6.2495">
        <ele>451.5</ele>
        <time>2016-04-13T12:58:27Z</time>
      </trkpt>
      <trkpt lat="43.58351" lon="6.2494">
        <ele>451.1</ele>
        <time>2016-04-13T12:58:34Z</time>
      </trkpt>
      <trkpt lat="43.58348" lon="6.24929">
        <ele>451.2</ele>
        <time>2016-04-13T12:58:41Z</time>
      </trkpt>
      <trkpt lat="43.58349" lon="6.24917">
        <ele>451.9</ele>
        <time>2016-04-13T12:58:47Z</time>
      </trkpt>
      <trkpt lat="43.58347" lon="6.24906">
        <ele>451.7</ele>
        <time>2016-04-13T12:58:55Z</time>
      </trkpt>
      <trkpt lat="43.5835" lon="6.24897">
        <ele>451.9</ele>
        <time>2016-04-13T12:59:01Z</time>
      </trkpt>
      <trkpt lat="43.58352" lon="6.24885">
        <ele>452.2</ele>
        <time>2016-04-13T12:59:09Z</time>
      </trkpt>
      <trkpt lat="43.58352" lon="6.24883">
        <ele>451.8</ele>
        <time>2016-04-13T12:59:10Z</time>
      </trkpt>
      <trkpt lat="43.58358" lon="6.24863">
        <ele>451.9</ele>
        <time>2016-04-13T12:59:26Z</time>
      </trkpt>
      <trkpt lat="43.58361" lon="6.24851">
        <ele>452.4</ele>
        <time>2016-04-13T12:59:34Z</time>
      </trkpt>
      <trkpt lat="43.58364" lon="6.2484">
        <ele>453.3</ele>
        <time>2016-04-13T12:59:41Z</time>
      </trkpt>
      <trkpt lat="43.58367" lon="6.24828">
        <ele>452.3</ele>
        <time>2016-04-13T12:59:50Z</time>
      </trkpt>
      <trkpt lat="43.58373" lon="6.24821">
        <ele>452.9</ele>
        <time>2016-04-13T13:00:00Z</time>
      </trkpt>
      <trkpt lat="43.58378" lon="6.24812">
        <ele>453.5</ele>
        <time>2016-04-13T13:00:06Z</time>
      </trkpt>
      <trkpt lat="43.58385" lon="6.24804">
        <ele>453.1</ele>
        <time>2016-04-13T13:00:12Z</time>
      </trkpt>
      <trkpt lat="43.58386" lon="6.24802">
        <ele>453.3</ele>
        <time>2016-04-13T13:00:13Z</time>
      </trkpt>
      <trkpt lat="43.58393" lon="6.24784">
        <ele>453.1</ele>
        <time>2016-04-13T13:00:28Z</time>
      </trkpt>
      <trkpt lat="43.58394" lon="6.24772">
        <ele>454.2</ele>
        <time>2016-04-13T13:00:36Z</time>
      </trkpt>
      <trkpt lat="43.58397" lon="6.24761">
        <ele>454.7</ele>
        <time>2016-04-13T13:00:42Z</time>
      </trkpt>
      <trkpt lat="43.584" lon="6.2475">
        <ele>454.3</ele>
        <time>2016-04-13T13:00:47Z</time>
      </trkpt>
      <trkpt lat="43.58403" lon="6.2474">
        <ele>454.4</ele>
        <time>2016-04-13T13:00:53Z</time>
      </trkpt>
      <trkpt lat="43.58405" lon="6.24728">
        <ele>454.4</ele>
        <time>2016-04-13T13:01:00Z</time>
      </trkpt>
      <trkpt lat="43.58406" lon="6.24717">
        <ele>453.6</ele>
        <time>2016-04-13T13:01:07Z</time>
      </trkpt>
      <trkpt lat="43.58404" lon="6.24705">
        <ele>453.9</ele>
        <time>2016-04-13T13:01:19Z</time>
      </trkpt>
      <trkpt lat="43.58404" lon="6.24705">
        <ele>453.9</ele>
        <time>2016-04-13T13:01:20Z</time>
      </trkpt>
      <trkpt lat="43.58398" lon="6.24696">
        <ele>454.6</ele>
        <time>2016-04-13T13:03:17Z</time>
      </trkpt>
      <trkpt lat="43.58389" lon="6.24676">
        <ele>454.9</ele>
        <time>2016-04-13T13:03:33Z</time>
      </trkpt>
      <trkpt lat="43.58383" lon="6.24668">
        <ele>453.9</ele>
        <time>2016-04-13T13:03:40Z</time>
      </trkpt>
      <trkpt lat="43.58377" lon="6.24661">
        <ele>453.8</ele>
        <time>2016-04-13T13:03:47Z</time>
      </trkpt>
      <trkpt lat="43.58371" lon="6.24653">
        <ele>453.2</ele>
        <time>2016-04-13T13:03:53Z</time>
      </trkpt>
      <trkpt lat="43.58365" lon="6.24648">
        <ele>453.3</ele>
        <time>2016-04-13T13:03:59Z</time>
      </trkpt>
      <trkpt lat="43.58356" lon="6.24646">
        <ele>452.1</ele>
        <time>2016-04-13T13:04:05Z</time>
      </trkpt>
      <trkpt lat="43.58349" lon="6.24647">
        <ele>452.3</ele>
        <time>2016-04-13T13:04:09Z</time>
      </trkpt>
      <trkpt lat="43.58341" lon="6.24647">
        <ele>452.1</ele>
        <time>2016-04-13T13:04:15Z</time>
      </trkpt>
      <trkpt lat="43.58332" lon="6.24649">
        <ele>451.9</ele>
        <time>2016-04-13T13:04:22Z</time>
      </trkpt>
      <trkpt lat="43.58332" lon="6.24649">
        <ele>451.5</ele>
        <time>2016-04-13T13:04:23Z</time>
      </trkpt>
      <trkpt lat="43.58315" lon="6.24652">
        <ele>449.3</ele>
        <time>2016-04-13T13:04:37Z</time>
      </trkpt>
      <trkpt lat="43.58306" lon="6.24653">
        <ele>449.3</ele>
        <time>2016-04-13T13:04:44Z</time>
      </trkpt>
      <trkpt lat="43.58297" lon="6.24653">
        <ele>449</ele>
        <time>2016-04-13T13:04:51Z</time>
      </trkpt>
      <trkpt lat="43.58289" lon="6.24652">
        <ele>447.5</ele>
        <time>2016-04-13T13:04:59Z</time>
      </trkpt>
      <trkpt lat="43.58281" lon="6.24654">
        <ele>447.6</ele>
        <time>2016-04-13T13:05:06Z</time>
      </trkpt>
      <trkpt lat="43.58273" lon="6.24657">
        <ele>447</ele>
        <time>2016-04-13T13:05:12Z</time>
      </trkpt>
      <trkpt lat="43.58265" lon="6.24659">
        <ele>446.1</ele>
        <time>2016-04-13T13:05:20Z</time>
      </trkpt>
      <trkpt lat="43.58257" lon="6.2466">
        <ele>446</ele>
        <time>2016-04-13T13:05:28Z</time>
      </trkpt>
      <trkpt lat="43.58256" lon="6.2466">
        <ele>445.7</ele>
        <time>2016-04-13T13:05:29Z</time>
      </trkpt>
      <trkpt lat="43.58242" lon="6.24658">
        <ele>446</ele>
        <time>2016-04-13T13:05:39Z</time>
      </trkpt>
      <trkpt lat="43.58234" lon="6.24659">
        <ele>446.2</ele>
        <time>2016-04-13T13:05:43Z</time>
      </trkpt>
      <trkpt lat="43.58226" lon="6.2466">
        <ele>445.1</ele>
        <time>2016-04-13T13:05:49Z</time>
      </trkpt>
      <trkpt lat="43.58217" lon="6.24661">
        <ele>446.7</ele>
        <time>2016-04-13T13:05:56Z</time>
      </trkpt>
      <trkpt lat="43.58209" lon="6.24659">
        <ele>445.2</ele>
        <time>2016-04-13T13:06:04Z</time>
      </trkpt>
      <trkpt lat="43.58201" lon="6.24661">
        <ele>446.1</ele>
        <time>2016-04-13T13:06:10Z</time>
      </trkpt>
      <trkpt lat="43.58193" lon="6.24663">
        <ele>444.7</ele>
        <time>2016-04-13T13:06:20Z</time>
      </trkpt>
      <trkpt lat="43.58186" lon="6.24668">
        <ele>444.7</ele>
        <time>2016-04-13T13:06:29Z</time>
      </trkpt>
      <trkpt lat="43.58185" lon="6.24669">
        <ele>444.6</ele>
        <time>2016-04-13T13:06:30Z</time>
      </trkpt>
      <trkpt lat="43.5817" lon="6.24679">
        <ele>441.2</ele>
        <time>2016-04-13T13:06:50Z</time>
      </trkpt>
      <trkpt lat="43.58164" lon="6.24688">
        <ele>439.3</ele>
        <time>2016-04-13T13:07:01Z</time>
      </trkpt>
      <trkpt lat="43.58156" lon="6.24691">
        <ele>436.8</ele>
        <time>2016-04-13T13:07:12Z</time>
      </trkpt>
      <trkpt lat="43.5815" lon="6.247">
        <ele>434.4</ele>
        <time>2016-04-13T13:07:23Z</time>
      </trkpt>
      <trkpt lat="43.58144" lon="6.24708">
        <ele>432.1</ele>
        <time>2016-04-13T13:07:34Z</time>
      </trkpt>
      <trkpt lat="43.58143" lon="6.24709">
        <ele>431.7</ele>
        <time>2016-04-13T13:07:35Z</time>
      </trkpt>
      <trkpt lat="43.58134" lon="6.24728">
        <ele>427</ele>
        <time>2016-04-13T13:08:01Z</time>
      </trkpt>
      <trkpt lat="43.58127" lon="6.24734">
        <ele>424.6</ele>
        <time>2016-04-13T13:08:14Z</time>
      </trkpt>
      <trkpt lat="43.5812" lon="6.2474">
        <ele>422.5</ele>
        <time>2016-04-13T13:08:28Z</time>
      </trkpt>
      <trkpt lat="43.58111" lon="6.24742">
        <ele>422.2</ele>
        <time>2016-04-13T13:08:34Z</time>
      </trkpt>
      <trkpt lat="43.58104" lon="6.24745">
        <ele>421.7</ele>
        <time>2016-04-13T13:08:40Z</time>
      </trkpt>
      <trkpt lat="43.58102" lon="6.24745">
        <ele>421.3</ele>
        <time>2016-04-13T13:08:41Z</time>
      </trkpt>
      <trkpt lat="43.58087" lon="6.2475">
        <ele>417.2</ele>
        <time>2016-04-13T13:09:08Z</time>
      </trkpt>
      <trkpt lat="43.58079" lon="6.24751">
        <ele>415.9</ele>
        <time>2016-04-13T13:09:18Z</time>
      </trkpt>
      <trkpt lat="43.58071" lon="6.24746">
        <ele>414</ele>
        <time>2016-04-13T13:09:30Z</time>
      </trkpt>
      <trkpt lat="43.58064" lon="6.24739">
        <ele>412</ele>
        <time>2016-04-13T13:09:42Z</time>
      </trkpt>
      <trkpt lat="43.58063" lon="6.24739">
        <ele>411.7</ele>
        <time>2016-04-13T13:09:43Z</time>
      </trkpt>
      <trkpt lat="43.58048" lon="6.24734">
        <ele>409.1</ele>
        <time>2016-04-13T13:09:58Z</time>
      </trkpt>
      <trkpt lat="43.5804" lon="6.24728">
        <ele>407.8</ele>
        <time>2016-04-13T13:10:07Z</time>
      </trkpt>
      <trkpt lat="43.58032" lon="6.24724">
        <ele>404.3</ele>
        <time>2016-04-13T13:10:18Z</time>
      </trkpt>
      <trkpt lat="43.58026" lon="6.24715">
        <ele>401.5</ele>
        <time>2016-04-13T13:10:33Z</time>
      </trkpt>
      <trkpt lat="43.58021" lon="6.24705">
        <ele>400.1</ele>
        <time>2016-04-13T13:10:43Z</time>
      </trkpt>
      <trkpt lat="43.58021" lon="6.24704">
        <ele>399.6</ele>
        <time>2016-04-13T13:10:44Z</time>
      </trkpt>
      <trkpt lat="43.58007" lon="6.24693">
        <ele>396</ele>
        <time>2016-04-13T13:11:03Z</time>
      </trkpt>
      <trkpt lat="43.58" lon="6.24699">
        <ele>394.2</ele>
        <time>2016-04-13T13:11:13Z</time>
      </trkpt>
      <trkpt lat="43.57996" lon="6.2471">
        <ele>392.6</ele>
        <time>2016-04-13T13:11:23Z</time>
      </trkpt>
      <trkpt lat="43.57991" lon="6.24721">
        <ele>390</ele>
        <time>2016-04-13T13:11:33Z</time>
      </trkpt>
      <trkpt lat="43.57988" lon="6.24731">
        <ele>389.6</ele>
        <time>2016-04-13T13:11:46Z</time>
      </trkpt>
      <trkpt lat="43.57987" lon="6.24732">
        <ele>389.3</ele>
        <time>2016-04-13T13:11:47Z</time>
      </trkpt>
      <trkpt lat="43.5798" lon="6.24751">
        <ele>385.3</ele>
        <time>2016-04-13T13:12:06Z</time>
      </trkpt>
      <trkpt lat="43.57974" lon="6.24742">
        <ele>381.2</ele>
        <time>2016-04-13T13:12:36Z</time>
      </trkpt>
      <trkpt lat="43.57972" lon="6.2473">
        <ele>379.9</ele>
        <time>2016-04-13T13:12:48Z</time>
      </trkpt>
      <trkpt lat="43.57971" lon="6.2473">
        <ele>379.8</ele>
        <time>2016-04-13T13:12:49Z</time>
      </trkpt>
      <trkpt lat="43.57958" lon="6.24717">
        <ele>377</ele>
        <time>2016-04-13T13:13:08Z</time>
      </trkpt>
      <trkpt lat="43.5795" lon="6.24711">
        <ele>375.8</ele>
        <time>2016-04-13T13:13:18Z</time>
      </trkpt>
      <trkpt lat="43.57946" lon="6.24701">
        <ele>373.9</ele>
        <time>2016-04-13T13:13:29Z</time>
      </trkpt>
      <trkpt lat="43.57944" lon="6.2469">
        <ele>372.4</ele>
        <time>2016-04-13T13:13:40Z</time>
      </trkpt>
      <trkpt lat="43.57943" lon="6.24679">
        <ele>371.1</ele>
        <time>2016-04-13T13:13:49Z</time>
      </trkpt>
      <trkpt lat="43.57942" lon="6.24677">
        <ele>371.1</ele>
        <time>2016-04-13T13:13:50Z</time>
      </trkpt>
      <trkpt lat="43.57929" lon="6.24668">
        <ele>368.6</ele>
        <time>2016-04-13T13:14:05Z</time>
      </trkpt>
      <trkpt lat="43.57923" lon="6.24658">
        <ele>368.7</ele>
        <time>2016-04-13T13:14:13Z</time>
      </trkpt>
      <trkpt lat="43.57916" lon="6.24653">
        <ele>367.1</ele>
        <time>2016-04-13T13:14:21Z</time>
      </trkpt>
      <trkpt lat="43.5791" lon="6.24644">
        <ele>367.1</ele>
        <time>2016-04-13T13:14:28Z</time>
      </trkpt>
      <trkpt lat="43.57907" lon="6.24634">
        <ele>367.3</ele>
        <time>2016-04-13T13:14:35Z</time>
      </trkpt>
      <trkpt lat="43.57904" lon="6.24623">
        <ele>366.6</ele>
        <time>2016-04-13T13:14:45Z</time>
      </trkpt>
      <trkpt lat="43.57898" lon="6.24614">
        <ele>365.8</ele>
        <time>2016-04-13T13:14:53Z</time>
      </trkpt>
      <trkpt lat="43.57897" lon="6.24612">
        <ele>365.6</ele>
        <time>2016-04-13T13:14:54Z</time>
      </trkpt>
      <trkpt lat="43.57889" lon="6.24594">
        <ele>364.6</ele>
        <time>2016-04-13T13:15:08Z</time>
      </trkpt>
      <trkpt lat="43.57882" lon="6.24586">
        <ele>364.4</ele>
        <time>2016-04-13T13:15:16Z</time>
      </trkpt>
      <trkpt lat="43.57874" lon="6.24583">
        <ele>362.7</ele>
        <time>2016-04-13T13:15:25Z</time>
      </trkpt>
      <trkpt lat="43.57865" lon="6.24586">
        <ele>359</ele>
        <time>2016-04-13T13:15:35Z</time>
      </trkpt>
      <trkpt lat="43.57861" lon="6.24596">
        <ele>358.8</ele>
        <time>2016-04-13T13:15:44Z</time>
      </trkpt>
      <trkpt lat="43.57859" lon="6.24608">
        <ele>357.9</ele>
        <time>2016-04-13T13:15:54Z</time>
      </trkpt>
      <trkpt lat="43.57858" lon="6.24609">
        <ele>358</ele>
        <time>2016-04-13T13:15:55Z</time>
      </trkpt>
      <trkpt lat="43.57855" lon="6.24631">
        <ele>355.6</ele>
        <time>2016-04-13T13:16:13Z</time>
      </trkpt>
      <trkpt lat="43.57855" lon="6.24643">
        <ele>354.8</ele>
        <time>2016-04-13T13:16:21Z</time>
      </trkpt>
      <trkpt lat="43.57847" lon="6.2464">
        <ele>351.2</ele>
        <time>2016-04-13T13:16:42Z</time>
      </trkpt>
      <trkpt lat="43.57842" lon="6.2463">
        <ele>350.7</ele>
        <time>2016-04-13T13:16:54Z</time>
      </trkpt>
      <trkpt lat="43.57839" lon="6.24619">
        <ele>349.4</ele>
        <time>2016-04-13T13:17:03Z</time>
      </trkpt>
      <trkpt lat="43.57839" lon="6.24617">
        <ele>349.5</ele>
        <time>2016-04-13T13:17:04Z</time>
      </trkpt>
      <trkpt lat="43.57834" lon="6.24598">
        <ele>349</ele>
        <time>2016-04-13T13:17:18Z</time>
      </trkpt>
      <trkpt lat="43.57832" lon="6.24586">
        <ele>350.3</ele>
        <time>2016-04-13T13:17:27Z</time>
      </trkpt>
      <trkpt lat="43.5783" lon="6.24576">
        <ele>349.7</ele>
        <time>2016-04-13T13:17:33Z</time>
      </trkpt>
      <trkpt lat="43.57826" lon="6.24566">
        <ele>348.9</ele>
        <time>2016-04-13T13:17:41Z</time>
      </trkpt>
      <trkpt lat="43.57824" lon="6.24554">
        <ele>348.1</ele>
        <time>2016-04-13T13:17:50Z</time>
      </trkpt>
      <trkpt lat="43.57826" lon="6.24542">
        <ele>345.5</ele>
        <time>2016-04-13T13:18:02Z</time>
      </trkpt>
      <trkpt lat="43.57826" lon="6.2453">
        <ele>345.3</ele>
        <time>2016-04-13T13:18:12Z</time>
      </trkpt>
      <trkpt lat="43.57826" lon="6.24528">
        <ele>345.3</ele>
        <time>2016-04-13T13:18:13Z</time>
      </trkpt>
      <trkpt lat="43.57834" lon="6.24512">
        <ele>343</ele>
        <time>2016-04-13T13:18:39Z</time>
      </trkpt>
      <trkpt lat="43.57839" lon="6.24502">
        <ele>339.6</ele>
        <time>2016-04-13T13:19:06Z</time>
      </trkpt>
      <trkpt lat="43.57838" lon="6.24489">
        <ele>338.6</ele>
        <time>2016-04-13T13:19:27Z</time>
      </trkpt>
      <trkpt lat="43.57838" lon="6.24489">
        <ele>338.7</ele>
        <time>2016-04-13T13:19:28Z</time>
      </trkpt>
      <trkpt lat="43.57829" lon="6.24489">
        <ele>337.7</ele>
        <time>2016-04-13T13:22:25Z</time>
      </trkpt>
      <trkpt lat="43.57831" lon="6.24476">
        <ele>336.3</ele>
        <time>2016-04-13T13:23:32Z</time>
      </trkpt>
      <trkpt lat="43.57816" lon="6.24468">
        <ele>333.2</ele>
        <time>2016-04-13T13:23:52Z</time>
      </trkpt>
      <trkpt lat="43.57807" lon="6.2447">
        <ele>330.4</ele>
        <time>2016-04-13T13:24:02Z</time>
      </trkpt>
      <trkpt lat="43.57799" lon="6.24473">
        <ele>329.6</ele>
        <time>2016-04-13T13:24:10Z</time>
      </trkpt>
      <trkpt lat="43.57791" lon="6.24473">
        <ele>327.7</ele>
        <time>2016-04-13T13:24:20Z</time>
      </trkpt>
      <trkpt lat="43.57784" lon="6.24478">
        <ele>326</ele>
        <time>2016-04-13T13:24:31Z</time>
      </trkpt>
      <trkpt lat="43.5778" lon="6.24488">
        <ele>324.1</ele>
        <time>2016-04-13T13:24:43Z</time>
      </trkpt>
      <trkpt lat="43.57779" lon="6.24489">
        <ele>323.7</ele>
        <time>2016-04-13T13:24:44Z</time>
      </trkpt>
      <trkpt lat="43.5777" lon="6.24507">
        <ele>321</ele>
        <time>2016-04-13T13:25:04Z</time>
      </trkpt>
      <trkpt lat="43.57764" lon="6.24515">
        <ele>320.1</ele>
        <time>2016-04-13T13:25:13Z</time>
      </trkpt>
      <trkpt lat="43.57762" lon="6.24525">
        <ele>319.4</ele>
        <time>2016-04-13T13:25:19Z</time>
      </trkpt>
      <trkpt lat="43.57755" lon="6.24531">
        <ele>319.3</ele>
        <time>2016-04-13T13:25:32Z</time>
      </trkpt>
      <trkpt lat="43.57747" lon="6.24529">
        <ele>315.8</ele>
        <time>2016-04-13T13:25:48Z</time>
      </trkpt>
      <trkpt lat="43.57745" lon="6.24528">
        <ele>315.5</ele>
        <time>2016-04-13T13:25:49Z</time>
      </trkpt>
      <trkpt lat="43.57738" lon="6.24545">
        <ele>315</ele>
        <time>2016-04-13T13:26:01Z</time>
      </trkpt>
      <trkpt lat="43.57736" lon="6.24556">
        <ele>314.5</ele>
        <time>2016-04-13T13:26:07Z</time>
      </trkpt>
      <trkpt lat="43.57734" lon="6.24567">
        <ele>313.8</ele>
        <time>2016-04-13T13:26:15Z</time>
      </trkpt>
      <trkpt lat="43.57731" lon="6.24557">
        <ele>311.8</ele>
        <time>2016-04-13T13:27:27Z</time>
      </trkpt>
      <trkpt lat="43.57731" lon="6.24556">
        <ele>311.8</ele>
        <time>2016-04-13T13:27:28Z</time>
      </trkpt>
      <trkpt lat="43.57715" lon="6.24554">
        <ele>306.1</ele>
        <time>2016-04-13T13:28:06Z</time>
      </trkpt>
      <trkpt lat="43.57708" lon="6.24548">
        <ele>302.7</ele>
        <time>2016-04-13T13:28:16Z</time>
      </trkpt>
      <trkpt lat="43.577" lon="6.24547">
        <ele>302.7</ele>
        <time>2016-04-13T13:28:25Z</time>
      </trkpt>
      <trkpt lat="43.57694" lon="6.24538">
        <ele>299.1</ele>
        <time>2016-04-13T13:28:37Z</time>
      </trkpt>
      <trkpt lat="43.57694" lon="6.24538">
        <ele>299</ele>
        <time>2016-04-13T13:28:38Z</time>
      </trkpt>
      <trkpt lat="43.57681" lon="6.24529">
        <ele>298.2</ele>
        <time>2016-04-13T13:28:54Z</time>
      </trkpt>
      <trkpt lat="43.57688" lon="6.24537">
        <ele>296.9</ele>
        <time>2016-04-13T13:29:52Z</time>
      </trkpt>
      <trkpt lat="43.57688" lon="6.24537">
        <ele>296.5</ele>
        <time>2016-04-13T13:29:53Z</time>
      </trkpt>
      <trkpt lat="43.57673" lon="6.24527">
        <ele>295.3</ele>
        <time>2016-04-13T13:30:43Z</time>
      </trkpt>
      <trkpt lat="43.57666" lon="6.24525">
        <ele>296.7</ele>
        <time>2016-04-13T13:30:48Z</time>
      </trkpt>
      <trkpt lat="43.57658" lon="6.24521">
        <ele>295.9</ele>
        <time>2016-04-13T13:30:53Z</time>
      </trkpt>
      <trkpt lat="43.57656" lon="6.2452">
        <ele>296</ele>
        <time>2016-04-13T13:30:54Z</time>
      </trkpt>
      <trkpt lat="43.57641" lon="6.24516">
        <ele>293.3</ele>
        <time>2016-04-13T13:31:06Z</time>
      </trkpt>
      <trkpt lat="43.57633" lon="6.24514">
        <ele>292.8</ele>
        <time>2016-04-13T13:31:12Z</time>
      </trkpt>
      <trkpt lat="43.57625" lon="6.24514">
        <ele>292.1</ele>
        <time>2016-04-13T13:31:18Z</time>
      </trkpt>
      <trkpt lat="43.57616" lon="6.24514">
        <ele>292.5</ele>
        <time>2016-04-13T13:31:25Z</time>
      </trkpt>
      <trkpt lat="43.57607" lon="6.24514">
        <ele>291.7</ele>
        <time>2016-04-13T13:31:32Z</time>
      </trkpt>
      <trkpt lat="43.57599" lon="6.24515">
        <ele>290.4</ele>
        <time>2016-04-13T13:31:39Z</time>
      </trkpt>
      <trkpt lat="43.5759" lon="6.24516">
        <ele>290.7</ele>
        <time>2016-04-13T13:31:46Z</time>
      </trkpt>
      <trkpt lat="43.57583" lon="6.24521">
        <ele>290.8</ele>
        <time>2016-04-13T13:31:53Z</time>
      </trkpt>
      <trkpt lat="43.57577" lon="6.24525">
        <ele>290.7</ele>
        <time>2016-04-13T13:31:58Z</time>
      </trkpt>
      <trkpt lat="43.57575" lon="6.24527">
        <ele>290.2</ele>
        <time>2016-04-13T13:31:59Z</time>
      </trkpt>
      <trkpt lat="43.57565" lon="6.24542">
        <ele>289.5</ele>
        <time>2016-04-13T13:32:13Z</time>
      </trkpt>
      <trkpt lat="43.57558" lon="6.24549">
        <ele>289.6</ele>
        <time>2016-04-13T13:32:20Z</time>
      </trkpt>
      <trkpt lat="43.57552" lon="6.24558">
        <ele>290</ele>
        <time>2016-04-13T13:32:27Z</time>
      </trkpt>
      <trkpt lat="43.57543" lon="6.2456">
        <ele>288.1</ele>
        <time>2016-04-13T13:32:35Z</time>
      </trkpt>
      <trkpt lat="43.57535" lon="6.24561">
        <ele>288.7</ele>
        <time>2016-04-13T13:32:43Z</time>
      </trkpt>
      <trkpt lat="43.57526" lon="6.2456">
        <ele>289.1</ele>
        <time>2016-04-13T13:32:50Z</time>
      </trkpt>
      <trkpt lat="43.57519" lon="6.24555">
        <ele>288.8</ele>
        <time>2016-04-13T13:32:58Z</time>
      </trkpt>
      <trkpt lat="43.57513" lon="6.24548">
        <ele>288.4</ele>
        <time>2016-04-13T13:33:03Z</time>
      </trkpt>
      <trkpt lat="43.57512" lon="6.24547">
        <ele>288.6</ele>
        <time>2016-04-13T13:33:04Z</time>
      </trkpt>
      <trkpt lat="43.57501" lon="6.24536">
        <ele>289.1</ele>
        <time>2016-04-13T13:33:14Z</time>
      </trkpt>
      <trkpt lat="43.57495" lon="6.24528">
        <ele>289.8</ele>
        <time>2016-04-13T13:33:22Z</time>
      </trkpt>
      <trkpt lat="43.57489" lon="6.24522">
        <ele>289.9</ele>
        <time>2016-04-13T13:33:28Z</time>
      </trkpt>
      <trkpt lat="43.57484" lon="6.24513">
        <ele>289.2</ele>
        <time>2016-04-13T13:33:34Z</time>
      </trkpt>
      <trkpt lat="43.57477" lon="6.24507">
        <ele>288.7</ele>
        <time>2016-04-13T13:33:40Z</time>
      </trkpt>
      <trkpt lat="43.57471" lon="6.245">
        <ele>289.4</ele>
        <time>2016-04-13T13:33:47Z</time>
      </trkpt>
      <trkpt lat="43.57465" lon="6.24492">
        <ele>290.2</ele>
        <time>2016-04-13T13:33:53Z</time>
      </trkpt>
      <trkpt lat="43.57459" lon="6.24483">
        <ele>290.2</ele>
        <time>2016-04-13T13:34:00Z</time>
      </trkpt>
      <trkpt lat="43.57452" lon="6.24476">
        <ele>290.2</ele>
        <time>2016-04-13T13:34:08Z</time>
      </trkpt>
      <trkpt lat="43.57451" lon="6.24475">
        <ele>289.9</ele>
        <time>2016-04-13T13:34:09Z</time>
      </trkpt>
      <trkpt lat="43.57442" lon="6.24458">
        <ele>289.8</ele>
        <time>2016-04-13T13:34:21Z</time>
      </trkpt>
      <trkpt lat="43.57436" lon="6.24449">
        <ele>290.4</ele>
        <time>2016-04-13T13:34:28Z</time>
      </trkpt>
      <trkpt lat="43.5743" lon="6.24442">
        <ele>290.3</ele>
        <time>2016-04-13T13:34:35Z</time>
      </trkpt>
      <trkpt lat="43.57423" lon="6.24435">
        <ele>290.3</ele>
        <time>2016-04-13T13:34:43Z</time>
      </trkpt>
      <trkpt lat="43.57418" lon="6.24427">
        <ele>289.7</ele>
        <time>2016-04-13T13:34:51Z</time>
      </trkpt>
      <trkpt lat="43.57411" lon="6.2442">
        <ele>292.1</ele>
        <time>2016-04-13T13:35:01Z</time>
      </trkpt>
      <trkpt lat="43.57406" lon="6.2441">
        <ele>290.8</ele>
        <time>2016-04-13T13:35:11Z</time>
      </trkpt>
      <trkpt lat="43.57405" lon="6.2441">
        <ele>290.9</ele>
        <time>2016-04-13T13:35:12Z</time>
      </trkpt>
      <trkpt lat="43.57394" lon="6.24393">
        <ele>292.3</ele>
        <time>2016-04-13T13:35:25Z</time>
      </trkpt>
      <trkpt lat="43.57389" lon="6.24384">
        <ele>292.4</ele>
        <time>2016-04-13T13:35:34Z</time>
      </trkpt>
      <trkpt lat="43.57383" lon="6.24376">
        <ele>293.5</ele>
        <time>2016-04-13T13:35:43Z</time>
      </trkpt>
      <trkpt lat="43.57378" lon="6.24367">
        <ele>294.6</ele>
        <time>2016-04-13T13:35:51Z</time>
      </trkpt>
      <trkpt lat="43.57376" lon="6.24356">
        <ele>295.7</ele>
        <time>2016-04-13T13:36:01Z</time>
      </trkpt>
      <trkpt lat="43.57379" lon="6.24345">
        <ele>297.7</ele>
        <time>2016-04-13T13:36:13Z</time>
      </trkpt>
      <trkpt lat="43.5738" lon="6.24344">
        <ele>297.7</ele>
        <time>2016-04-13T13:36:14Z</time>
      </trkpt>
      <trkpt lat="43.57387" lon="6.24324">
        <ele>298.5</ele>
        <time>2016-04-13T13:36:28Z</time>
      </trkpt>
      <trkpt lat="43.57386" lon="6.24312">
        <ele>301.1</ele>
        <time>2016-04-13T13:36:38Z</time>
      </trkpt>
      <trkpt lat="43.57385" lon="6.24301">
        <ele>302.5</ele>
        <time>2016-04-13T13:36:47Z</time>
      </trkpt>
      <trkpt lat="43.57384" lon="6.2429">
        <ele>302.6</ele>
        <time>2016-04-13T13:36:55Z</time>
      </trkpt>
      <trkpt lat="43.57381" lon="6.24278">
        <ele>304.2</ele>
        <time>2016-04-13T13:37:04Z</time>
      </trkpt>
      <trkpt lat="43.57383" lon="6.24266">
        <ele>306</ele>
        <time>2016-04-13T13:37:12Z</time>
      </trkpt>
      <trkpt lat="43.57383" lon="6.24254">
        <ele>307.1</ele>
        <time>2016-04-13T13:37:24Z</time>
      </trkpt>
      <trkpt lat="43.57383" lon="6.24254">
        <ele>307.2</ele>
        <time>2016-04-13T13:37:25Z</time>
      </trkpt>
      <trkpt lat="43.57386" lon="6.2423">
        <ele>310</ele>
        <time>2016-04-13T13:37:48Z</time>
      </trkpt>
      <trkpt lat="43.57391" lon="6.24222">
        <ele>311.5</ele>
        <time>2016-04-13T13:37:54Z</time>
      </trkpt>
      <trkpt lat="43.57393" lon="6.24211">
        <ele>312.5</ele>
        <time>2016-04-13T13:38:03Z</time>
      </trkpt>
      <trkpt lat="43.57397" lon="6.24201">
        <ele>314</ele>
        <time>2016-04-13T13:38:13Z</time>
      </trkpt>
      <trkpt lat="43.57399" lon="6.2419">
        <ele>315.6</ele>
        <time>2016-04-13T13:38:20Z</time>
      </trkpt>
      <trkpt lat="43.574" lon="6.24178">
        <ele>315.9</ele>
        <time>2016-04-13T13:39:05Z</time>
      </trkpt>
      <trkpt lat="43.574" lon="6.24178">
        <ele>316</ele>
        <time>2016-04-13T13:39:06Z</time>
      </trkpt>
      <trkpt lat="43.57404" lon="6.24166">
        <ele>315.5</ele>
        <time>2016-04-13T13:40:35Z</time>
      </trkpt>
      <trkpt lat="43.57412" lon="6.24147">
        <ele>315.4</ele>
        <time>2016-04-13T13:40:53Z</time>
      </trkpt>
      <trkpt lat="43.57415" lon="6.24137">
        <ele>314.6</ele>
        <time>2016-04-13T13:41:01Z</time>
      </trkpt>
      <trkpt lat="43.5742" lon="6.24128">
        <ele>315.8</ele>
        <time>2016-04-13T13:41:09Z</time>
      </trkpt>
      <trkpt lat="43.57426" lon="6.2412">
        <ele>315.5</ele>
        <time>2016-04-13T13:41:18Z</time>
      </trkpt>
      <trkpt lat="43.57431" lon="6.24113">
        <ele>315.5</ele>
        <time>2016-04-13T13:41:24Z</time>
      </trkpt>
      <trkpt lat="43.57436" lon="6.24104">
        <ele>316.2</ele>
        <time>2016-04-13T13:41:33Z</time>
      </trkpt>
      <trkpt lat="43.57441" lon="6.24096">
        <ele>316.1</ele>
        <time>2016-04-13T13:41:41Z</time>
      </trkpt>
      <trkpt lat="43.57443" lon="6.24094">
        <ele>316</ele>
        <time>2016-04-13T13:41:42Z</time>
      </trkpt>
      <trkpt lat="43.57451" lon="6.24077">
        <ele>317.1</ele>
        <time>2016-04-13T13:41:55Z</time>
      </trkpt>
      <trkpt lat="43.57457" lon="6.24068">
        <ele>317.5</ele>
        <time>2016-04-13T13:42:03Z</time>
      </trkpt>
      <trkpt lat="43.57463" lon="6.24059">
        <ele>318.1</ele>
        <time>2016-04-13T13:42:11Z</time>
      </trkpt>
      <trkpt lat="43.57467" lon="6.2405">
        <ele>317.2</ele>
        <time>2016-04-13T13:42:17Z</time>
      </trkpt>
      <trkpt lat="43.57472" lon="6.24042">
        <ele>318.1</ele>
        <time>2016-04-13T13:42:21Z</time>
      </trkpt>
      <trkpt lat="43.57478" lon="6.24035">
        <ele>318.3</ele>
        <time>2016-04-13T13:42:29Z</time>
      </trkpt>
      <trkpt lat="43.57486" lon="6.2403">
        <ele>320</ele>
        <time>2016-04-13T13:42:36Z</time>
      </trkpt>
      <trkpt lat="43.57494" lon="6.24024">
        <ele>318.3</ele>
        <time>2016-04-13T13:42:46Z</time>
      </trkpt>
      <trkpt lat="43.57494" lon="6.24023">
        <ele>318.9</ele>
        <time>2016-04-13T13:42:47Z</time>
      </trkpt>
      <trkpt lat="43.57505" lon="6.24006">
        <ele>319.9</ele>
        <time>2016-04-13T13:43:00Z</time>
      </trkpt>
      <trkpt lat="43.57512" lon="6.23999">
        <ele>319.4</ele>
        <time>2016-04-13T13:43:13Z</time>
      </trkpt>
      <trkpt lat="43.57518" lon="6.2399">
        <ele>319.2</ele>
        <time>2016-04-13T13:43:25Z</time>
      </trkpt>
      <trkpt lat="43.5752" lon="6.23979">
        <ele>320.3</ele>
        <time>2016-04-13T13:43:38Z</time>
      </trkpt>
      <trkpt lat="43.57514" lon="6.2397">
        <ele>319.2</ele>
        <time>2016-04-13T13:43:47Z</time>
      </trkpt>
      <trkpt lat="43.57513" lon="6.23969">
        <ele>319.5</ele>
        <time>2016-04-13T13:43:48Z</time>
      </trkpt>
      <trkpt lat="43.57504" lon="6.2395">
        <ele>319.4</ele>
        <time>2016-04-13T13:44:00Z</time>
      </trkpt>
      <trkpt lat="43.575" lon="6.23941">
        <ele>319.6</ele>
        <time>2016-04-13T13:44:08Z</time>
      </trkpt>
      <trkpt lat="43.57499" lon="6.2393">
        <ele>319.3</ele>
        <time>2016-04-13T13:44:13Z</time>
      </trkpt>
      <trkpt lat="43.57496" lon="6.23919">
        <ele>319.5</ele>
        <time>2016-04-13T13:44:20Z</time>
      </trkpt>
      <trkpt lat="43.57497" lon="6.23909">
        <ele>320.4</ele>
        <time>2016-04-13T13:44:25Z</time>
      </trkpt>
      <trkpt lat="43.57496" lon="6.23897">
        <ele>320.1</ele>
        <time>2016-04-13T13:44:32Z</time>
      </trkpt>
      <trkpt lat="43.57496" lon="6.23885">
        <ele>319.6</ele>
        <time>2016-04-13T13:44:40Z</time>
      </trkpt>
      <trkpt lat="43.57488" lon="6.23881">
        <ele>320.2</ele>
        <time>2016-04-13T13:44:48Z</time>
      </trkpt>
      <trkpt lat="43.57486" lon="6.23882">
        <ele>320.5</ele>
        <time>2016-04-13T13:44:49Z</time>
      </trkpt>
      <trkpt lat="43.57472" lon="6.23882">
        <ele>320.2</ele>
        <time>2016-04-13T13:45:01Z</time>
      </trkpt>
      <trkpt lat="43.57463" lon="6.23881">
        <ele>319.7</ele>
        <time>2016-04-13T13:45:11Z</time>
      </trkpt>
      <trkpt lat="43.57455" lon="6.23882">
        <ele>320.2</ele>
        <time>2016-04-13T13:45:19Z</time>
      </trkpt>
      <trkpt lat="43.57447" lon="6.23883">
        <ele>319.2</ele>
        <time>2016-04-13T13:45:26Z</time>
      </trkpt>
      <trkpt lat="43.57438" lon="6.23882">
        <ele>319.6</ele>
        <time>2016-04-13T13:45:40Z</time>
      </trkpt>
      <trkpt lat="43.5743" lon="6.23881">
        <ele>319.4</ele>
        <time>2016-04-13T13:46:04Z</time>
      </trkpt>
      <trkpt lat="43.57429" lon="6.2388">
        <ele>319.4</ele>
        <time>2016-04-13T13:46:05Z</time>
      </trkpt>
      <trkpt lat="43.57413" lon="6.23875">
        <ele>319.7</ele>
        <time>2016-04-13T13:46:23Z</time>
      </trkpt>
      <trkpt lat="43.57406" lon="6.23868">
        <ele>318.9</ele>
        <time>2016-04-13T13:46:30Z</time>
      </trkpt>
      <trkpt lat="43.57398" lon="6.23862">
        <ele>319.3</ele>
        <time>2016-04-13T13:46:37Z</time>
      </trkpt>
      <trkpt lat="43.5739" lon="6.2386">
        <ele>320.7</ele>
        <time>2016-04-13T13:46:43Z</time>
      </trkpt>
      <trkpt lat="43.57382" lon="6.23861">
        <ele>321.1</ele>
        <time>2016-04-13T13:46:50Z</time>
      </trkpt>
      <trkpt lat="43.57375" lon="6.23867">
        <ele>319.3</ele>
        <time>2016-04-13T13:46:57Z</time>
      </trkpt>
      <trkpt lat="43.57367" lon="6.23872">
        <ele>320.4</ele>
        <time>2016-04-13T13:47:04Z</time>
      </trkpt>
      <trkpt lat="43.57359" lon="6.23876">
        <ele>319.6</ele>
        <time>2016-04-13T13:47:11Z</time>
      </trkpt>
      <trkpt lat="43.57358" lon="6.23877">
        <ele>319.7</ele>
        <time>2016-04-13T13:47:12Z</time>
      </trkpt>
      <trkpt lat="43.57344" lon="6.2388">
        <ele>320.9</ele>
        <time>2016-04-13T13:47:26Z</time>
      </trkpt>
      <trkpt lat="43.57335" lon="6.2388">
        <ele>321.5</ele>
        <time>2016-04-13T13:47:33Z</time>
      </trkpt>
      <trkpt lat="43.57327" lon="6.23876">
        <ele>321.7</ele>
        <time>2016-04-13T13:47:42Z</time>
      </trkpt>
      <trkpt lat="43.57319" lon="6.23871">
        <ele>320.6</ele>
        <time>2016-04-13T13:47:49Z</time>
      </trkpt>
      <trkpt lat="43.57311" lon="6.23869">
        <ele>320.5</ele>
        <time>2016-04-13T13:47:56Z</time>
      </trkpt>
      <trkpt lat="43.57302" lon="6.23868">
        <ele>320</ele>
        <time>2016-04-13T13:48:03Z</time>
      </trkpt>
      <trkpt lat="43.57294" lon="6.23868">
        <ele>319.6</ele>
        <time>2016-04-13T13:48:11Z</time>
      </trkpt>
      <trkpt lat="43.57286" lon="6.23866">
        <ele>320</ele>
        <time>2016-04-13T13:48:16Z</time>
      </trkpt>
      <trkpt lat="43.57285" lon="6.23865">
        <ele>319.9</ele>
        <time>2016-04-13T13:48:17Z</time>
      </trkpt>
      <trkpt lat="43.5727" lon="6.23863">
        <ele>319.5</ele>
        <time>2016-04-13T13:48:28Z</time>
      </trkpt>
      <trkpt lat="43.57261" lon="6.23865">
        <ele>319.6</ele>
        <time>2016-04-13T13:48:36Z</time>
      </trkpt>
      <trkpt lat="43.57253" lon="6.2387">
        <ele>319</ele>
        <time>2016-04-13T13:48:42Z</time>
      </trkpt>
      <trkpt lat="43.57249" lon="6.2388">
        <ele>319.1</ele>
        <time>2016-04-13T13:49:12Z</time>
      </trkpt>
      <trkpt lat="43.57244" lon="6.2387">
        <ele>318.3</ele>
        <time>2016-04-13T13:49:35Z</time>
      </trkpt>
      <trkpt lat="43.57244" lon="6.23868">
        <ele>318.6</ele>
        <time>2016-04-13T13:49:36Z</time>
      </trkpt>
      <trkpt lat="43.57238" lon="6.23849">
        <ele>318.1</ele>
        <time>2016-04-13T13:49:51Z</time>
      </trkpt>
      <trkpt lat="43.57234" lon="6.23839">
        <ele>318.3</ele>
        <time>2016-04-13T13:49:57Z</time>
      </trkpt>
      <trkpt lat="43.57228" lon="6.2383">
        <ele>319.1</ele>
        <time>2016-04-13T13:50:05Z</time>
      </trkpt>
      <trkpt lat="43.57222" lon="6.23821">
        <ele>320.1</ele>
        <time>2016-04-13T13:50:13Z</time>
      </trkpt>
      <trkpt lat="43.57216" lon="6.23812">
        <ele>320.2</ele>
        <time>2016-04-13T13:50:20Z</time>
      </trkpt>
      <trkpt lat="43.5721" lon="6.23805">
        <ele>320.6</ele>
        <time>2016-04-13T13:50:28Z</time>
      </trkpt>
      <trkpt lat="43.57204" lon="6.23796">
        <ele>319.7</ele>
        <time>2016-04-13T13:50:37Z</time>
      </trkpt>
      <trkpt lat="43.57203" lon="6.23795">
        <ele>319.6</ele>
        <time>2016-04-13T13:50:38Z</time>
      </trkpt>
      <trkpt lat="43.57195" lon="6.23776">
        <ele>319.8</ele>
        <time>2016-04-13T13:50:55Z</time>
      </trkpt>
      <trkpt lat="43.5719" lon="6.23767">
        <ele>317.9</ele>
        <time>2016-04-13T13:51:03Z</time>
      </trkpt>
      <trkpt lat="43.57184" lon="6.2376">
        <ele>318.4</ele>
        <time>2016-04-13T13:51:10Z</time>
      </trkpt>
      <trkpt lat="43.57178" lon="6.23753">
        <ele>317.9</ele>
        <time>2016-04-13T13:51:16Z</time>
      </trkpt>
      <trkpt lat="43.57171" lon="6.23748">
        <ele>317.5</ele>
        <time>2016-04-13T13:51:24Z</time>
      </trkpt>
      <trkpt lat="43.57163" lon="6.23743">
        <ele>316.8</ele>
        <time>2016-04-13T13:51:31Z</time>
      </trkpt>
      <trkpt lat="43.57157" lon="6.23736">
        <ele>317.4</ele>
        <time>2016-04-13T13:51:38Z</time>
      </trkpt>
      <trkpt lat="43.57156" lon="6.23734">
        <ele>317.4</ele>
        <time>2016-04-13T13:51:39Z</time>
      </trkpt>
      <trkpt lat="43.57145" lon="6.23721">
        <ele>316.7</ele>
        <time>2016-04-13T13:51:52Z</time>
      </trkpt>
      <trkpt lat="43.57137" lon="6.23714">
        <ele>317.2</ele>
        <time>2016-04-13T13:51:59Z</time>
      </trkpt>
      <trkpt lat="43.5713" lon="6.23709">
        <ele>317.6</ele>
        <time>2016-04-13T13:52:06Z</time>
      </trkpt>
      <trkpt lat="43.57125" lon="6.237">
        <ele>318.1</ele>
        <time>2016-04-13T13:52:13Z</time>
      </trkpt>
      <trkpt lat="43.57118" lon="6.23692">
        <ele>316.1</ele>
        <time>2016-04-13T13:52:20Z</time>
      </trkpt>
      <trkpt lat="43.57111" lon="6.23685">
        <ele>315.6</ele>
        <time>2016-04-13T13:52:33Z</time>
      </trkpt>
      <trkpt lat="43.57102" lon="6.23684">
        <ele>315.3</ele>
        <time>2016-04-13T13:52:47Z</time>
      </trkpt>
      <trkpt lat="43.57101" lon="6.23683">
        <ele>315.3</ele>
        <time>2016-04-13T13:52:48Z</time>
      </trkpt>
      <trkpt lat="43.5709" lon="6.23669">
        <ele>314.6</ele>
        <time>2016-04-13T13:53:02Z</time>
      </trkpt>
      <trkpt lat="43.57084" lon="6.23662">
        <ele>314.2</ele>
        <time>2016-04-13T13:53:08Z</time>
      </trkpt>
      <trkpt lat="43.57077" lon="6.23654">
        <ele>314.4</ele>
        <time>2016-04-13T13:53:17Z</time>
      </trkpt>
      <trkpt lat="43.5707" lon="6.23646">
        <ele>314</ele>
        <time>2016-04-13T13:53:24Z</time>
      </trkpt>
      <trkpt lat="43.57066" lon="6.23637">
        <ele>313.7</ele>
        <time>2016-04-13T13:53:30Z</time>
      </trkpt>
      <trkpt lat="43.57063" lon="6.23627">
        <ele>313.7</ele>
        <time>2016-04-13T13:53:38Z</time>
      </trkpt>
      <trkpt lat="43.5706" lon="6.23615">
        <ele>311.6</ele>
        <time>2016-04-13T13:53:45Z</time>
      </trkpt>
      <trkpt lat="43.57058" lon="6.23604">
        <ele>311.1</ele>
        <time>2016-04-13T13:53:53Z</time>
      </trkpt>
      <trkpt lat="43.57058" lon="6.23603">
        <ele>311.1</ele>
        <time>2016-04-13T13:53:54Z</time>
      </trkpt>
      <trkpt lat="43.57054" lon="6.23582">
        <ele>308.9</ele>
        <time>2016-04-13T13:54:08Z</time>
      </trkpt>
      <trkpt lat="43.57051" lon="6.23571">
        <ele>307.8</ele>
        <time>2016-04-13T13:54:19Z</time>
      </trkpt>
      <trkpt lat="43.57046" lon="6.23561">
        <ele>306.5</ele>
        <time>2016-04-13T13:54:28Z</time>
      </trkpt>
      <trkpt lat="43.5704" lon="6.23553">
        <ele>305.3</ele>
        <time>2016-04-13T13:54:34Z</time>
      </trkpt>
      <trkpt lat="43.57034" lon="6.23545">
        <ele>304.7</ele>
        <time>2016-04-13T13:54:41Z</time>
      </trkpt>
      <trkpt lat="43.57027" lon="6.23539">
        <ele>303.3</ele>
        <time>2016-04-13T13:54:47Z</time>
      </trkpt>
      <trkpt lat="43.57022" lon="6.23531">
        <ele>303.2</ele>
        <time>2016-04-13T13:54:54Z</time>
      </trkpt>
      <trkpt lat="43.57021" lon="6.23529">
        <ele>302.6</ele>
        <time>2016-04-13T13:54:55Z</time>
      </trkpt>
      <trkpt lat="43.57012" lon="6.23514">
        <ele>299.9</ele>
        <time>2016-04-13T13:55:09Z</time>
      </trkpt>
      <trkpt lat="43.57004" lon="6.23507">
        <ele>299.6</ele>
        <time>2016-04-13T13:55:17Z</time>
      </trkpt>
      <trkpt lat="43.56997" lon="6.23501">
        <ele>299.2</ele>
        <time>2016-04-13T13:55:22Z</time>
      </trkpt>
      <trkpt lat="43.56991" lon="6.23494">
        <ele>299.5</ele>
        <time>2016-04-13T13:55:30Z</time>
      </trkpt>
      <trkpt lat="43.56983" lon="6.23488">
        <ele>298.2</ele>
        <time>2016-04-13T13:55:37Z</time>
      </trkpt>
      <trkpt lat="43.56977" lon="6.23482">
        <ele>297.2</ele>
        <time>2016-04-13T13:55:42Z</time>
      </trkpt>
      <trkpt lat="43.5697" lon="6.23474">
        <ele>296.7</ele>
        <time>2016-04-13T13:55:50Z</time>
      </trkpt>
      <trkpt lat="43.56964" lon="6.23467">
        <ele>296.9</ele>
        <time>2016-04-13T13:55:56Z</time>
      </trkpt>
      <trkpt lat="43.56963" lon="6.23465">
        <ele>296.6</ele>
        <time>2016-04-13T13:55:57Z</time>
      </trkpt>
      <trkpt lat="43.56951" lon="6.23451">
        <ele>296.4</ele>
        <time>2016-04-13T13:56:09Z</time>
      </trkpt>
      <trkpt lat="43.56943" lon="6.23447">
        <ele>295.6</ele>
        <time>2016-04-13T13:56:16Z</time>
      </trkpt>
      <trkpt lat="43.56935" lon="6.23443">
        <ele>295.5</ele>
        <time>2016-04-13T13:56:24Z</time>
      </trkpt>
      <trkpt lat="43.56928" lon="6.23437">
        <ele>293.7</ele>
        <time>2016-04-13T13:56:32Z</time>
      </trkpt>
      <trkpt lat="43.5692" lon="6.23432">
        <ele>293</ele>
        <time>2016-04-13T13:56:42Z</time>
      </trkpt>
      <trkpt lat="43.56912" lon="6.23428">
        <ele>293</ele>
        <time>2016-04-13T13:56:48Z</time>
      </trkpt>
      <trkpt lat="43.56904" lon="6.23428">
        <ele>291.7</ele>
        <time>2016-04-13T13:56:57Z</time>
      </trkpt>
      <trkpt lat="43.56903" lon="6.23427">
        <ele>291.2</ele>
        <time>2016-04-13T13:56:58Z</time>
      </trkpt>
      <trkpt lat="43.56891" lon="6.23412">
        <ele>288.5</ele>
        <time>2016-04-13T13:57:13Z</time>
      </trkpt>
      <trkpt lat="43.56885" lon="6.23403">
        <ele>288.8</ele>
        <time>2016-04-13T13:57:22Z</time>
      </trkpt>
      <trkpt lat="43.56878" lon="6.23396">
        <ele>286.1</ele>
        <time>2016-04-13T13:57:31Z</time>
      </trkpt>
      <trkpt lat="43.56873" lon="6.23387">
        <ele>285</ele>
        <time>2016-04-13T13:57:41Z</time>
      </trkpt>
      <trkpt lat="43.56867" lon="6.23378">
        <ele>284.7</ele>
        <time>2016-04-13T13:57:49Z</time>
      </trkpt>
      <trkpt lat="43.5686" lon="6.23371">
        <ele>284.3</ele>
        <time>2016-04-13T13:57:56Z</time>
      </trkpt>
      <trkpt lat="43.56854" lon="6.23362">
        <ele>283.5</ele>
        <time>2016-04-13T13:58:05Z</time>
      </trkpt>
      <trkpt lat="43.56854" lon="6.23361">
        <ele>283.6</ele>
        <time>2016-04-13T13:58:06Z</time>
      </trkpt>
      <trkpt lat="43.56846" lon="6.23343">
        <ele>282.6</ele>
        <time>2016-04-13T13:58:19Z</time>
      </trkpt>
      <trkpt lat="43.56838" lon="6.23336">
        <ele>281.8</ele>
        <time>2016-04-13T13:58:24Z</time>
      </trkpt>
      <trkpt lat="43.56833" lon="6.23327">
        <ele>281.8</ele>
        <time>2016-04-13T13:58:34Z</time>
      </trkpt>
      <trkpt lat="43.56826" lon="6.23323">
        <ele>281.2</ele>
        <time>2016-04-13T13:58:39Z</time>
      </trkpt>
      <trkpt lat="43.56819" lon="6.23317">
        <ele>281</ele>
        <time>2016-04-13T13:58:47Z</time>
      </trkpt>
      <trkpt lat="43.56811" lon="6.23311">
        <ele>280.3</ele>
        <time>2016-04-13T13:58:54Z</time>
      </trkpt>
      <trkpt lat="43.56804" lon="6.23307">
        <ele>279.3</ele>
        <time>2016-04-13T13:59:00Z</time>
      </trkpt>
      <trkpt lat="43.56798" lon="6.233">
        <ele>277.5</ele>
        <time>2016-04-13T13:59:07Z</time>
      </trkpt>
      <trkpt lat="43.56797" lon="6.23298">
        <ele>277.5</ele>
        <time>2016-04-13T13:59:08Z</time>
      </trkpt>
      <trkpt lat="43.56785" lon="6.23287">
        <ele>277.5</ele>
        <time>2016-04-13T13:59:19Z</time>
      </trkpt>
      <trkpt lat="43.56778" lon="6.23282">
        <ele>276.7</ele>
        <time>2016-04-13T13:59:24Z</time>
      </trkpt>
      <trkpt lat="43.56772" lon="6.23274">
        <ele>275.8</ele>
        <time>2016-04-13T13:59:29Z</time>
      </trkpt>
      <trkpt lat="43.56764" lon="6.2327">
        <ele>274.9</ele>
        <time>2016-04-13T13:59:36Z</time>
      </trkpt>
      <trkpt lat="43.56755" lon="6.23268">
        <ele>276.1</ele>
        <time>2016-04-13T13:59:44Z</time>
      </trkpt>
      <trkpt lat="43.56747" lon="6.23266">
        <ele>276</ele>
        <time>2016-04-13T13:59:53Z</time>
      </trkpt>
      <trkpt lat="43.56739" lon="6.23262">
        <ele>275.8</ele>
        <time>2016-04-13T14:00:02Z</time>
      </trkpt>
      <trkpt lat="43.56731" lon="6.23265">
        <ele>276.2</ele>
        <time>2016-04-13T14:00:12Z</time>
      </trkpt>
      <trkpt lat="43.5673" lon="6.23266">
        <ele>276</ele>
        <time>2016-04-13T14:00:13Z</time>
      </trkpt>
      <trkpt lat="43.56715" lon="6.23261">
        <ele>276.4</ele>
        <time>2016-04-13T14:00:28Z</time>
      </trkpt>
      <trkpt lat="43.56706" lon="6.23259">
        <ele>276.8</ele>
        <time>2016-04-13T14:00:35Z</time>
      </trkpt>
      <trkpt lat="43.56698" lon="6.23256">
        <ele>277.5</ele>
        <time>2016-04-13T14:00:44Z</time>
      </trkpt>
      <trkpt lat="43.56689" lon="6.23254">
        <ele>278.8</ele>
        <time>2016-04-13T14:00:51Z</time>
      </trkpt>
      <trkpt lat="43.56681" lon="6.23249">
        <ele>278.9</ele>
        <time>2016-04-13T14:01:01Z</time>
      </trkpt>
      <trkpt lat="43.56674" lon="6.23244">
        <ele>278.6</ele>
        <time>2016-04-13T14:01:11Z</time>
      </trkpt>
      <trkpt lat="43.56666" lon="6.23239">
        <ele>278.7</ele>
        <time>2016-04-13T14:01:19Z</time>
      </trkpt>
      <trkpt lat="43.56665" lon="6.23237">
        <ele>278.8</ele>
        <time>2016-04-13T14:01:20Z</time>
      </trkpt>
      <trkpt lat="43.56652" lon="6.23226">
        <ele>279.2</ele>
        <time>2016-04-13T14:01:33Z</time>
      </trkpt>
      <trkpt lat="43.56645" lon="6.2322">
        <ele>279.1</ele>
        <time>2016-04-13T14:01:41Z</time>
      </trkpt>
      <trkpt lat="43.56638" lon="6.23213">
        <ele>278.7</ele>
        <time>2016-04-13T14:01:49Z</time>
      </trkpt>
      <trkpt lat="43.5663" lon="6.23207">
        <ele>278.6</ele>
        <time>2016-04-13T14:01:57Z</time>
      </trkpt>
      <trkpt lat="43.56622" lon="6.23203">
        <ele>278.1</ele>
        <time>2016-04-13T14:02:05Z</time>
      </trkpt>
      <trkpt lat="43.56617" lon="6.23193">
        <ele>278.4</ele>
        <time>2016-04-13T14:02:23Z</time>
      </trkpt>
      <trkpt lat="43.56616" lon="6.23192">
        <ele>278.1</ele>
        <time>2016-04-13T14:02:24Z</time>
      </trkpt>
      <trkpt lat="43.56601" lon="6.23185">
        <ele>280</ele>
        <time>2016-04-13T14:03:03Z</time>
      </trkpt>
      <trkpt lat="43.56592" lon="6.23182">
        <ele>281.8</ele>
        <time>2016-04-13T14:04:42Z</time>
      </trkpt>
      <trkpt lat="43.56591" lon="6.2318">
        <ele>281.9</ele>
        <time>2016-04-13T14:04:43Z</time>
      </trkpt>
      <trkpt lat="43.56584" lon="6.23162">
        <ele>283.1</ele>
        <time>2016-04-13T14:05:05Z</time>
      </trkpt>
      <trkpt lat="43.56579" lon="6.23152">
        <ele>284.8</ele>
        <time>2016-04-13T14:05:14Z</time>
      </trkpt>
      <trkpt lat="43.56572" lon="6.23145">
        <ele>285.1</ele>
        <time>2016-04-13T14:05:28Z</time>
      </trkpt>
      <trkpt lat="43.56569" lon="6.23134">
        <ele>285.7</ele>
        <time>2016-04-13T14:05:49Z</time>
      </trkpt>
      <trkpt lat="43.5657" lon="6.23133">
        <ele>285.3</ele>
        <time>2016-04-13T14:05:50Z</time>
      </trkpt>
      <trkpt lat="43.56563" lon="6.23115">
        <ele>286.4</ele>
        <time>2016-04-13T14:06:50Z</time>
      </trkpt>
      <trkpt lat="43.56562" lon="6.23114">
        <ele>286.2</ele>
        <time>2016-04-13T14:06:51Z</time>
      </trkpt>
      <trkpt lat="43.56568" lon="6.23137">
        <ele>286.4</ele>
        <time>2016-04-13T14:08:55Z</time>
      </trkpt>
      <trkpt lat="43.56568" lon="6.23138">
        <ele>286.5</ele>
        <time>2016-04-13T14:08:56Z</time>
      </trkpt>
      <trkpt lat="43.56572" lon="6.23149">
        <ele>286.1</ele>
        <time>2016-04-13T14:10:47Z</time>
      </trkpt>
      <trkpt lat="43.56584" lon="6.23164">
        <ele>283.3</ele>
        <time>2016-04-13T14:11:04Z</time>
      </trkpt>
      <trkpt lat="43.56593" lon="6.23165">
        <ele>282.9</ele>
        <time>2016-04-13T14:11:18Z</time>
      </trkpt>
      <trkpt lat="43.566" lon="6.23171">
        <ele>283.5</ele>
        <time>2016-04-13T14:11:29Z</time>
      </trkpt>
      <trkpt lat="43.56601" lon="6.23183">
        <ele>281.7</ele>
        <time>2016-04-13T14:12:43Z</time>
      </trkpt>
      <trkpt lat="43.56601" lon="6.23184">
        <ele>281.9</ele>
        <time>2016-04-13T14:12:44Z</time>
      </trkpt>
      <trkpt lat="43.56608" lon="6.23192">
        <ele>281.2</ele>
        <time>2016-04-13T14:14:32Z</time>
      </trkpt>
      <trkpt lat="43.56616" lon="6.23197">
        <ele>280.1</ele>
        <time>2016-04-13T14:16:19Z</time>
      </trkpt>
      <trkpt lat="43.56627" lon="6.23214">
        <ele>279.8</ele>
        <time>2016-04-13T14:17:01Z</time>
      </trkpt>
      <trkpt lat="43.56635" lon="6.23219">
        <ele>279.3</ele>
        <time>2016-04-13T14:17:13Z</time>
      </trkpt>
      <trkpt lat="43.56642" lon="6.23227">
        <ele>279.2</ele>
        <time>2016-04-13T14:17:24Z</time>
      </trkpt>
      <trkpt lat="43.56642" lon="6.23228">
        <ele>279.3</ele>
        <time>2016-04-13T14:17:25Z</time>
      </trkpt>
      <trkpt lat="43.56657" lon="6.23233">
        <ele>280.2</ele>
        <time>2016-04-13T14:17:51Z</time>
      </trkpt>
      <trkpt lat="43.56664" lon="6.23241">
        <ele>280.1</ele>
        <time>2016-04-13T14:17:57Z</time>
      </trkpt>
      <trkpt lat="43.56672" lon="6.23246">
        <ele>279.8</ele>
        <time>2016-04-13T14:18:05Z</time>
      </trkpt>
      <trkpt lat="43.56677" lon="6.23256">
        <ele>280</ele>
        <time>2016-04-13T14:18:19Z</time>
      </trkpt>
      <trkpt lat="43.56685" lon="6.23261">
        <ele>279</ele>
        <time>2016-04-13T14:18:28Z</time>
      </trkpt>
      <trkpt lat="43.56686" lon="6.23261">
        <ele>279</ele>
        <time>2016-04-13T14:18:29Z</time>
      </trkpt>
      <trkpt lat="43.567" lon="6.23272">
        <ele>279</ele>
        <time>2016-04-13T14:18:46Z</time>
      </trkpt>
      <trkpt lat="43.56709" lon="6.23271">
        <ele>277.7</ele>
        <time>2016-04-13T14:19:01Z</time>
      </trkpt>
      <trkpt lat="43.567" lon="6.23271">
        <ele>275</ele>
        <time>2016-04-13T14:19:27Z</time>
      </trkpt>
      <trkpt lat="43.56691" lon="6.23269">
        <ele>274.1</ele>
        <time>2016-04-13T14:19:33Z</time>
      </trkpt>
      <trkpt lat="43.5669" lon="6.23268">
        <ele>273.6</ele>
        <time>2016-04-13T14:19:34Z</time>
      </trkpt>
      <trkpt lat="43.56675" lon="6.23269">
        <ele>270.5</ele>
        <time>2016-04-13T14:19:51Z</time>
      </trkpt>
      <trkpt lat="43.56667" lon="6.23268">
        <ele>270</ele>
        <time>2016-04-13T14:19:56Z</time>
      </trkpt>
      <trkpt lat="43.56659" lon="6.23265">
        <ele>268.1</ele>
        <time>2016-04-13T14:20:04Z</time>
      </trkpt>
      <trkpt lat="43.5665" lon="6.2326">
        <ele>267.1</ele>
        <time>2016-04-13T14:20:10Z</time>
      </trkpt>
      <trkpt lat="43.56644" lon="6.23254">
        <ele>267.6</ele>
        <time>2016-04-13T14:20:18Z</time>
      </trkpt>
      <trkpt lat="43.56636" lon="6.2325">
        <ele>266.1</ele>
        <time>2016-04-13T14:20:25Z</time>
      </trkpt>
      <trkpt lat="43.56631" lon="6.23241">
        <ele>265.6</ele>
        <time>2016-04-13T14:20:32Z</time>
      </trkpt>
      <trkpt lat="43.56623" lon="6.23234">
        <ele>264.9</ele>
        <time>2016-04-13T14:20:41Z</time>
      </trkpt>
      <trkpt lat="43.56622" lon="6.23234">
        <ele>264.3</ele>
        <time>2016-04-13T14:20:42Z</time>
      </trkpt>
      <trkpt lat="43.56606" lon="6.23237">
        <ele>262</ele>
        <time>2016-04-13T14:21:56Z</time>
      </trkpt>
      <trkpt lat="43.56599" lon="6.23252">
        <ele>262.3</ele>
        <time>2016-04-13T14:21:57Z</time>
      </trkpt>
      <trkpt lat="43.56585" lon="6.23241">
        <ele>263</ele>
        <time>2016-04-13T14:22:19Z</time>
      </trkpt>
      <trkpt lat="43.56581" lon="6.2323">
        <ele>261.5</ele>
        <time>2016-04-13T14:22:33Z</time>
      </trkpt>
      <trkpt lat="43.56576" lon="6.23221">
        <ele>262.9</ele>
        <time>2016-04-13T14:22:48Z</time>
      </trkpt>
      <trkpt lat="43.5657" lon="6.23213">
        <ele>262.1</ele>
        <time>2016-04-13T14:22:58Z</time>
      </trkpt>
      <trkpt lat="43.56569" lon="6.23213">
        <ele>262</ele>
        <time>2016-04-13T14:22:59Z</time>
      </trkpt>
      <trkpt lat="43.56554" lon="6.23219">
        <ele>262.3</ele>
        <time>2016-04-13T14:23:12Z</time>
      </trkpt>
      <trkpt lat="43.56543" lon="6.23242">
        <ele>260.3</ele>
        <time>2016-04-13T14:23:21Z</time>
      </trkpt>
      <trkpt lat="43.56532" lon="6.23228">
        <ele>260.1</ele>
        <time>2016-04-13T14:23:39Z</time>
      </trkpt>
      <trkpt lat="43.56535" lon="6.23211">
        <ele>261.3</ele>
        <time>2016-04-13T14:23:47Z</time>
      </trkpt>
      <trkpt lat="43.56532" lon="6.23199">
        <ele>260.8</ele>
        <time>2016-04-13T14:23:57Z</time>
      </trkpt>
      <trkpt lat="43.56528" lon="6.23189">
        <ele>260.4</ele>
        <time>2016-04-13T14:24:05Z</time>
      </trkpt>
      <trkpt lat="43.56527" lon="6.23187">
        <ele>260.5</ele>
        <time>2016-04-13T14:24:06Z</time>
      </trkpt>
      <trkpt lat="43.56522" lon="6.23167">
        <ele>260.5</ele>
        <time>2016-04-13T14:24:23Z</time>
      </trkpt>
      <trkpt lat="43.56521" lon="6.23155">
        <ele>260.7</ele>
        <time>2016-04-13T14:24:30Z</time>
      </trkpt>
      <trkpt lat="43.5652" lon="6.23144">
        <ele>260.6</ele>
        <time>2016-04-13T14:24:38Z</time>
      </trkpt>
      <trkpt lat="43.56519" lon="6.23132">
        <ele>260.8</ele>
        <time>2016-04-13T14:24:46Z</time>
      </trkpt>
      <trkpt lat="43.5652" lon="6.2312">
        <ele>261</ele>
        <time>2016-04-13T14:24:53Z</time>
      </trkpt>
      <trkpt lat="43.56522" lon="6.2311">
        <ele>261.5</ele>
        <time>2016-04-13T14:24:58Z</time>
      </trkpt>
      <trkpt lat="43.56518" lon="6.23099">
        <ele>258.9</ele>
        <time>2016-04-13T14:25:14Z</time>
      </trkpt>
      <trkpt lat="43.56517" lon="6.23099">
        <ele>258.8</ele>
        <time>2016-04-13T14:25:15Z</time>
      </trkpt>
      <trkpt lat="43.56524" lon="6.23077">
        <ele>256.4</ele>
        <time>2016-04-13T14:25:59Z</time>
      </trkpt>
      <trkpt lat="43.56532" lon="6.23076">
        <ele>257.1</ele>
        <time>2016-04-13T14:26:04Z</time>
      </trkpt>
      <trkpt lat="43.5654" lon="6.23074">
        <ele>255.3</ele>
        <time>2016-04-13T14:26:10Z</time>
      </trkpt>
      <trkpt lat="43.56539" lon="6.23062">
        <ele>253.9</ele>
        <time>2016-04-13T14:26:18Z</time>
      </trkpt>
      <trkpt lat="43.56539" lon="6.23061">
        <ele>253.7</ele>
        <time>2016-04-13T14:26:19Z</time>
      </trkpt>
      <trkpt lat="43.56542" lon="6.2304">
        <ele>249.5</ele>
        <time>2016-04-13T14:26:35Z</time>
      </trkpt>
      <trkpt lat="43.56543" lon="6.23027">
        <ele>247.5</ele>
        <time>2016-04-13T14:26:46Z</time>
      </trkpt>
      <trkpt lat="43.56545" lon="6.23016">
        <ele>245</ele>
        <time>2016-04-13T14:26:56Z</time>
      </trkpt>
      <trkpt lat="43.5655" lon="6.23005">
        <ele>244.2</ele>
        <time>2016-04-13T14:27:05Z</time>
      </trkpt>
      <trkpt lat="43.56553" lon="6.22995">
        <ele>242.5</ele>
        <time>2016-04-13T14:27:12Z</time>
      </trkpt>
      <trkpt lat="43.56556" lon="6.22983">
        <ele>241.2</ele>
        <time>2016-04-13T14:27:22Z</time>
      </trkpt>
      <trkpt lat="43.56557" lon="6.22982">
        <ele>240.8</ele>
        <time>2016-04-13T14:27:23Z</time>
      </trkpt>
      <trkpt lat="43.56564" lon="6.22961">
        <ele>237.9</ele>
        <time>2016-04-13T14:27:40Z</time>
      </trkpt>
      <trkpt lat="43.56563" lon="6.22949">
        <ele>236.6</ele>
        <time>2016-04-13T14:27:47Z</time>
      </trkpt>
      <trkpt lat="43.56559" lon="6.2294">
        <ele>236.3</ele>
        <time>2016-04-13T14:27:54Z</time>
      </trkpt>
      <trkpt lat="43.56556" lon="6.22951">
        <ele>236.3</ele>
        <time>2016-04-13T14:28:51Z</time>
      </trkpt>
      <trkpt lat="43.56555" lon="6.22951">
        <ele>236.7</ele>
        <time>2016-04-13T14:28:52Z</time>
      </trkpt>
      <trkpt lat="43.56562" lon="6.22952">
        <ele>237.8</ele>
        <time>2016-04-13T14:29:23Z</time>
      </trkpt>
      <trkpt lat="43.56568" lon="6.22944">
        <ele>237.2</ele>
        <time>2016-04-13T14:29:51Z</time>
      </trkpt>
      <trkpt lat="43.56561" lon="6.22938">
        <ele>236</ele>
        <time>2016-04-13T14:30:12Z</time>
      </trkpt>
      <trkpt lat="43.5656" lon="6.22937">
        <ele>236.4</ele>
        <time>2016-04-13T14:30:13Z</time>
      </trkpt>
      <trkpt lat="43.56561" lon="6.22938">
        <ele>236.2</ele>
        <time>2016-04-13T14:31:41Z</time>
      </trkpt>
      <trkpt lat="43.56561" lon="6.22937">
        <ele>236.6</ele>
        <time>2016-04-13T14:31:42Z</time>
      </trkpt>
      <trkpt lat="43.56572" lon="6.22921">
        <ele>236.2</ele>
        <time>2016-04-13T14:32:19Z</time>
      </trkpt>
      <trkpt lat="43.56577" lon="6.22911">
        <ele>236.7</ele>
        <time>2016-04-13T14:32:28Z</time>
      </trkpt>
      <trkpt lat="43.5658" lon="6.229">
        <ele>236.8</ele>
        <time>2016-04-13T14:32:38Z</time>
      </trkpt>
      <trkpt lat="43.56586" lon="6.22893">
        <ele>237.8</ele>
        <time>2016-04-13T14:32:44Z</time>
      </trkpt>
      <trkpt lat="43.56587" lon="6.22892">
        <ele>237.2</ele>
        <time>2016-04-13T14:32:45Z</time>
      </trkpt>
      <trkpt lat="43.56596" lon="6.22874">
        <ele>237.6</ele>
        <time>2016-04-13T14:32:59Z</time>
      </trkpt>
      <trkpt lat="43.56598" lon="6.22863">
        <ele>238.5</ele>
        <time>2016-04-13T14:33:22Z</time>
      </trkpt>
      <trkpt lat="43.56601" lon="6.22852">
        <ele>238.2</ele>
        <time>2016-04-13T14:33:31Z</time>
      </trkpt>
      <trkpt lat="43.56597" lon="6.22842">
        <ele>239.2</ele>
        <time>2016-04-13T14:33:40Z</time>
      </trkpt>
      <trkpt lat="43.56589" lon="6.22837">
        <ele>237.8</ele>
        <time>2016-04-13T14:33:47Z</time>
      </trkpt>
      <trkpt lat="43.56588" lon="6.22836">
        <ele>237.9</ele>
        <time>2016-04-13T14:33:48Z</time>
      </trkpt>
      <trkpt lat="43.56575" lon="6.22827">
        <ele>237.2</ele>
        <time>2016-04-13T14:34:01Z</time>
      </trkpt>
      <trkpt lat="43.56566" lon="6.22825">
        <ele>236.3</ele>
        <time>2016-04-13T14:34:10Z</time>
      </trkpt>
      <trkpt lat="43.56558" lon="6.22823">
        <ele>234.8</ele>
        <time>2016-04-13T14:34:21Z</time>
      </trkpt>
      <trkpt lat="43.56549" lon="6.2282">
        <ele>234</ele>
        <time>2016-04-13T14:34:30Z</time>
      </trkpt>
      <trkpt lat="43.56543" lon="6.22814">
        <ele>232.5</ele>
        <time>2016-04-13T14:34:39Z</time>
      </trkpt>
      <trkpt lat="43.56539" lon="6.22804">
        <ele>232.2</ele>
        <time>2016-04-13T14:34:48Z</time>
      </trkpt>
      <trkpt lat="43.56538" lon="6.22802">
        <ele>232.5</ele>
        <time>2016-04-13T14:34:49Z</time>
      </trkpt>
    </trkseg>
  </trk>
</gpx>